Date StartTime U_cm/s V_cm/s W_cm/s Ustd_cm/s Vstd_cm/s Wstd_cm/s Uvar_(cm/s)^2 Vvar_(cm/s)^2 Wvar_(cm/s)^2 KE_(m/s)^2 TurbulentKE_(m/s)^2 HorizWindSpeed_cm/s FrictionSpeec_cm/s DragCoef SpeedOfSound_m/s SonicTemperature_C Pressure_mb 
01/07/2015  00:00:00     -133.136      -57.257      -11.554       21.416       15.422       14.522      458.648      237.831      210.892        1.102        0.045      144.926       12.005        0.007      333.004        2.035      871.834
01/07/2015  00:01:00     -120.488      -56.862       -5.311       14.192       13.585       11.227      201.405      184.545      126.035        0.915        0.026      133.231        1.422        0.000      333.023        2.067      871.854
01/07/2015  00:02:00     -106.479      -53.679       -5.942       13.415       16.037       13.683      179.967      257.191      187.223        0.744        0.031      119.244       11.237        0.009      333.006        2.039      871.878
01/07/2015  00:03:00      -98.362      -57.314       -5.537       19.448       19.981       12.026      378.233      399.259      144.634        0.696        0.046      113.842       10.459        0.008      333.093        2.182      871.888
01/07/2015  00:04:00     -117.600      -64.741       -5.474       22.968       18.965       14.650      527.509      359.652      214.626        0.958        0.055      134.243       10.072        0.006      333.020        2.061      871.881
01/07/2015  00:05:00     -133.914      -70.235      -12.199       19.361       15.407       10.356      374.847      237.361      107.245        1.187        0.036      151.215        8.139        0.003      332.963        1.967      871.860
01/07/2015  00:06:00     -130.681      -42.849       -3.782       21.282       21.230       18.647      452.935      450.714      347.723        1.009        0.063      137.527       12.975        0.009      332.937        1.925      871.846
01/07/2015  00:07:00     -105.424      -54.301        1.770       29.549       27.560       16.507      873.144      759.541      272.470        0.799        0.095      118.586       11.985        0.010      332.858        1.795      871.856
01/07/2015  00:08:00     -111.948      -50.292       -0.076       31.897       26.932       19.476     1017.415      725.329      379.330        0.859        0.106      122.726       17.278        0.020      332.940        1.930      871.868
01/07/2015  00:09:00     -132.414      -40.544       -6.385       26.213       19.318       13.696      687.123      373.201      187.590        1.023        0.062      138.482       11.818        0.007      332.974        1.985      871.875
01/07/2015  00:10:00     -116.562      -53.818       -7.737       25.731       21.849       16.221      662.080      477.392      263.118        0.897        0.070      128.386       16.751        0.017      332.958        1.959      871.868
01/07/2015  00:11:00     -122.353      -40.368       -6.008       37.026       20.951       14.225     1370.928      438.941      202.362        0.932        0.101      128.840       15.225        0.014      332.917        1.892      871.853
01/07/2015  00:12:00      -89.644       -8.629       -6.253       43.946       39.264       22.970     1931.293     1541.683      527.617        0.607        0.200       90.058       17.515        0.038      332.953        1.951      871.834
01/07/2015  00:13:00      -87.574        6.051      -12.975       42.643       43.916       20.198     1818.464     1928.571      407.949        0.601        0.208       87.782       10.240        0.014      332.975        1.987      871.819
01/07/2015  00:14:00      -43.160        2.985       -6.175       37.106       21.690       16.391     1376.828      470.470      268.670        0.201        0.106       43.264       14.474        0.112      333.018        2.058      871.804
01/07/2015  00:15:00      -69.110       -2.643      -15.464       20.509       21.901       13.925      420.609      479.643      193.909        0.306        0.055       69.161        8.266        0.014      333.051        2.114      871.792
01/07/2015  00:16:00      -78.167      -13.655      -20.024       12.672       17.218        8.990      160.574      296.472       80.813        0.362        0.027       79.351        8.259        0.011      332.900        1.864      871.782
01/07/2015  00:17:00      -85.894      -24.416      -14.805       17.199       15.512       10.721      295.806      240.621      114.949        0.442        0.033       89.297        5.142        0.003      332.830        1.749      871.774
01/07/2015  00:18:00      -97.028      -43.995      -20.988       18.268       20.873       11.636      333.726      435.664      135.393        0.635        0.045      106.537        5.148        0.002      332.856        1.792      871.771
01/07/2015  00:19:00      -68.312      -43.694      -17.433       39.052       24.836       21.242     1525.046      616.839      451.213        0.474        0.130       81.091        6.547        0.007      332.776        1.658      871.770
01/07/2015  00:20:00      -19.148      -16.704        4.216       24.511       22.072       21.697      600.780      487.178      470.745        0.111        0.078       25.410       11.918        0.220      332.744        1.606      871.774
01/07/2015  00:21:00      -81.217       -9.909       -8.556       25.872       19.819       16.954      669.353      392.799      287.442        0.406        0.067       81.819       16.668        0.041      332.712        1.552      871.770
01/07/2015  00:22:00      -94.847      -24.719      -17.013       13.012       15.180        9.453      169.319      230.445       89.354        0.519        0.024       98.016        4.152        0.002      332.781        1.668      871.754
01/07/2015  00:23:00      -75.953      -42.729      -12.221       13.582       18.164        9.604      184.479      329.937       92.243        0.418        0.030       87.147        9.589        0.012      332.789        1.681      871.736
01/07/2015  00:24:00      -99.638      -34.512      -13.117       15.650       20.842       13.920      244.928      434.388      193.770        0.608        0.044      105.446       12.880        0.015      332.866        1.808      871.730
01/07/2015  00:25:00      -83.762      -42.685      -23.957       13.348       14.071       10.388      178.181      198.006      107.901        0.495        0.024       94.011        7.811        0.007      332.799        1.699      871.741
01/07/2015  00:26:00      -71.125      -32.205      -14.898       21.496       16.344       15.868      462.073      267.128      251.784        0.365        0.049       78.077       11.236        0.021      332.859        1.797      871.760
01/07/2015  00:27:00      -89.487       -8.035      -26.982       21.876       22.564       14.621      478.571      509.151      213.771        0.500        0.060       89.847       12.305        0.019      333.005        2.038      871.777
01/07/2015  00:28:00      -85.581      -11.433      -12.081       21.982       19.249       14.357      483.203      370.528      206.129        0.433        0.053       86.342       10.473        0.015      333.078        2.158      871.790
01/07/2015  00:29:00      -82.381       -6.508      -17.680       16.310       18.547       11.299      266.012      343.999      127.676        0.394        0.037       82.637       11.658        0.020      333.000        2.028      871.786
01/07/2015  00:30:00      -82.728      -11.393      -16.117       10.477       11.289       13.949      109.764      127.439      194.570        0.383        0.022       83.509        5.954        0.005      332.924        1.903      871.781
01/07/2015  00:31:00      -76.465      -15.499      -14.481       12.196       13.555       10.409      148.744      183.729      108.348        0.337        0.022       78.020        7.017        0.008      332.929        1.912      871.766
01/07/2015  00:32:00      -77.618      -19.070      -10.843       14.657       14.096        8.795      214.831      198.686       77.351        0.350        0.025       79.927        3.950        0.002      332.930        1.913      871.765
01/07/2015  00:33:00      -96.170      -11.640      -15.819       14.377       17.649       11.115      206.684      311.491      123.535        0.514        0.032       96.872        8.363        0.007      332.891        1.849      871.764
01/07/2015  00:34:00      -91.949      -16.456      -19.465       13.026       14.097       11.241      169.688      198.732      126.350        0.480        0.025       93.410        7.042        0.006      332.867        1.811      871.754
01/07/2015  00:35:00     -104.601      -34.389      -15.335       16.940       18.843       15.625      286.971      355.058      244.146        0.662        0.044      110.109       12.404        0.013      332.806        1.709      871.759
01/07/2015  00:36:00     -115.153      -25.521      -19.622       18.971       17.705       14.238      359.893      313.457      202.712        0.759        0.044      117.947        8.250        0.005      332.798        1.696      871.771
01/07/2015  00:37:00      -99.002      -36.591      -19.653       17.956       10.060       11.624      322.416      101.200      135.106        0.604        0.028      105.547        2.863        0.001      332.760        1.634      871.789
01/07/2015  00:38:00      -93.799      -26.922      -14.140       20.985       19.058       14.006      440.356      363.214      196.173        0.536        0.050       97.586        4.849        0.002      332.798        1.696      871.812
01/07/2015  00:39:00     -102.909      -31.456       -8.750       32.532       17.378       15.830     1058.354      302.008      250.594        0.663        0.081      107.609       15.748        0.021      332.792        1.686      871.832
01/07/2015  00:40:00     -134.563      -33.222      -18.874       25.351       19.112       12.782      642.648      365.274      163.371        1.037        0.059      138.603       13.920        0.010      332.854        1.790      871.855
01/07/2015  00:41:00     -143.382      -40.549      -22.105       13.713       10.048        9.786      188.036      100.966       95.769        1.154        0.019      149.005        3.545        0.001      332.927        1.908      871.873
01/07/2015  00:42:00     -113.735      -40.569      -18.447       11.313       15.352        8.916      127.990      235.687       79.501        0.768        0.022      120.753        4.553        0.001      332.948        1.942      871.873
01/07/2015  00:43:00     -122.246      -34.354      -15.462       14.252       10.259       10.728      203.110      105.240      115.095        0.839        0.021      126.982        8.189        0.004      332.947        1.941      871.875
01/07/2015  00:44:00     -115.194      -27.492      -12.091       14.943       11.425        9.367      223.308      130.528       87.738        0.731        0.022      118.429        8.725        0.005      332.965        1.971      871.877
01/07/2015  00:45:00     -109.578      -36.512      -10.019        9.398       10.816        9.112       88.318      116.984       83.032        0.686        0.014      115.501        5.696        0.002      332.912        1.883      871.876
01/07/2015  00:46:00     -112.664      -46.617       -6.989        9.064       10.850        7.779       82.154      117.727       60.511        0.759        0.013      121.928        5.493        0.002      332.926        1.907      871.881
01/07/2015  00:47:00     -107.377      -47.845       -7.008       14.364       20.405        9.966      206.322      416.358       99.328        0.729        0.036      117.554        8.435        0.005      332.911        1.882      871.877
01/07/2015  00:48:00     -104.055      -50.479      -12.934       18.778       16.626        9.387      352.612      276.429       88.108        0.713        0.036      115.653        3.724        0.001      332.781        1.668      871.879
01/07/2015  00:49:00     -110.524      -66.335      -11.883       27.178       21.883       15.629      738.636      478.883      244.255        0.911        0.073      128.902       11.553        0.008      332.739        1.598      871.866
01/07/2015  00:50:00     -121.500      -56.920      -14.402       13.697       15.688       11.921      187.620      246.102      142.105        0.939        0.029      134.172        6.276        0.002      332.750        1.617      871.864
01/07/2015  00:51:00     -122.326      -39.691      -16.408       20.860       16.582       12.830      435.129      274.969      164.604        0.884        0.044      128.604       10.583        0.007      332.745        1.608      871.850
01/07/2015  00:52:00     -136.751      -57.827      -21.170       17.365       18.075       13.783      301.535      326.691      189.983        1.166        0.041      148.475       10.174        0.005      332.767        1.643      871.845
01/07/2015  00:53:00     -132.947      -47.836      -12.083       19.921       22.440       14.254      396.855      503.553      203.170        1.061        0.055      141.291        9.928        0.005      332.772        1.653      871.837
01/07/2015  00:54:00     -135.668      -39.998      -20.844       10.855       14.623       10.677      117.829      213.831      113.996        1.044        0.022      141.441        6.939        0.002      332.757        1.628      871.827
01/07/2015  00:55:00     -116.555      -36.073      -14.784       15.397       11.885       13.035      237.074      141.258      169.903        0.783        0.027      122.009        7.439        0.004      332.726        1.576      871.824
01/07/2015  00:56:00     -104.355      -35.356       -5.380       17.433       13.626       12.923      303.893      185.675      167.014        0.641        0.033      110.182       11.136        0.010      332.664        1.472      871.824
01/07/2015  00:57:00      -95.809      -62.472       -7.588       19.805       19.640       13.536      392.219      385.744      183.233        0.705        0.048      114.377       14.407        0.016      332.655        1.459      871.829
01/07/2015  00:58:00      -95.266      -78.621       -3.448       25.602       24.192       18.745      655.445      585.259      351.380        0.843        0.080      123.519       16.943        0.019      332.763        1.638      871.833
01/07/2015  00:59:00     -135.586      -73.248      -15.617       16.787       11.356       10.280      281.801      128.964      105.688        1.225        0.026      154.107        3.994        0.001      332.771        1.650      871.845
01/07/2015  01:00:00     -131.938      -61.869      -17.509       12.674       11.388       11.017      160.622      129.684      121.373        1.098        0.021      145.723        4.804        0.001      332.710        1.549      871.857
01/07/2015  01:01:00     -122.016      -54.332      -13.890       21.025       16.181       10.834      442.059      261.815      117.379        0.943        0.041      133.566        8.561        0.004      332.679        1.500      871.869
01/07/2015  01:02:00      -98.655      -56.819       -7.767       22.805       20.307       13.873      520.066      412.387      192.461        0.707        0.056      113.847        7.740        0.005      332.737        1.595      871.887
01/07/2015  01:03:00     -106.332      -52.770      -12.702       18.193       17.554       15.200      330.989      308.127      231.039        0.756        0.044      118.707       13.235        0.012      332.745        1.608      871.905
01/07/2015  01:04:00      -96.083      -59.010      -16.820       18.139       11.316       12.195      329.035      128.060      148.717        0.680        0.030      112.756        5.761        0.003      332.746        1.610      871.928
01/07/2015  01:05:00     -116.278      -67.982      -12.436       13.035       13.979        9.760      169.909      195.424       95.253        0.938        0.023      134.693        3.214        0.001      332.796        1.693      871.964
01/07/2015  01:06:00     -114.754      -67.093       -7.803       12.711        9.937       11.529      161.579       98.754      132.925        0.906        0.020      132.928        6.636        0.002      332.748        1.614      871.990
01/07/2015  01:07:00     -114.853      -64.495       -5.116       19.404       14.351       14.113      376.523      205.945      199.188        0.908        0.039      131.722       13.664        0.011      332.700        1.534      872.006
01/07/2015  01:08:00      -88.099      -54.694       -1.780       29.439       19.925       14.399      866.683      396.999      207.337        0.611        0.074      103.696       15.218        0.022      332.672        1.487      872.017
01/07/2015  01:09:00     -104.403      -52.398       -0.893       14.862       14.282       10.280      220.889      203.986      105.674        0.709        0.027      116.814        6.309        0.003      332.688        1.514      872.028
01/07/2015  01:10:00      -79.346      -37.388        0.271       25.908       19.800       13.890      671.249      392.036      192.944        0.447        0.063       87.714       15.373        0.031      332.667        1.479      872.028
01/07/2015  01:11:00      -72.845      -33.030        1.400       28.438       18.172       13.709      808.713      330.232      187.925        0.386        0.066       79.983       16.398        0.042      332.696        1.527      872.021
01/07/2015  01:12:00     -107.187      -36.364       -8.674       22.325       18.636       10.307      498.419      347.304      106.238        0.692        0.048      113.187        5.765        0.003      332.709        1.549      872.008
01/07/2015  01:13:00      -58.301       -4.853       -2.334       36.857       37.647       21.105     1358.434     1417.277      445.401        0.332        0.161       58.503       20.140        0.119      332.677        1.495      871.999
01/07/2015  01:14:00      -85.853      -48.900       -4.413       33.110       32.315       18.776     1096.241     1044.245      352.537        0.614        0.125       98.803       12.018        0.015      332.701        1.536      872.005
01/07/2015  01:15:00      -66.145      -53.972        1.401       29.176       26.127       18.759      851.252      682.643      351.915        0.459        0.094       85.370       10.765        0.016      332.635        1.427      872.009
01/07/2015  01:16:00      -79.023      -32.405        1.029       37.721       42.457       24.186     1422.877     1802.616      584.940        0.555        0.191       85.409       16.822        0.039      332.575        1.326      872.010
01/07/2015  01:17:00      -42.714      -30.529        2.526       31.703       28.535       15.410     1005.099      814.229      237.459        0.241        0.103       52.502       12.208        0.054      332.549        1.283      872.018
01/07/2015  01:18:00      -84.513      -26.212       -2.434       39.644       27.462       16.457     1571.647      754.181      270.835        0.522        0.130       88.484       19.615        0.049      332.587        1.347      872.013
01/07/2015  01:19:00      -40.681      -30.899        2.667       70.480       33.685       25.990     4967.475     1134.656      675.480        0.470        0.339       51.085       32.810        0.412      332.664        1.474      871.994
01/07/2015  01:20:00      -45.656      -21.803       -4.888       33.233       21.042       17.644     1104.449      442.777      311.308        0.222        0.093       50.595       15.897        0.099      332.621        1.403      871.975
01/07/2015  01:21:00      -65.170      -31.391        6.563       43.886       25.886       18.857     1925.985      670.065      355.584        0.411        0.148       72.336       21.433        0.088      332.601        1.370      871.955
01/07/2015  01:22:00      -90.565      -47.880       -2.035       29.895       35.671       22.181      893.689     1272.425      491.997        0.658        0.133      102.443       20.064        0.038      332.576        1.328      871.949
01/07/2015  01:23:00      -92.273      -53.157       -2.658       33.657       28.585       16.667     1132.807      817.098      277.780        0.679        0.111      106.490       15.489        0.021      332.571        1.320      871.958
01/07/2015  01:24:00      -49.447      -36.612        4.611       42.872       35.753       16.329     1838.007     1278.252      266.630        0.359        0.169       61.526       18.388        0.089      332.561        1.303      871.972
01/07/2015  01:25:00     -101.157      -64.173       -8.234       27.550       27.518       19.619      759.011      757.222      384.923        0.816        0.095      119.796       12.270        0.010      332.559        1.299      871.988
01/07/2015  01:26:00      -95.435      -40.776       -6.936       17.481       16.845       12.189      305.577      283.740      148.579        0.578        0.037      103.781        9.057        0.008      332.556        1.294      871.999
01/07/2015  01:27:00      -56.541      -45.615       -3.608       21.881       16.346       14.309      478.772      267.199      204.738        0.312        0.048       72.647       11.687        0.026      332.599        1.365      872.016
01/07/2015  01:28:00      -83.325      -31.047      -16.531       15.554       11.137       13.094      241.932      124.032      171.447        0.436        0.027       88.921        7.356        0.007      332.619        1.399      872.030
01/07/2015  01:29:00     -104.791      -47.205      -20.489       15.341       19.243       12.262      235.360      370.303      150.360        0.719        0.038      114.932       10.831        0.009      332.647        1.447      872.044
01/07/2015  01:30:00      -98.547      -32.637      -11.352       21.778       21.571       13.010      474.299      465.288      169.260        0.601        0.055      103.811       11.995        0.013      332.600        1.368      872.066
01/07/2015  01:31:00      -78.359      -28.135      -12.709       10.117       14.170        8.591      102.347      200.802       73.812        0.374        0.019       83.257        4.150        0.002      332.610        1.384      872.087
01/07/2015  01:32:00      -72.553      -25.104      -12.553        9.797       11.290        7.925       95.979      127.458       62.808        0.317        0.014       76.773        5.598        0.005      332.658        1.464      872.114
01/07/2015  01:33:00      -64.756      -32.187      -12.208       13.939       12.308        8.086      194.284      151.486       65.385        0.289        0.021       72.314        4.118        0.003      332.722        1.571      872.137
01/07/2015  01:34:00      -51.869      -36.571       -3.182       19.172       21.136        8.879      367.557      446.744       78.839        0.247        0.045       63.465        9.730        0.024      332.676        1.492      872.147
01/07/2015  01:35:00      -88.523      -24.318       -9.160       11.901       12.961       11.118      141.627      167.980      123.621        0.447        0.022       91.802        5.349        0.003      332.663        1.472      872.144
01/07/2015  01:36:00      -90.309      -35.365      -17.068        6.965        7.577        6.318       48.511       57.410       39.911        0.492        0.007       96.987        3.467        0.001      332.676        1.495      872.147
01/07/2015  01:37:00     -100.128      -32.085      -15.351        7.469       10.063        7.635       55.780      101.265       58.288        0.575        0.011      105.143        7.294        0.005      332.674        1.492      872.135
01/07/2015  01:38:00     -100.508      -31.367      -14.055       10.957        9.067        7.245      120.058       82.204       52.485        0.577        0.013      105.288        3.334        0.001      332.652        1.454      872.122
01/07/2015  01:39:00      -96.638      -27.168      -10.973       11.264       12.946        8.468      126.872      167.602       71.701        0.528        0.018      100.384        6.730        0.004      332.640        1.435      872.115
01/07/2015  01:40:00      -75.738      -23.282       -7.709       10.015        6.576        6.309      100.304       43.244       39.809        0.326        0.009       79.236        2.903        0.001      332.662        1.471      872.124
01/07/2015  01:41:00      -64.883      -16.292       -5.548        9.241        6.794        5.837       85.388       46.158       34.071        0.234        0.008       66.898        2.305        0.001      332.727        1.580      872.137
01/07/2015  01:42:00      -59.211      -14.846       -9.379       17.075        7.308        7.295      291.567       53.404       53.222        0.211        0.020       61.043        1.752        0.001      332.752        1.620      872.139
01/07/2015  01:43:00      -89.085      -17.219      -10.691       10.584       10.669        8.577      112.013      113.829       73.560        0.432        0.015       90.734        3.918        0.002      332.722        1.570      872.128
01/07/2015  01:44:00      -80.838      -21.717       -1.701       17.663       15.473       11.644      311.972      239.401      135.594        0.385        0.034       83.704        7.935        0.009      332.704        1.541      872.118
01/07/2015  01:45:00      -31.014      -25.156        2.590       21.790       14.697       12.844      474.803      216.011      164.958        0.123        0.043       39.933        9.414        0.056      332.578        1.331      872.121
01/07/2015  01:46:00      -43.551      -26.532        0.190       13.309       11.303        8.353      177.134      127.747       69.777        0.149        0.019       50.996        5.350        0.011      332.603        1.374      872.126
01/07/2015  01:47:00      -36.556      -24.681       -0.964       22.732       16.817       10.612      516.722      282.821      112.625        0.143        0.046       44.108       10.654        0.058      332.623        1.406      872.137
01/07/2015  01:48:00      -73.824      -58.848        0.702       26.405       29.790       18.387      697.221      887.462      338.070        0.542        0.096       94.409       16.188        0.029      332.648        1.447      872.151
01/07/2015  01:49:00      -96.805      -46.913       -2.135       23.354       25.726       13.520      545.392      661.819      182.781        0.648        0.069      107.573       13.815        0.016      332.592        1.354      872.157
01/07/2015  01:50:00     -118.753      -65.865       -3.823       25.563       28.581       16.699      653.476      816.899      278.860        1.010        0.087      135.795        9.316        0.005      332.570        1.318      872.158
01/07/2015  01:51:00      -87.963      -53.499        5.669       41.186       22.111       22.254     1696.321      488.914      495.227        0.666        0.134      102.955       22.990        0.050      332.521        1.236      872.157
01/07/2015  01:52:00     -102.269      -35.081       -6.754       18.795       21.204       12.649      353.249      449.596      159.996        0.635        0.048      108.119        9.783        0.008      332.487        1.180      872.151
01/07/2015  01:53:00      -77.697      -27.423        2.871       28.880       26.304       14.556      834.075      691.885      211.882        0.427        0.087       82.395       12.563        0.023      332.484        1.176      872.136
01/07/2015  01:54:00     -117.237      -16.722       -8.150       27.235       18.134       17.553      741.754      328.829      308.116        0.773        0.069      118.423       18.871        0.025      332.443        1.109      872.114
01/07/2015  01:55:00     -115.792      -26.278       -3.722       26.219       17.230       14.728      687.418      296.881      216.912        0.766        0.060      118.737       12.432        0.011      332.368        0.986      872.110
01/07/2015  01:56:00      -89.933      -31.502       -3.123       40.369       20.432       18.111     1629.639      417.451      328.017        0.573        0.119       95.291       21.482        0.051      332.377        1.000      872.115
01/07/2015  01:57:00      -81.171      -18.600        0.589       16.358       25.333       14.358      267.587      641.783      206.146        0.403        0.056       83.275       11.744        0.020      332.308        0.887      872.122
01/07/2015  01:58:00      -73.162      -12.622        0.954       25.797       16.319       18.237      665.504      266.313      332.589        0.339        0.063       74.243       16.801        0.051      332.334        0.929      872.136
01/07/2015  01:59:00      -79.941       -9.100      -11.406       21.400       13.263        9.594      457.962      175.916       92.050        0.366        0.036       80.457       11.834        0.022      332.387        1.015      872.144
01/07/2015  02:00:00      -68.168      -25.780       -7.808        9.186        9.849        7.396       84.377       96.999       54.695        0.280        0.012       72.880        6.467        0.008      332.354        0.960      872.137
01/07/2015  02:01:00      -72.726      -28.897      -16.330       15.173       11.588        9.587      230.218      134.289       91.903        0.342        0.023       78.257        6.667        0.007      332.393        1.027      872.123
01/07/2015  02:02:00      -87.518      -38.225      -14.308       11.490       17.757       10.480      132.015      315.303      109.833        0.494        0.028       95.501        7.228        0.006      332.321        0.907      872.105
01/07/2015  02:03:00      -98.626      -34.561      -12.910       13.915       14.582       12.737      193.622      212.647      162.238        0.583        0.028      104.506        7.056        0.005      332.330        0.923      872.095
01/07/2015  02:04:00      -73.701      -44.111       -5.905       25.945       25.454       20.915      673.120      647.886      437.437        0.459        0.088       85.892       14.638        0.029      332.299        0.872      872.095
01/07/2015  02:05:00      -72.835      -31.185       -6.516       17.962       26.919       14.611      322.630      724.607      213.493        0.379        0.063       79.230       10.846        0.019      332.278        0.837      872.093
01/07/2015  02:06:00      -96.642      -15.650       -9.242       27.852       23.226       11.759      775.756      539.428      138.282        0.556        0.073       97.901        9.058        0.009      332.247        0.787      872.084
01/07/2015  02:07:00     -115.559      -24.311      -10.252       16.238       15.730       12.146      263.687      247.437      147.524        0.735        0.033      118.088        7.624        0.004      332.271        0.825      872.062
01/07/2015  02:08:00     -110.380      -25.824       -9.632       19.292       18.036       12.893      372.169      325.288      166.238        0.690        0.043      113.361        7.836        0.005      332.205        0.717      872.053
01/07/2015  02:09:00      -70.105      -23.721      -10.924       20.936       18.560       12.801      438.308      344.468      163.859        0.327        0.047       74.009       11.262        0.023      332.141        0.611      872.061
01/07/2015  02:10:00      -48.609       -2.516       -9.654       13.577       11.543        8.672      184.325      133.234       75.208        0.143        0.020       48.674        3.894        0.006      332.329        0.922      872.094
01/07/2015  02:11:00      -41.882        3.714       -6.083        8.761        8.194        4.920       76.753       67.142       24.208        0.099        0.008       42.046        4.888        0.014      332.923        1.901      872.111
01/07/2015  02:12:00      -31.421      -19.102       -7.179       18.136       10.003        8.245      328.929      100.059       67.980        0.095        0.025       36.772        2.307        0.004      332.504        1.208      872.117
01/07/2015  02:13:00      -56.992      -23.447      -15.945        8.910        9.134        7.666       79.385       83.421       58.763        0.214        0.011       61.627        3.806        0.004      332.315        0.897      872.118
01/07/2015  02:14:00      -74.555       -5.623      -12.876       14.110        9.951        7.652      199.091       99.027       58.549        0.306        0.018       74.766        3.743        0.003      332.295        0.866      872.113
01/07/2015  02:15:00      -61.413       -2.197      -10.180       13.867        8.733        8.572      192.284       76.270       73.475        0.211        0.017       61.452        5.837        0.009      332.276        0.832      872.105
01/07/2015  02:16:00      -56.630        3.688      -11.959       13.770        4.970        6.821      189.621       24.698       46.529        0.181        0.013       56.750        6.221        0.012      332.346        0.948      872.108
01/07/2015  02:17:00      -20.446        5.516       -5.016       15.346       12.749        6.986      235.508      162.531       48.805        0.046        0.022       21.177        6.624        0.098      332.757        1.627      872.111
01/07/2015  02:18:00       -4.683       -4.304       -0.302       18.311       17.356       12.019      335.310      301.234      144.450        0.041        0.039        6.361        2.146        0.114      333.046        2.105      872.108
01/07/2015  02:19:00        8.248       23.461       -0.753       11.402       18.012       10.689      130.002      324.417      114.254        0.059        0.028       24.869        6.616        0.071      333.014        2.054      872.111
01/07/2015  02:20:00       -3.177       23.669       -6.869       13.244       15.775        9.631      175.406      248.835       92.755        0.057        0.026       23.881        9.393        0.155      333.030        2.080      872.106
01/07/2015  02:21:00      -19.730        8.020       -6.196       18.414       21.507        9.147      339.086      462.551       83.674        0.069        0.044       21.298        8.427        0.157      332.771        1.651      872.095
01/07/2015  02:22:00      -49.574        3.656       -5.469       13.218       14.911        9.184      174.712      222.347       84.339        0.149        0.024       49.708        6.418        0.017      332.551        1.287      872.089
01/07/2015  02:23:00      -21.684      -11.172        1.775       12.614       11.070        8.397      159.109      122.548       70.510        0.048        0.018       24.393        6.234        0.065      332.424        1.076      872.096
01/07/2015  02:24:00      -23.967        3.038       -4.333       20.868       31.233       13.430      435.476      975.482      180.358        0.110        0.080       24.158       14.533        0.362      332.617        1.396      872.096
01/07/2015  02:25:00      -20.208       -1.859       -1.512       13.520        9.044        8.897      182.785       81.794       79.155        0.038        0.017       20.293        6.375        0.099      332.539        1.267      872.097
01/07/2015  02:26:00      -16.877       -5.105      -10.459       12.153       14.970        7.739      147.687      224.093       59.896        0.043        0.022       17.633        5.661        0.103      332.609        1.382      872.103
01/07/2015  02:27:00      -22.822      -20.698       -4.466       12.653       13.241       10.186      160.103      175.313      103.757        0.070        0.022       30.810        5.528        0.032      332.422        1.076      872.099
01/07/2015  02:28:00      -30.262      -27.322       -5.037       16.164       17.368       12.422      261.261      301.648      154.307        0.120        0.036       40.771        7.808        0.037      332.185        0.683      872.103
01/07/2015  02:29:00      -52.380      -20.699      -12.247       20.204       17.240       13.214      408.207      297.221      174.614        0.210        0.044       56.321        6.950        0.015      332.118        0.574      872.099
01/07/2015  02:30:00      -72.584      -28.940       -8.872       15.669       13.905       10.365      245.533      193.343      107.444        0.337        0.027       78.141        5.071        0.004      332.050        0.461      872.101
01/07/2015  02:31:00      -95.324       -9.355      -18.575       27.702       19.242       10.746      767.426      370.249      115.476        0.539        0.063       95.782        7.594        0.006      332.047        0.456      872.095
01/07/2015  02:32:00     -107.724       -6.377      -16.403       17.221       22.851       12.430      296.578      522.160      154.499        0.644        0.049      107.913        9.442        0.008      332.049        0.458      872.079
01/07/2015  02:33:00      -83.989       -8.378      -15.986       15.921       14.571       12.096      253.472      212.316      146.318        0.400        0.031       84.406       10.288        0.015      332.050        0.461      872.057
01/07/2015  02:34:00      -66.980        1.377      -11.983       18.709       14.881       11.465      350.030      221.445      131.456        0.267        0.035       66.994        7.866        0.014      332.136        0.602      872.035
01/07/2015  02:35:00      -51.129      -12.404       -8.889       12.015       13.948        6.657      144.367      194.533       44.311        0.162        0.019       52.612        4.603        0.008      332.198        0.706      872.013
01/07/2015  02:36:00      -68.231      -19.629      -12.530       12.632       10.568        9.784      159.564      111.680       95.723        0.278        0.018       70.998        7.444        0.011      332.121        0.580      871.998
01/07/2015  02:37:00      -64.509      -25.833      -14.516       18.067       14.981       14.465      326.418      224.427      209.234        0.290        0.038       69.489       11.153        0.026      332.075        0.502      871.992
01/07/2015  02:38:00      -36.471      -25.770      -11.722       19.320       13.511       14.301      373.244      182.536      204.528        0.145        0.038       44.656       12.551        0.079      332.059        0.478      872.002
01/07/2015  02:39:00      -62.472      -18.579      -12.181       15.921       16.789       10.093      253.464      281.858      101.863        0.252        0.032       65.177        7.143        0.012      332.107        0.554      872.018
01/07/2015  02:40:00      -71.074       -9.438      -11.950       12.188        9.781        8.796      148.554       95.677       77.372        0.280        0.016       71.698        7.480        0.011      332.119        0.574      872.039
01/07/2015  02:41:00      -75.155       -8.311      -15.852       10.368        9.345        6.871      107.490       87.332       47.210        0.311        0.012       75.613        2.802        0.001      332.147        0.620      872.043
01/07/2015  02:42:00      -78.192      -20.966      -15.249        9.426       11.367        7.118       88.845      129.215       50.660        0.353        0.013       80.954        4.628        0.003      332.136        0.602      872.024
01/07/2015  02:43:00      -82.059      -10.737      -14.253       10.573       13.203        9.278      111.792      174.322       86.083        0.371        0.019       82.759        5.310        0.004      332.098        0.540      872.016
01/07/2015  02:44:00      -58.605      -32.552      -15.351       15.598       12.503        9.139      243.298      156.333       83.512        0.261        0.024       67.039        7.975        0.014      332.099        0.542      872.016
01/07/2015  02:45:00      -58.963      -29.418       -9.317       27.636       10.900        8.633      763.763      118.802       74.528        0.269        0.048       65.894        9.674        0.022      332.239        0.773      872.028
01/07/2015  02:46:00      -87.596      -34.110      -12.487       14.939       12.145        8.669      223.163      147.491       75.158        0.472        0.022       94.003        7.339        0.006      332.322        0.908      872.049
01/07/2015  02:47:00      -74.957      -11.392      -16.946       11.731       13.020        7.436      137.618      169.510       55.298        0.320        0.018       75.818        2.333        0.001      332.285        0.847      872.057
01/07/2015  02:48:00      -78.948      -14.075       -8.804       11.482       12.724        6.548      131.837      161.901       42.873        0.342        0.017       80.193        4.993        0.004      332.339        0.936      872.052
01/07/2015  02:49:00      -81.333       -6.210      -12.655        7.545        8.836        9.894       56.931       78.069       97.898        0.352        0.012       81.570        5.358        0.004      332.355        0.962      872.028
01/07/2015  02:50:00      -71.054      -13.553       -9.992       11.545        9.498        9.092      133.277       90.215       82.656        0.282        0.015       72.335        5.981        0.007      332.340        0.939      872.025
01/07/2015  02:51:00      -76.143      -24.210       -5.012       10.672       10.607        8.094      113.897      112.500       65.506        0.335        0.015       79.899        4.868        0.004      332.293        0.860      872.021
01/07/2015  02:52:00      -87.755      -26.333       -7.122        9.371       11.894        9.104       87.824      141.467       82.888        0.438        0.016       91.620        6.712        0.005      332.347        0.950      872.035
01/07/2015  02:53:00      -65.513      -24.930       -5.607       11.389       11.472        8.158      129.712      131.607       66.547        0.264        0.016       70.096        3.894        0.003      332.304        0.878      872.050
01/07/2015  02:54:00      -53.624       -9.998       -8.240        6.836        6.715        5.474       46.726       45.095       29.966        0.158        0.006       54.548        2.021        0.001      332.297        0.867      872.070
01/07/2015  02:55:00      -66.126       -3.318      -10.048        8.394        7.103        6.803       70.465       50.446       46.276        0.233        0.008       66.209        3.185        0.002      332.306        0.881      872.083
01/07/2015  02:56:00      -88.068       -6.462      -11.864       10.325        6.849        6.056      106.603       46.906       36.671        0.406        0.010       88.304        1.465        0.000      332.286        0.849      872.078
01/07/2015  02:57:00     -104.645      -13.414      -15.461       10.885        7.776        8.067      118.479       60.473       65.071        0.581        0.012      105.501        5.498        0.003      332.242        0.779      872.065
01/07/2015  02:58:00     -122.220       -3.223      -18.112       12.480        8.226        9.962      155.739       67.670       99.245        0.780        0.016      122.262        6.540        0.003      332.268        0.822      872.041
01/07/2015  02:59:00     -113.156       -2.910      -14.675       16.396       11.019       10.655      268.835      121.422      113.537        0.677        0.025      113.194        8.695        0.006      332.271        0.826      872.015
01/07/2015  03:00:00      -65.540      -17.801      -10.534       21.139       16.736       15.164      446.846      280.097      229.945        0.284        0.048       67.914       14.661        0.047      332.141        0.611      872.017
01/07/2015  03:01:00      -50.798      -28.534       -5.281       14.572       22.682       15.472      212.351      514.493      239.377        0.219        0.048       58.263       13.712        0.055      332.114        0.565      872.017
01/07/2015  03:02:00      -48.030      -18.808       -0.416       27.503       19.920       16.151      756.392      396.788      260.860        0.204        0.071       51.582       13.627        0.070      332.139        0.608      872.026
01/07/2015  03:03:00      -74.414      -22.231       -8.660       17.895       19.055       15.663      320.213      363.110      245.334        0.352        0.046       77.663       14.245        0.034      332.090        0.527      872.034
01/07/2015  03:04:00      -87.447      -31.538      -12.866       23.687       23.085       13.192      561.075      532.938      174.020        0.504        0.063       92.960       11.435        0.015      332.083        0.517      872.026
01/07/2015  03:05:00      -93.362      -12.574      -14.776       18.590       19.294       14.111      345.596      372.271      199.133        0.500        0.046       94.205       10.091        0.011      332.115        0.568      872.022
01/07/2015  03:06:00      -76.468        1.361      -11.753       24.073       24.660       16.286      579.532      608.117      265.242        0.372        0.073       76.480       14.622        0.037      332.107        0.556      872.012
01/07/2015  03:07:00      -84.688        9.125      -16.430       21.971       17.376       11.848      482.744      301.917      140.368        0.422        0.046       85.178        8.786        0.011      332.003        0.382      871.992
01/07/2015  03:08:00      -68.385       -2.954      -11.377       16.382       13.450       11.605      268.366      180.905      134.675        0.270        0.029       68.449        8.727        0.016      332.054        0.468      871.977
01/07/2015  03:09:00      -70.805       -8.429      -14.739       11.987       15.695        9.233      143.684      246.348       85.242        0.289        0.024       71.305        8.310        0.014      332.182        0.678      871.974
01/07/2015  03:10:00      -69.229      -26.086      -14.967       11.590       11.592       11.575      134.332      134.378      133.973        0.305        0.020       73.980        6.452        0.008      332.097        0.539      871.973
01/07/2015  03:11:00      -80.164      -30.300      -11.539       18.271       17.115       15.692      333.830      292.922      246.252        0.418        0.044       85.699        7.947        0.009      332.036        0.436      871.967
01/07/2015  03:12:00      -73.857      -35.318      -20.329       26.251       21.825       17.275      689.099      476.331      298.442        0.429        0.073       81.867       13.846        0.029      332.052        0.465      871.961
01/07/2015  03:13:00      -77.652      -37.368      -18.158       28.924       28.024       17.290      836.610      785.327      298.958        0.484        0.096       86.176       14.668        0.029      331.920        0.247      871.967
01/07/2015  03:14:00      -73.051      -47.977      -17.134       20.227       26.482       21.365      409.151      701.321      456.479        0.475        0.078       87.397       15.851        0.033      331.972        0.332      871.975
01/07/2015  03:15:00      -82.152      -30.512      -16.681       20.577       29.520       18.224      423.431      871.452      332.114        0.479        0.081       87.635        9.673        0.012      331.983        0.350      871.976
01/07/2015  03:16:00     -107.555      -33.431      -28.087       18.405       20.130       17.260      338.740      405.205      297.898        0.726        0.052      112.631       15.161        0.018      332.003        0.383      871.978
01/07/2015  03:17:00      -79.981      -24.670      -16.844       17.998       24.153       13.136      323.910      583.381      172.553        0.418        0.054       83.700        8.733        0.011      332.039        0.442      871.976
01/07/2015  03:18:00      -64.975      -44.873       -8.034       25.985       21.518       16.702      675.213      463.011      278.963        0.386        0.071       78.964       15.405        0.038      332.039        0.443      871.968
01/07/2015  03:19:00      -74.806      -21.033      -12.391       24.945       13.832       14.904      622.253      191.334      222.123        0.361        0.052       77.706       15.241        0.038      332.022        0.415      871.964
01/07/2015  03:20:00      -95.109      -30.285      -13.163       15.709       11.705       12.091      246.763      136.999      146.197        0.533        0.026       99.814        9.067        0.008      332.143        0.615      871.971
01/07/2015  03:21:00     -109.283      -31.782      -16.994       15.682       13.892       10.200      245.914      192.995      104.032        0.689        0.027      113.811        4.794        0.002      332.170        0.660      871.966
01/07/2015  03:22:00     -119.461      -36.098      -13.302       11.334       14.142       11.869      128.467      199.998      140.870        0.811        0.023      124.796        6.419        0.003      332.192        0.696      871.971
01/07/2015  03:23:00     -112.818      -31.073      -11.390       14.976       14.697       10.527      224.275      216.014      110.811        0.719        0.028      117.019        5.787        0.002      332.174        0.665      871.976
01/07/2015  03:24:00     -115.430      -36.321      -13.440       10.016       10.744        8.619      100.319      115.441       74.290        0.756        0.015      121.009        4.357        0.001      332.156        0.637      871.959
01/07/2015  03:25:00     -108.130      -30.197      -13.860       10.094        9.860        8.836      101.886       97.224       78.078        0.654        0.014      112.268        4.625        0.002      332.159        0.641      871.935
01/07/2015  03:26:00     -105.134      -28.751      -12.903       13.828       16.750       14.210      191.222      280.558      201.922        0.636        0.034      108.994       11.673        0.011      332.119        0.575      871.896
01/07/2015  03:27:00     -115.351      -39.505      -16.079       12.269        8.444        7.726      150.520       71.301       59.693        0.770        0.014      121.928        3.279        0.001      332.069        0.493      871.877
01/07/2015  03:28:00      -95.588      -50.198      -15.493       13.578       17.837        8.864      184.374      318.164       78.575        0.624        0.029      107.967        7.844        0.005      331.928        0.259      871.870
01/07/2015  03:29:00      -97.831      -63.870      -15.386       18.626       18.395       11.669      346.940      338.366      136.155        0.735        0.041      116.835       10.973        0.009      331.884        0.187      871.852
01/07/2015  03:30:00     -101.861      -61.160       -6.402       31.425       25.517       19.450      987.524      651.117      378.317        0.809        0.101      118.812       15.633        0.017      331.928        0.260      871.831
01/07/2015  03:31:00      -94.264      -65.177       -1.911       29.242       27.681       22.349      855.123      766.259      499.493        0.763        0.106      114.603       15.155        0.017      331.935        0.271      871.805
01/07/2015  03:32:00     -102.007      -18.363        0.372       42.190       33.879       20.539     1779.979     1147.783      421.852        0.705        0.167      103.647       15.949        0.024      331.982        0.348      871.783
01/07/2015  03:33:00      -98.641      -24.433       -4.789       43.229       34.757       20.417     1868.717     1208.058      416.837        0.692        0.175      101.622       19.171        0.036      331.940        0.279      871.776
01/07/2015  03:34:00      -60.260      -23.571       -3.245       32.601       31.400       19.152     1062.797      985.981      366.792        0.331        0.121       64.705       12.468        0.037      331.905        0.222      871.773
01/07/2015  03:35:00      -76.283      -42.870      -12.828       54.139       27.229       21.538     2931.016      741.441      463.874        0.598        0.207       87.504       10.144        0.013      331.972        0.332      871.769
01/07/2015  03:36:00      -99.597      -77.517       -7.586       24.692       18.734       21.300      609.674      350.978      453.711        0.870        0.071      126.208        9.595        0.006      331.887        0.193      871.775
01/07/2015  03:37:00     -105.544      -46.697      -18.637       39.492       16.996       12.194     1559.590      288.881      148.683        0.783        0.100      115.413        8.650        0.006      331.987        0.356      871.783
01/07/2015  03:38:00      -78.938      -27.220       -9.459       31.790       15.728       12.943     1010.591      247.362      167.511        0.424        0.071       83.500       13.909        0.028      331.988        0.360      871.784
01/07/2015  03:39:00      -81.714      -53.222      -16.221       14.147       12.121        9.835      200.139      146.930       96.726        0.511        0.022       97.518        6.960        0.005      331.960        0.312      871.794
01/07/2015  03:40:00      -87.452      -43.440       -7.273       24.371       25.026       19.052      593.923      626.276      362.961        0.559        0.079       97.647       14.709        0.023      332.031        0.431      871.789
01/07/2015  03:41:00      -88.885      -33.250       -8.065       19.760       13.756       12.483      390.468      189.239      155.836        0.490        0.037       94.900       10.505        0.012      331.956        0.304      871.775
01/07/2015  03:42:00      -97.742      -41.261      -10.230       11.817       14.491       11.102      139.633      209.977      123.257        0.592        0.024      106.094        6.684        0.004      332.014        0.400      871.750
01/07/2015  03:43:00     -103.377      -54.740       -3.953       21.820       18.942       12.214      476.118      358.784      149.172        0.734        0.049      116.975       10.683        0.008      332.096        0.537      871.741
01/07/2015  03:44:00     -107.441      -60.250        0.358       26.333       19.845       18.729      693.435      393.826      350.781        0.831        0.072      123.181       14.583        0.014      332.107        0.557      871.735
01/07/2015  03:45:00     -105.874      -55.392       -6.013       28.015       19.712       17.081      784.867      388.557      291.748        0.789        0.073      119.489       15.882        0.018      331.988        0.360      871.735
01/07/2015  03:46:00      -75.751      -47.971       -3.512       38.389       27.589       20.371     1473.736      761.154      414.992        0.535        0.132       89.663       20.699        0.053      331.993        0.366      871.731
01/07/2015  03:47:00     -117.455      -72.138      -17.527       24.433       20.941       15.948      596.980      438.540      254.328        1.030        0.064      137.839        7.401        0.003      331.931        0.264      871.726
01/07/2015  03:48:00     -104.945      -74.282       -4.317       29.324       19.473       21.038      859.921      379.212      442.596        0.912        0.084      128.574       17.303        0.018      331.889        0.195      871.714
01/07/2015  03:49:00     -113.761      -75.611        1.504       31.107       29.188       18.460      967.628      851.967      340.781        1.041        0.108      136.596       14.624        0.011      331.946        0.288      871.699
01/07/2015  03:50:00      -93.659      -65.126        4.883       47.749       38.714       24.743     2279.992     1498.800      612.228        0.871        0.220      114.076       23.520        0.043      332.039        0.442      871.684
01/07/2015  03:51:00      -85.002      -48.272        6.294       50.343       31.982       27.433     2534.459     1022.870      752.579        0.695        0.215       97.753       28.073        0.082      332.086        0.521      871.670
01/07/2015  03:52:00     -115.450      -71.093        0.952       29.786       26.403       19.146      887.210      697.106      366.556        1.017        0.098      135.584       18.386        0.018      332.191        0.695      871.652
01/07/2015  03:53:00      -81.826      -45.063        7.017       41.164       29.135       23.241     1694.490      848.862      540.130        0.593        0.154       93.414       23.145        0.061      332.146        0.617      871.649
01/07/2015  03:54:00      -77.944      -50.855        6.904       39.536       22.097       22.074     1563.061      488.276      487.253        0.562        0.127       93.067       23.287        0.063      332.157        0.637      871.647
01/07/2015  03:55:00      -89.511      -63.107        2.295       39.193       27.590       22.575     1536.125      761.187      509.634        0.740        0.140      109.520       16.840        0.024      332.149        0.625      871.652
01/07/2015  03:56:00      -97.042      -59.471        4.210       32.596       23.137       18.681     1062.507      535.338      348.981        0.746        0.097      113.815       16.133        0.020      332.178        0.674      871.663
01/07/2015  03:57:00     -102.187      -46.859       -0.244       23.820       20.595       14.393      567.407      424.174      207.148        0.692        0.060      112.419       12.824        0.013      332.120        0.576      871.670
01/07/2015  03:58:00      -89.389      -42.081        3.217       34.172       20.362       18.389     1167.712      414.627      338.139        0.585        0.096       98.799       19.165        0.038      332.114        0.568      871.673
01/07/2015  03:59:00      -91.846      -38.380       -2.373       26.207       15.301       14.465      686.814      234.118      209.230        0.552        0.057       99.542       15.996        0.026      332.117        0.570      871.676
01/07/2015  04:00:00      -81.664      -37.963        2.816       24.357       20.496       12.370      593.257      420.095      153.024        0.464        0.058       90.056        7.996        0.008      332.098        0.540      871.673
01/07/2015  04:01:00      -84.654      -30.215       -1.504       20.428       19.899        8.069      417.317      395.950       65.103        0.448        0.044       89.884        6.837        0.006      332.103        0.547      871.665
01/07/2015  04:02:00      -99.142      -28.721       -1.446       18.092       16.188        9.888      327.312      262.046       97.766        0.567        0.034      103.218        7.459        0.005      332.115        0.567      871.657
01/07/2015  04:03:00      -84.179      -28.778        0.547       21.477       17.400       14.210      461.282      302.746      201.927        0.444        0.048       88.963       13.092        0.022      332.117        0.572      871.638
01/07/2015  04:04:00      -84.125      -23.340      -12.304       22.551       21.679       10.991      508.553      469.975      120.796        0.444        0.055       87.303        9.997        0.013      332.091        0.529      871.627
01/07/2015  04:05:00      -85.160      -24.173       -8.184       30.545       18.809       15.117      933.012      353.784      228.511        0.471        0.076       88.525       14.260        0.026      332.134        0.599      871.627
01/07/2015  04:06:00      -48.631      -15.675       -7.406       30.394       22.058        9.275      923.807      486.555       86.026        0.208        0.075       51.095       10.158        0.040      332.058        0.475      871.631
01/07/2015  04:07:00      -59.964      -13.881      -14.177       20.404       19.437       14.309      416.309      377.806      204.740        0.249        0.050       61.549        8.350        0.018      332.027        0.423      871.631
01/07/2015  04:08:00      -62.931      -23.317      -10.686       17.419       18.106       13.373      303.408      327.813      178.824        0.271        0.041       67.112        3.602        0.003      332.036        0.439      871.619
01/07/2015  04:09:00      -56.452      -33.522      -15.412       17.765       14.062       12.317      315.583      197.727      151.709        0.261        0.033       65.655        6.521        0.010      332.027        0.424      871.602
01/07/2015  04:10:00      -67.403      -31.967      -14.314       12.084       19.920       12.172      146.024      396.816      148.158        0.323        0.035       74.599       11.140        0.022      331.960        0.314      871.575
01/07/2015  04:11:00      -76.795      -16.328      -15.442       16.271       12.938        8.566      264.747      167.381       73.380        0.345        0.025       78.512        6.795        0.007      331.897        0.208      871.541
01/07/2015  04:12:00      -66.801      -34.914       -9.159       12.102       11.719        9.350      146.458      137.330       87.429        0.307        0.019       75.375        5.767        0.006      331.903        0.218      871.523
01/07/2015  04:13:00      -39.940      -28.222       -9.831       26.184       16.851       18.166      685.628      283.963      330.010        0.189        0.065       48.905       13.648        0.078      331.846        0.125      871.516
01/07/2015  04:14:00      -49.771      -15.815       -7.063       17.878       14.873       12.280      319.635      221.213      150.797        0.173        0.035       52.224       12.129        0.054      331.800        0.047      871.509
01/07/2015  04:15:00      -50.255      -17.228       -6.733       17.616       20.550       15.543      310.340      422.296      241.586        0.192        0.049       53.126       15.887        0.089      331.777        0.009      871.498
01/07/2015  04:16:00      -55.133      -22.414      -10.747       16.943       13.909        9.533      287.076      193.456       90.881        0.211        0.029       59.515        8.223        0.019      331.788        0.027      871.495
01/07/2015  04:17:00      -60.008      -22.931       -9.525       19.833       12.175       10.895      393.359      148.220      118.692        0.244        0.033       64.240        9.105        0.020      331.766       -0.008      871.499
01/07/2015  04:18:00      -86.497      -16.426      -12.011       15.574       14.735       14.346      242.556      217.117      205.805        0.428        0.033       88.043       12.348        0.020      331.765       -0.008      871.499
01/07/2015  04:19:00      -77.607      -22.977      -15.330       22.471       16.859       10.988      504.959      284.231      120.740        0.385        0.045       80.937        7.481        0.009      331.734       -0.060      871.498
01/07/2015  04:20:00      -68.786      -24.500       -7.646       17.598       17.758       14.145      309.680      315.345      200.081        0.311        0.041       73.018        7.317        0.010      331.774        0.005      871.484
01/07/2015  04:21:00      -72.893      -12.669       -9.295       16.067       14.602       11.231      258.139      213.216      126.127        0.308        0.030       73.986        8.366        0.013      331.818        0.077      871.470
01/07/2015  04:22:00      -68.750      -13.575      -14.532       15.276       15.938       13.468      233.342      254.013      181.387        0.290        0.033       70.077        5.535        0.006      331.818        0.077      871.453
01/07/2015  04:23:00      -70.553      -26.663      -12.451       22.516       17.738       17.424      506.992      314.640      303.608        0.348        0.056       75.424       15.423        0.042      331.814        0.072      871.435
01/07/2015  04:24:00      -75.788       -9.557      -13.276       20.600       18.094       13.315      424.359      327.397      177.287        0.347        0.046       76.388       11.578        0.023      331.817        0.077      871.427
01/07/2015  04:25:00      -82.256        3.586      -14.014       18.978       13.343       13.854      360.151      178.047      191.929        0.385        0.037       82.334       10.654        0.017      331.836        0.108      871.409
01/07/2015  04:26:00      -58.651        2.538       -4.811       20.484       15.311       13.730      419.596      234.433      188.510        0.216        0.042       58.706        8.287        0.020      331.892        0.201      871.402
01/07/2015  04:27:00      -32.506       -3.640       -0.132        9.531       11.915       11.878       90.831      141.970      141.089        0.072        0.019       32.709        9.027        0.076      331.890        0.197      871.405
01/07/2015  04:28:00       -1.075       -5.614       -6.249       16.594        7.211        6.753      275.363       51.992       45.598        0.022        0.019        5.716        4.773        0.697      332.123        0.581      871.406
01/07/2015  04:29:00       21.710        7.628       -0.588        8.320        8.403       10.715       69.224       70.615      114.805        0.039        0.013       23.011        6.828        0.088      332.241        0.775      871.395
01/07/2015  04:30:00       21.741        7.195        8.764        7.909        9.431        6.678       62.558       88.935       44.589        0.040        0.010       22.900        5.285        0.053      332.202        0.711      871.371
01/07/2015  04:31:00       27.620       33.588        2.261        5.825        8.614        8.415       33.926       74.198       70.804        0.104        0.009       43.486        5.635        0.017      332.314        0.895      871.345
01/07/2015  04:32:00       30.460       33.820        0.938       13.881        9.269        7.224      192.677       85.908       52.184        0.120        0.017       45.515        4.636        0.010      332.356        0.963      871.321
01/07/2015  04:33:00       34.561       32.648       -0.383        9.428       12.725        5.172       88.881      161.913       26.754        0.127        0.014       47.543        2.766        0.003      332.411        1.057      871.305
01/07/2015  04:34:00       24.252        8.030        6.724        9.992        6.732        6.848       99.847       45.316       46.894        0.044        0.010       25.547        5.764        0.051      332.280        0.839      871.308
01/07/2015  04:35:00       21.588        0.709        4.283       13.394        7.987        6.410      179.394       63.793       41.084        0.038        0.014       21.600        5.475        0.064      332.289        0.853      871.308
01/07/2015  04:36:00       24.279       -5.171        1.465       12.801        7.742        5.013      163.854       59.933       25.130        0.043        0.012       24.824        5.088        0.042      332.352        0.956      871.299
01/07/2015  04:37:00       21.322        8.505        7.218        9.255        7.895        6.351       85.658       62.336       40.333        0.038        0.009       22.956        3.471        0.023      332.314        0.896      871.274
01/07/2015  04:38:00       37.634       16.415        7.121        7.566        6.502        5.091       57.241       42.277       25.920        0.093        0.006       41.058        2.293        0.003      332.309        0.889      871.241
01/07/2015  04:39:00       49.279       23.859        7.440       14.293        7.972        9.219      204.293       63.545       84.989        0.170        0.018       54.751        6.557        0.014      332.313        0.892      871.211
01/07/2015  04:40:00       56.368       22.823        6.350        8.592        6.830        7.335       73.830       46.649       53.803        0.196        0.009       60.813        3.295        0.003      332.333        0.925      871.175
01/07/2015  04:41:00       59.963       35.364        5.064        7.876        7.691        6.962       62.026       59.157       48.465        0.252        0.008       69.614        3.044        0.002      332.284        0.846      871.143
01/07/2015  04:42:00       64.994       33.195        4.054       10.901       13.667       10.190      118.841      186.774      103.841        0.288        0.020       72.980        5.934        0.007      332.336        0.931      871.110
01/07/2015  04:43:00       89.540       42.827        7.942       14.224        9.282        9.299      202.327       86.162       86.471        0.514        0.019       99.255        5.904        0.004      332.268        0.818      871.092
01/07/2015  04:44:00       59.914       11.053       15.809       21.896       18.160       16.396      479.439      329.803      268.844        0.252        0.054       60.925       14.087        0.053      332.247        0.786      871.078
01/07/2015  04:45:00       57.955       20.635        5.650       17.784       14.948       12.105      316.275      223.452      146.535        0.225        0.034       61.519        7.907        0.017      332.232        0.762      871.071
01/07/2015  04:46:00       49.986        9.312       10.353       17.042        8.251       12.054      290.416       68.075      145.289        0.160        0.025       50.845        8.404        0.027      332.232        0.761      871.066
01/07/2015  04:47:00       60.699       17.253       10.279       16.021       11.040       15.114      256.665      121.886      228.445        0.235        0.030       63.104       10.853        0.030      332.217        0.735      871.050
01/07/2015  04:48:00       78.984       19.030       12.468       27.500       17.759       16.427      756.226      315.396      269.831        0.405        0.067       81.244       12.545        0.024      332.255        0.800      871.036
01/07/2015  04:49:00       98.025       55.677       17.361       20.831       24.022       14.628      433.929      577.068      213.970        0.712        0.061      112.733       12.740        0.013      332.216        0.736      871.024
01/07/2015  04:50:00       88.336       56.642       27.310       28.851       17.455       17.612      832.384      304.668      310.167        0.660        0.072      104.936       12.260        0.014      332.236        0.767      871.020
01/07/2015  04:51:00       69.623       48.585       35.556       19.841       18.810       22.358      393.668      353.810      499.859        0.486        0.062       84.899       16.663        0.039      332.123        0.583      871.008
01/07/2015  04:52:00       65.233       30.815       17.059       25.471       14.627       17.055      648.793      213.939      290.866        0.332        0.058       72.145       14.209        0.039      332.155        0.634      870.990
01/07/2015  04:53:00       60.727       33.411       20.362       22.919       18.149       20.250      525.282      329.369      410.075        0.324        0.063       69.311       15.582        0.051      332.107        0.554      870.991
01/07/2015  04:54:00       47.196       25.154       14.787       20.693       15.171       16.684      428.216      230.149      278.363        0.201        0.047       53.481       12.788        0.057      332.129        0.593      871.002
01/07/2015  04:55:00        9.412       18.491       25.809       20.544       20.835       16.166      422.064      434.092      261.336        0.111        0.056       20.748       14.401        0.482      332.024        0.418      871.011
01/07/2015  04:56:00       16.481      -10.117       14.441       19.934       18.163       15.244      397.368      329.888      232.372        0.077        0.048       19.339       10.483        0.294      332.029        0.427      871.014
01/07/2015  04:57:00       38.249      -26.244        2.004       19.955       24.016       18.472      398.202      576.788      341.201        0.174        0.066       46.387       15.703        0.115      332.123        0.581      871.021
01/07/2015  04:58:00       -7.373      -41.005        3.336       20.917       18.564       18.376      437.510      344.634      337.683        0.143        0.056       41.663       14.658        0.124      332.103        0.547      871.017
01/07/2015  04:59:00      -18.004      -21.369       -7.839       14.711       13.111        9.820      216.427      171.902       96.434        0.066        0.024       27.942        8.426        0.091      332.088        0.524      871.011
01/07/2015  05:00:00      -37.602       -6.224       10.176       20.073       16.913       17.586      402.929      286.066      309.254        0.128        0.050       38.113       14.109        0.137      332.117        0.573      871.008
01/07/2015  05:01:00      -42.205      -29.409       -3.655       12.373       11.856        5.900      153.083      140.570       34.812        0.149        0.016       51.441        4.514        0.008      331.809        0.062      871.012
01/07/2015  05:02:00      -48.238      -37.540       -0.753       10.274       13.805        7.819      105.545      190.571       61.140        0.205        0.018       61.124        5.283        0.007      331.825        0.089      871.007
01/07/2015  05:03:00      -82.147      -18.835       -7.086       17.856       11.242        9.376      318.832      126.391       87.903        0.384        0.027       84.279        4.791        0.003      331.700       -0.115      871.004
01/07/2015  05:04:00      -82.798      -22.317       -7.601       16.501       14.689       10.589      272.270      215.772      112.130        0.401        0.030       85.753        7.384        0.007      331.689       -0.132      870.992
01/07/2015  05:05:00      -68.064      -24.360       -5.870       15.701       16.255       11.856      246.508      264.218      140.567        0.296        0.033       72.292       10.974        0.023      331.685       -0.141      870.986
01/07/2015  05:06:00      -48.847        1.299       -7.085       11.350        8.911       11.139      128.813       79.415      124.079        0.139        0.017       48.864        7.080        0.021      331.801        0.046      870.994
01/07/2015  05:07:00      -61.121      -10.766       -9.676       15.084       10.018       12.390      227.522      100.367      153.523        0.221        0.024       62.062        8.492        0.019      331.990        0.361      871.008
01/07/2015  05:08:00      -77.879      -14.503       -9.216       13.680       14.481        8.173      187.150      209.690       66.796        0.341        0.023       79.218        5.258        0.004      331.916        0.240      871.025
01/07/2015  05:09:00      -44.690      -13.221       -7.769        9.368        7.595        8.324       87.760       57.684       69.293        0.122        0.011       46.605        5.356        0.013      331.907        0.225      871.039
01/07/2015  05:10:00      -51.938      -11.178       -3.416       18.717       10.763       11.037      350.336      115.847      121.822        0.171        0.029       53.128        9.350        0.031      331.823        0.087      871.050
01/07/2015  05:11:00      -56.612      -12.408       -5.279       16.565       12.227        8.470      274.386      149.505       71.748        0.194        0.025       57.955        7.249        0.016      331.791        0.033      871.056
01/07/2015  05:12:00      -62.918        3.571       -5.280       11.880       14.239        9.739      141.134      202.757       94.850        0.222        0.022       63.019        5.188        0.007      331.768       -0.007      871.066
01/07/2015  05:13:00      -45.448       -4.066       -3.474       11.830       13.695        7.614      139.956      187.566       57.975        0.124        0.019       45.630        5.218        0.013      331.729       -0.066      871.073
01/07/2015  05:14:00      -35.824        6.136        0.173       16.745       12.719       10.083      280.396      161.774      101.670        0.093        0.027       36.346        9.561        0.069      331.690       -0.130      871.091
01/07/2015  05:15:00       -5.101        8.642        4.446       10.065       10.068        7.584      101.306      101.370       57.512        0.019        0.013       10.035        5.200        0.269      331.556       -0.352      871.102
01/07/2015  05:16:00      -43.463      -21.324       -0.637       21.660       19.581        9.152      469.171      383.412       83.766        0.164        0.047       48.412       10.768        0.049      331.738       -0.054      871.132
01/07/2015  05:17:00      -43.527      -21.932        5.777       22.613       23.354       14.386      511.347      545.432      206.948        0.184        0.063       48.740        8.734        0.032      331.657       -0.185      871.158
01/07/2015  05:18:00      -71.608      -29.940        1.639       31.419       26.408       17.800      987.170      697.377      316.836        0.401        0.100       77.615       16.990        0.048      331.606       -0.269      871.189
01/07/2015  05:19:00      -41.507      -14.278       10.614       26.538       24.063       16.808      704.274      579.037      282.502        0.180        0.078       43.894       12.180        0.077      331.525       -0.405      871.211
01/07/2015  05:20:00      -64.508      -16.910        5.156       39.513       31.239       20.433     1561.243      975.881      417.508        0.371        0.148       66.687       18.551        0.077      331.463       -0.506      871.214
01/07/2015  05:21:00      -93.254      -21.422        3.332       27.599       23.495       16.907      761.679      552.017      285.844        0.538        0.080       95.682       15.713        0.027      331.461       -0.509      871.214
01/07/2015  05:22:00     -104.299      -14.101       -3.879       35.407       24.304       19.684     1253.646      590.698      387.451        0.666        0.112      105.248       19.347        0.034      331.454       -0.522      871.202
01/07/2015  05:23:00     -115.932      -30.334       -0.645       34.474       20.331       18.218     1188.426      413.335      331.885        0.815        0.097      119.834       18.954        0.025      331.463       -0.507      871.185
01/07/2015  05:24:00     -109.550      -22.738       -6.583       30.905       21.598       19.400      955.092      466.486      376.348        0.718        0.090      111.885       18.904        0.029      331.400       -0.610      871.173
01/07/2015  05:25:00     -103.795      -40.500       -6.439       24.611       32.038       14.559      605.709     1026.434      211.976        0.715        0.092      111.416        9.660        0.008      331.421       -0.574      871.168
01/07/2015  05:26:00     -113.840      -26.282       -1.104       35.286       32.525       20.696     1245.112     1057.849      428.323        0.819        0.137      116.835       19.627        0.028      331.411       -0.591      871.168
01/07/2015  05:27:00      -82.101      -11.925        6.404       44.159       31.585       23.638     1950.041      997.612      558.777        0.521        0.175       82.962       24.806        0.089      331.337       -0.712      871.175
01/07/2015  05:28:00      -71.593       -7.994        5.455       57.835       35.638       24.394     3344.914     1270.059      595.082        0.521        0.261       72.038       22.126        0.094      331.364       -0.667      871.191
01/07/2015  05:29:00      -50.343        4.992       -1.612       37.865       34.718       26.405     1433.743     1205.306      697.236        0.295        0.167       50.590       21.353        0.178      331.482       -0.474      871.196
01/07/2015  05:30:00      -89.144       13.925       -3.210       41.674       34.136       23.390     1736.704     1165.264      547.086        0.580        0.172       90.225       16.070        0.032      331.638       -0.217      871.179
01/07/2015  05:31:00      -70.561       -8.856       -2.234       38.521       28.946       20.626     1483.861      837.878      425.439        0.390        0.137       71.115       20.241        0.081      331.575       -0.323      871.165
01/07/2015  05:32:00      -87.862      -11.352       -5.657       32.368       40.520       18.938     1047.676     1641.901      358.642        0.546        0.152       88.593       17.777        0.040      331.657       -0.185      871.164
01/07/2015  05:33:00      -87.845      -29.123       -7.805       36.869       35.241       18.887     1359.330     1241.942      356.726        0.579        0.148       92.546       16.989        0.034      331.619       -0.249      871.196
01/07/2015  05:34:00     -116.889      -36.767      -13.103       40.669       26.187       19.989     1653.984      685.753      399.573        0.896        0.137      122.535       20.808        0.029      331.583       -0.309      871.232
01/07/2015  05:35:00      -99.352      -56.779       -1.907       55.474       31.912       21.004     3077.330     1018.347      441.188        0.882        0.227      114.432       22.338        0.038      331.485       -0.470      871.259
01/07/2015  05:36:00     -149.115      -56.490      -11.665       26.306       29.537       18.905      692.027      872.422      357.388        1.374        0.096      159.456       11.227        0.005      331.498       -0.450      871.277
01/07/2015  05:37:00     -133.101      -18.274       -2.975       38.809       25.063       20.072     1506.140      628.174      402.900        1.030        0.127      134.350       21.155        0.025      331.573       -0.324      871.279
01/07/2015  05:38:00     -131.072      -26.499       -5.784       30.395       25.744       21.228      923.884      662.744      450.640        0.998        0.102      133.724       19.593        0.021      331.627       -0.235      871.282
01/07/2015  05:39:00     -129.913      -30.719      -13.052       25.632       21.465       16.981      656.985      460.767      288.348        0.970        0.070      133.496       14.883        0.012      331.612       -0.262      871.280
01/07/2015  05:40:00     -125.643      -29.951      -10.024       24.151       18.849       13.458      583.251      355.288      181.122        0.895        0.056      129.164       12.519        0.009      331.610       -0.264      871.269
01/07/2015  05:41:00     -121.706      -19.451      -10.417       34.542       23.756       19.688     1193.163      564.369      387.622        0.872        0.107      123.250       17.714        0.021      331.533       -0.391      871.257
01/07/2015  05:42:00     -127.009      -16.187       -9.064       45.214       28.414       28.259     2044.294      807.355      798.569        1.006        0.183      128.036       28.661        0.050      331.462       -0.508      871.241
01/07/2015  05:43:00     -133.113        9.194      -13.395       46.499       31.692       23.392     2162.188     1004.367      547.200        1.085        0.186      133.430       24.892        0.035      331.519       -0.414      871.240
01/07/2015  05:44:00     -170.889       48.209       -5.665       45.753       26.213       20.026     2093.364      687.117      401.043        1.737        0.159      177.559       18.114        0.010      331.683       -0.144      871.241
01/07/2015  05:45:00     -168.100       53.867       -9.465       41.361       31.858       20.671     1710.752     1014.919      427.300        1.720        0.158      176.520       11.819        0.004      331.757       -0.021      871.249
01/07/2015  05:46:00     -159.091       47.411      -10.224       52.420       38.273       23.459     2747.890     1464.830      550.314        1.621        0.238      166.005       21.411        0.017      331.707       -0.105      871.243
01/07/2015  05:47:00     -196.006       50.918      -15.592       38.491       31.781       18.083     1481.559     1010.022      326.997        2.204        0.141      202.512       14.875        0.005      331.682       -0.147      871.257
01/07/2015  05:48:00     -135.872       35.387      -15.329       40.708       36.186       21.792     1657.145     1309.418      474.907        1.169        0.172      140.405       16.423        0.014      331.636       -0.221      871.277
01/07/2015  05:49:00     -159.731       29.154      -18.361       35.993       26.804       17.689     1295.467      718.440      312.906        1.451        0.116      162.370       11.505        0.005      331.705       -0.108      871.289
01/07/2015  05:50:00      -78.660        5.058        0.808       51.810       35.230       22.433     2684.280     1241.137      503.242        0.532        0.221       78.822       25.679        0.106      331.667       -0.169      871.309
01/07/2015  05:51:00      -68.113      -23.247       -2.742       32.167       32.369       19.256     1034.714     1047.743      370.792        0.382        0.123       71.971       17.539        0.059      331.642       -0.210      871.338
01/07/2015  05:52:00      -74.984      -31.713       -6.509       27.942       21.403       14.839      780.734      458.076      220.191        0.406        0.073       81.415       14.730        0.033      331.499       -0.447      871.358
01/07/2015  05:53:00      -69.426      -48.071       -8.821       23.283       22.081       16.371      542.105      487.555      268.023        0.425        0.065       84.444        8.469        0.010      331.483       -0.474      871.365
01/07/2015  05:54:00      -67.968      -35.840       -8.404       14.873       18.911        9.314      221.212      357.641       86.751        0.332        0.033       76.839        6.013        0.006      331.468       -0.498      871.352
01/07/2015  05:55:00      -62.953      -38.327      -13.179       18.075       14.714       14.120      326.703      216.501      199.361        0.317        0.037       73.702       10.114        0.019      331.478       -0.483      871.350
01/07/2015  05:56:00      -77.334      -40.014      -11.710       14.968       15.519       12.801      224.049      240.829      163.868        0.417        0.031       87.073        4.446        0.003      331.476       -0.486      871.336
01/07/2015  05:57:00      -66.339      -47.044       -5.011       35.878       24.727        9.753     1287.258      611.410       95.116        0.432        0.100       81.327        7.621        0.009      331.479       -0.480      871.312
01/07/2015  05:58:00      -34.815      -21.968       -1.490       22.635       18.334       17.673      512.365      336.148      312.327        0.143        0.058       41.166       11.923        0.084      331.476       -0.484      871.306
01/07/2015  05:59:00      -19.815      -30.171        3.853       18.388       17.328       13.572      338.105      300.261      184.212        0.107        0.041       36.096       11.784        0.107      331.685       -0.141      871.311
01/07/2015  06:00:00      -15.108      -24.534       -6.066       12.650       15.061       11.776      160.030      226.846      138.669        0.070        0.026       28.813        4.660        0.026      331.722       -0.080      871.327
01/07/2015  06:01:00      -35.030      -37.674       -3.359       17.601       14.941       14.363      309.790      223.226      206.308        0.170        0.037       51.443       10.843        0.044      331.575       -0.322      871.339
01/07/2015  06:02:00      -47.655      -43.244       -5.714       18.263       21.330       22.204      333.524      454.964      493.034        0.273        0.064       64.351       15.364        0.057      331.537       -0.385      871.334
01/07/2015  06:03:00      -44.445      -28.351      -11.391       18.465       16.087       16.302      340.951      258.803      265.752        0.189        0.043       52.717        8.507        0.026      331.477       -0.484      871.327
01/07/2015  06:04:00      -86.930      -10.492      -19.939       11.837       10.060       11.475      140.112      101.207      131.668        0.422        0.019       87.561        6.003        0.005      331.467       -0.501      871.326
01/07/2015  06:05:00      -93.253       -1.993      -18.039       10.524        8.979       10.293      110.758       80.627      105.956        0.466        0.015       93.274        6.149        0.004      331.566       -0.336      871.335
01/07/2015  06:06:00     -108.146       -4.467      -18.700       13.383       10.856       11.128      179.118      117.849      123.830        0.624        0.021      108.238        6.576        0.004      331.654       -0.191      871.352
01/07/2015  06:07:00     -109.981      -11.679      -17.240       10.351       11.773        9.173      107.144      138.615       84.139        0.643        0.016      110.600        7.669        0.005      331.663       -0.175      871.358
01/07/2015  06:08:00      -99.083      -23.995      -13.721       12.817       13.581        8.101      164.285      184.444       65.629        0.550        0.021      101.947        6.702        0.004      331.671       -0.162      871.366
01/07/2015  06:09:00      -93.022      -29.380       -8.107       17.865       14.859        9.189      319.173      220.792       84.429        0.510        0.031       97.551        8.903        0.008      331.731       -0.065      871.364
01/07/2015  06:10:00      -77.740      -19.860      -10.352       13.405       10.579        9.465      179.688      111.915       89.585        0.346        0.019       80.236        7.100        0.008      331.764       -0.012      871.347
01/07/2015  06:11:00      -78.821       -3.645       -9.396       12.302       10.697        9.542      151.330      114.433       91.040        0.334        0.018       78.905        7.055        0.008      331.664       -0.174      871.321
01/07/2015  06:12:00      -91.067       -3.051      -14.638        6.881        8.360        6.444       47.349       69.886       41.526        0.434        0.008       91.118        4.508        0.002      331.659       -0.183      871.309
01/07/2015  06:13:00      -99.257      -11.800      -13.686        8.387        8.479        6.317       70.334       71.899       39.907        0.518        0.009       99.956        3.616        0.001      331.697       -0.120      871.316
01/07/2015  06:14:00      -75.057      -28.894       -4.084       18.719       19.467        8.587      350.414      378.962       73.737        0.364        0.040       80.426        1.974        0.001      331.685       -0.141      871.337
01/07/2015  06:15:00      -76.997      -29.854       -2.390       16.241       13.858       11.083      263.755      192.033      122.839        0.370        0.029       82.582        9.366        0.013      331.756       -0.025      871.362
01/07/2015  06:16:00      -84.521      -30.591       -9.521       12.713       22.385        8.594      161.627      501.105       73.860        0.445        0.037       89.887        8.881        0.010      331.719       -0.083      871.374
01/07/2015  06:17:00      -89.102      -16.837       -8.561       21.496       17.036       14.106      462.068      290.210      198.977        0.462        0.048       90.679       11.429        0.016      331.628       -0.233      871.378
01/07/2015  06:18:00      -99.888      -21.580       -6.576       28.510       18.088       14.650      812.840      327.175      214.613        0.592        0.068      102.192       11.345        0.012      331.555       -0.356      871.364
01/07/2015  06:19:00     -146.454      -41.871      -13.567       16.535       14.434       12.782      273.410      208.349      163.392        1.202        0.032      152.322        7.256        0.002      331.520       -0.413      871.341
01/07/2015  06:20:00     -133.670      -39.158       -9.659       34.311       26.301       21.696     1177.270      691.739      470.700        1.092        0.117      139.288       20.259        0.021      331.409       -0.596      871.333
01/07/2015  06:21:00     -113.694      -26.698       -8.183       31.822       29.006       19.614     1012.624      841.343      384.723        0.797        0.112      116.787       14.830        0.016      331.351       -0.690      871.333
01/07/2015  06:22:00     -112.916      -16.301       -1.415       39.087       33.577       26.408     1527.787     1127.409      697.373        0.818        0.168      114.086       22.755        0.040      331.321       -0.739      871.331
01/07/2015  06:23:00     -102.710      -38.596       -2.129       34.457       32.565       23.051     1187.315     1060.478      531.353        0.741        0.139      109.723       19.168        0.031      331.325       -0.732      871.329
01/07/2015  06:24:00      -91.208      -12.909        1.461       40.363       27.313       25.082     1629.167      745.993      629.096        0.575        0.150       92.117       23.419        0.065      331.279       -0.808      871.315
01/07/2015  06:25:00      -68.926      -22.420        0.492       37.779       24.090       19.479     1427.217      580.350      379.423        0.382        0.119       72.481       17.326        0.057      331.330       -0.724      871.305
01/07/2015  06:26:00      -67.264      -14.810       -4.149       25.447       20.516       18.351      647.569      420.901      336.757        0.308        0.070       68.875       14.614        0.045      331.335       -0.716      871.287
01/07/2015  06:27:00      -44.174      -23.383       -8.517       14.994       15.011       12.112      224.825      225.318      146.706        0.158        0.030       49.981        8.428        0.028      331.373       -0.653      871.273
01/07/2015  06:28:00      -55.180      -24.781      -11.984       11.637       14.818        8.773      135.428      219.566       76.963        0.212        0.022       60.489        6.506        0.012      331.546       -0.369      871.276
01/07/2015  06:29:00      -42.434      -28.466       -6.047       11.662       11.036        8.517      136.006      121.786       72.541        0.149        0.017       51.097        4.474        0.008      331.497       -0.451      871.281
01/07/2015  06:30:00      -16.829      -10.567        3.163       13.797        8.494        8.571      190.356       72.141       73.464        0.037        0.017       19.872        7.544        0.144      331.467       -0.500      871.301
01/07/2015  06:31:00       -3.932      -19.654       -2.870        5.892        6.650        3.770       34.721       44.218       14.213        0.025        0.005       20.043        1.470        0.005      331.534       -0.391      871.331
01/07/2015  06:32:00       -0.100       -6.249        8.797        5.178       13.067        4.919       26.810      170.747       24.198        0.017        0.011        6.249        6.162        0.972      331.608       -0.267      871.359
01/07/2015  06:33:00       -2.851       12.586       10.154        5.659        9.578       10.559       32.021       91.730      111.482        0.025        0.012       12.905        5.597        0.188      331.615       -0.255      871.371
01/07/2015  06:34:00        1.828      -11.424        0.188        8.778        9.877        8.640       77.053       97.548       74.643        0.019        0.012       11.570        3.825        0.109      331.724       -0.076      871.364
01/07/2015  06:35:00      -24.124      -14.662       -0.631       17.938        6.798        5.392      321.768       46.208       29.069        0.060        0.020       28.231        3.802        0.018      331.607       -0.269      871.380
01/07/2015  06:36:00      -23.524      -16.638       -2.810       13.322        7.867        8.423      177.479       61.897       70.943        0.057        0.016       28.813        7.501        0.068      331.566       -0.338      871.403
01/07/2015  06:37:00       -4.775       -9.661       -2.344        4.757        4.568        4.469       22.630       20.864       19.972        0.009        0.003       10.777        2.457        0.052      331.569       -0.332      871.433
01/07/2015  06:38:00      -28.908      -19.771       -4.391       12.363        8.116        5.768      152.847       65.876       33.267        0.075        0.013       35.022        3.214        0.008      331.662       -0.176      871.457
01/07/2015  06:39:00      -24.004      -21.822        0.200       16.976        9.324        8.715      288.198       86.928       75.950        0.075        0.023       32.441        8.813        0.074      331.627       -0.235      871.474
01/07/2015  06:40:00      -23.241      -24.513       -4.015       15.661        9.402        9.816      245.276       88.390       96.350        0.079        0.022       33.779        3.159        0.009      331.653       -0.190      871.501
01/07/2015  06:41:00        1.543       -4.420        2.207        5.792       11.612        5.052       33.549      134.842       25.521        0.011        0.010        4.681        1.333        0.081      331.659       -0.183      871.518
01/07/2015  06:42:00       42.386       37.938       28.198       33.152       16.250       18.992     1099.052      264.065      360.714        0.288        0.086       56.885       18.221        0.103      331.588       -0.300      871.522
01/07/2015  06:43:00       10.341       38.536       51.314       27.259       26.907       22.443      743.078      723.976      503.694        0.310        0.099       39.900       16.716        0.176      331.731       -0.065      871.511
01/07/2015  06:44:00       -2.960       34.713       60.496       24.926       25.080       18.691      621.319      629.021      349.337        0.324        0.080       34.839       16.559        0.226      331.780        0.016      871.496
01/07/2015  06:45:00        7.582       30.440       47.285       15.440       24.615       13.830      238.398      605.899      191.277        0.213        0.052       31.370       15.346        0.239      331.709       -0.100      871.501
01/07/2015  06:46:00       10.535       22.126       54.571       24.013       23.647       15.929      576.647      559.172      253.742        0.248        0.069       24.506        7.728        0.099      331.658       -0.184      871.518
01/07/2015  06:47:00        0.511       39.400       56.747       17.316       32.714       24.815      299.845     1070.218      615.765        0.338        0.099       39.403       25.035        0.404      331.632       -0.227      871.529
01/07/2015  06:48:00       55.136       53.863       65.470       47.063       33.585       25.217     2214.891     1127.958      635.893        0.710        0.199       77.079       17.058        0.049      331.565       -0.338      871.534
01/07/2015  06:49:00       36.598       62.463       64.821       36.506       37.641       33.256     1332.690     1416.824     1105.988        0.665        0.193       72.395       26.776        0.137      331.539       -0.380      871.533
01/07/2015  06:50:00      106.669       46.843       32.990       41.802       27.412       32.056     1747.397      751.441     1027.566        0.909        0.176      116.501       22.945        0.039      331.475       -0.487      871.524
01/07/2015  06:51:00       63.943       40.307       22.386       35.779       32.166       31.212     1280.117     1034.639      974.220        0.475        0.164       75.586       23.157        0.094      331.428       -0.565      871.516
01/07/2015  06:52:00       47.896       21.051       36.022       23.833       18.344       18.542      568.021      336.511      343.820        0.264        0.062       52.317        8.513        0.026      331.414       -0.586      871.515
01/07/2015  06:53:00       36.930        8.817       18.990       21.692       26.097       15.562      470.532      681.034      242.172        0.160        0.070       37.968       14.012        0.136      331.471       -0.492      871.532
01/07/2015  06:54:00       12.488       14.535       31.294       16.292       17.749        8.853      265.430      315.011       78.383        0.100        0.033       19.163       10.161        0.281      331.421       -0.575      871.567
01/07/2015  06:55:00       -0.009       16.832       28.649        8.514       12.936       11.584       72.488      167.350      134.196        0.074        0.019       16.832        7.477        0.197      331.392       -0.622      871.593
01/07/2015  06:56:00       12.887       27.471       43.463       23.350       20.016       17.094      545.217      400.647      292.220        0.202        0.062       30.343       14.283        0.222      331.427       -0.566      871.602
01/07/2015  06:57:00       22.227       14.778       25.947       17.058       24.972       15.163      290.966      623.624      229.904        0.126        0.057       26.691        9.694        0.132      331.493       -0.457      871.603
01/07/2015  06:58:00       41.250       42.350       23.626       14.815       12.519       11.598      219.479      156.720      134.517        0.228        0.026       59.119        5.125        0.008      331.370       -0.658      871.585
01/07/2015  06:59:00       34.525       25.751       -0.101       10.537        9.510        9.106      111.036       90.432       82.916        0.107        0.014       43.070        2.993        0.005      331.318       -0.744      871.586
01/07/2015  07:00:00       25.090       40.311        6.958       13.748       12.133        9.588      189.001      147.205       91.927        0.137        0.021       47.481        5.437        0.013      331.310       -0.758      871.593
01/07/2015  07:01:00       13.362       11.547       11.860       13.415       15.581        7.900      179.970      242.778       62.408        0.047        0.024       17.660        5.628        0.102      331.251       -0.855      871.601
01/07/2015  07:02:00       -0.910       11.443       -4.227       13.818       11.287        8.155      190.934      127.392       66.504        0.027        0.019       11.479        8.898        0.601      331.410       -0.593      871.616
01/07/2015  07:03:00      -45.473       20.573       -2.594       16.082       12.225       10.691      258.620      149.455      114.295        0.151        0.026       49.910       10.820        0.047      331.342       -0.706      871.616
01/07/2015  07:04:00      -59.758       19.437       -4.458       11.817       11.296        8.196      139.648      127.596       67.176        0.215        0.017       62.840        5.639        0.008      331.402       -0.608      871.613
01/07/2015  07:05:00      -73.915      -18.051       -6.878       11.423       17.247        8.285      130.494      297.469       68.637        0.317        0.025       76.087        4.005        0.003      331.347       -0.696      871.623
01/07/2015  07:06:00      -66.061      -20.487       -1.431       16.918       12.647        7.874      286.235      159.942       62.006        0.265        0.025       69.165        7.719        0.012      331.320       -0.740      871.649
01/07/2015  07:07:00      -80.368        9.425       -3.825       28.515       11.684       10.566      813.078      136.511      111.640        0.381        0.053       80.919       13.023        0.026      331.233       -0.882      871.667
01/07/2015  07:08:00      -87.471        0.070       -9.204       25.156       14.931       14.724      632.823      222.948      216.810        0.440        0.054       87.471       12.758        0.021      331.214       -0.914      871.675
01/07/2015  07:09:00      -69.312        3.733       -3.349       33.606       22.985       18.682     1129.362      528.299      348.999        0.342        0.100       69.412       16.716        0.058      331.209       -0.923      871.694
01/07/2015  07:10:00      -73.088      -14.637        2.719       41.924       28.984       20.930     1757.633      840.073      438.064        0.430        0.152       74.539       23.387        0.098      331.153       -1.016      871.712
01/07/2015  07:11:00      -82.013        4.148       -7.355       35.038       25.855       20.943     1227.649      668.484      438.611        0.457        0.117       82.118       18.592        0.051      331.166       -0.994      871.712
01/07/2015  07:12:00      -48.140       12.765       -5.861       26.504       26.350       14.252      702.473      694.342      203.125        0.206        0.080       49.804       11.911        0.057      331.170       -0.988      871.701
01/07/2015  07:13:00      -40.102       -2.280       -2.900       26.599       24.719       16.721      707.506      611.049      279.578        0.161        0.080       40.167       15.955        0.158      331.206       -0.929      871.699
01/07/2015  07:14:00      -55.431        8.221       -0.789       28.183       24.192       14.801      794.257      585.277      219.060        0.237        0.080       56.038        8.216        0.021      331.332       -0.721      871.708
01/07/2015  07:15:00      -80.676       -1.920       -7.933       28.877       27.581       16.851      833.889      760.697      283.962        0.423        0.094       80.699       12.841        0.025      331.340       -0.709      871.724
01/07/2015  07:16:00      -97.354       17.096       -3.314       26.221       27.926       18.073      687.567      779.852      326.617        0.579        0.090       98.844       14.298        0.021      331.372       -0.656      871.741
01/07/2015  07:17:00      -68.654       24.341       -7.200       29.982       20.103       15.313      898.934      404.143      234.490        0.345        0.077       72.842       12.059        0.027      331.330       -0.725      871.743
01/07/2015  07:18:00      -30.308        8.057       -1.864       21.044       16.102       13.316      442.831      259.285      177.314        0.093        0.044       31.361       12.173        0.151      331.471       -0.494      871.742
01/07/2015  07:19:00      -39.226       19.661       -0.222       25.992       18.164       13.569      675.587      329.917      184.126        0.156        0.059       43.878       13.411        0.093      331.630       -0.232      871.733
01/07/2015  07:20:00      -19.222       -0.564        1.838       12.898        7.266        7.766      166.355       52.800       60.307        0.033        0.014       19.231        4.953        0.066      331.525       -0.405      871.733
01/07/2015  07:21:00      -18.044       -3.402       -5.900        9.763        6.183        5.252       95.312       38.229       27.582        0.027        0.008       18.362        2.663        0.021      331.554       -0.357      871.723
01/07/2015  07:22:00      -49.304      -20.116      -12.319       11.246        8.140        5.952      126.479       66.262       35.432        0.161        0.011       53.250        3.787        0.005      331.481       -0.475      871.722
01/07/2015  07:23:00      -57.549      -15.383       -8.300        8.854        7.550        8.837       78.388       57.001       78.094        0.192        0.011       59.570        4.463        0.006      331.417       -0.583      871.721
01/07/2015  07:24:00      -53.344      -24.444       -8.171        8.467        8.279        7.600       71.684       68.546       57.766        0.185        0.010       58.678        4.429        0.006      331.375       -0.650      871.723
01/07/2015  07:25:00      -54.333      -17.335       -8.555       10.850        9.808        8.703      117.714       96.189       75.744        0.181        0.014       57.031        6.784        0.014      331.350       -0.692      871.727
01/07/2015  07:26:00      -63.904       -6.384       -9.422       13.875        9.694        8.097      192.528       93.969       65.555        0.228        0.018       64.222        7.350        0.013      331.343       -0.702      871.732
01/07/2015  07:27:00      -81.497       -4.294      -14.443       15.476        6.574        6.095      239.520       43.213       37.144        0.359        0.016       81.610        5.164        0.004      331.345       -0.700      871.733
01/07/2015  07:28:00      -51.781       -6.347       -9.769        9.699        8.780       11.173       94.078       77.084      124.835        0.156        0.015       52.168        7.046        0.018      331.371       -0.657      871.736
01/07/2015  07:29:00      -44.802      -16.852      -11.250       10.426       10.801        6.630      108.706      116.652       43.959        0.134        0.013       47.867        5.297        0.012      331.424       -0.571      871.735
01/07/2015  07:30:00      -44.011      -12.320       -8.592        6.149        8.639        6.205       37.808       74.632       38.508        0.116        0.008       45.702        5.015        0.012      331.381       -0.642      871.729
01/07/2015  07:31:00      -44.576       -8.824      -11.225        6.171        8.403        5.584       38.080       70.610       31.180        0.117        0.007       45.441        2.210        0.002      331.383       -0.639      871.716
01/07/2015  07:32:00      -59.602      -17.332      -10.198       18.786       11.004        7.108      352.911      121.093       50.526        0.224        0.026       62.071        7.157        0.013      331.309       -0.759      871.722
01/07/2015  07:33:00      -75.526      -11.162      -17.845       14.532       13.501       12.072      211.177      182.278      145.740        0.334        0.027       76.346        8.273        0.012      331.329       -0.725      871.735
01/07/2015  07:34:00      -80.649       -4.986      -13.194       14.857       18.369       11.895      220.716      337.419      141.485        0.370        0.035       80.803        7.304        0.008      331.295       -0.781      871.747
01/07/2015  07:35:00      -82.282      -24.991      -10.006       14.274       24.199       14.989      203.742      585.572      224.663        0.425        0.051       85.993        9.055        0.011      331.231       -0.886      871.742
01/07/2015  07:36:00     -102.556       -6.620       -9.275       32.046       39.981       17.447     1026.944     1598.468      304.392        0.679        0.146      102.769       12.517        0.015      331.205       -0.930      871.720
01/07/2015  07:37:00      -82.305      -31.577       -1.898       30.875       22.731       16.506      953.254      516.678      272.444        0.476        0.087       88.154       14.800        0.028      331.196       -0.944      871.714
01/07/2015  07:38:00      -61.779      -34.051       -5.159       33.454       24.741       16.991     1119.164      612.101      288.694        0.351        0.101       70.542       15.512        0.048      331.258       -0.842      871.733
01/07/2015  07:39:00        0.204      -39.080        3.320       21.124       19.865       13.799      446.212      394.633      190.405        0.128        0.052       39.080        6.796        0.030      331.362       -0.672      871.753
01/07/2015  07:40:00      -51.578      -32.505        0.250       32.567       28.297       18.951     1060.614      800.719      359.153        0.297        0.111       60.966       18.164        0.089      331.353       -0.686      871.790
01/07/2015  07:41:00      -85.660      -20.127       -6.541       23.124       20.999       11.927      534.734      440.952      142.262        0.445        0.056       87.993        9.373        0.011      331.356       -0.681      871.829
01/07/2015  07:42:00      -66.618      -25.210        2.789       29.601       20.698       18.868      876.230      428.418      356.016        0.337        0.083       71.228       19.906        0.078      331.444       -0.537      871.849
01/07/2015  07:43:00      -86.583      -42.646        5.536       37.455       24.055       14.110     1402.882      578.626      199.093        0.576        0.109       96.516       17.021        0.031      331.469       -0.497      871.854
01/07/2015  07:44:00      -69.435      -42.641        2.880       39.539       23.591       14.752     1563.334      556.524      217.627        0.449        0.117       81.483       15.087        0.034      331.517       -0.417      871.863
01/07/2015  07:45:00      -26.838      -31.298        8.935       35.612       19.187       16.436     1268.243      368.132      270.151        0.184        0.095       41.229       21.177        0.264      331.653       -0.192      871.889
01/07/2015  07:46:00      -27.014      -22.936        5.445       23.077       20.769       11.590      532.529      431.369      134.325        0.119        0.055       35.437       13.000        0.135      331.731       -0.064      871.917
01/07/2015  07:47:00      -47.088      -25.619       -0.220       29.521       19.943       14.784      871.512      397.741      218.562        0.218        0.074       53.606       11.170        0.043      331.742       -0.047      871.942
01/07/2015  07:48:00      -54.060      -21.023        1.321       21.100       26.628       15.965      445.224      709.039      254.875        0.239        0.070       58.004       11.339        0.038      331.774        0.007      871.961
01/07/2015  07:49:00      -40.119      -20.574        4.022       21.938       13.230       10.399      481.291      175.038      108.142        0.141        0.038       45.087        7.961        0.031      331.801        0.049      871.973
01/07/2015  07:50:00      -37.330      -25.585        1.868       27.362       14.085       12.975      748.706      198.399      168.346        0.158        0.056       45.256       13.033        0.083      331.890        0.197      872.004
01/07/2015  07:51:00      -57.290      -36.078        7.299       32.226       23.191       14.579     1038.505      537.835      212.534        0.321        0.089       67.704       15.455        0.052      331.887        0.192      872.024
01/07/2015  07:52:00      -34.495      -24.704        2.468       29.467       22.911       17.466      868.316      524.914      305.055        0.175        0.085       42.429       14.708        0.120      331.887        0.191      872.026
01/07/2015  07:53:00      -40.068      -30.770        1.220       27.235       15.276       13.936      741.729      233.349      194.200        0.186        0.058       50.520       12.693        0.063      331.804        0.055      872.042
01/07/2015  07:54:00      -45.026      -19.311       -1.857       10.351       14.476        7.533      107.151      209.562       56.743        0.139        0.019       48.992        3.877        0.006      331.827        0.093      872.051
01/07/2015  07:55:00      -28.168       -8.768       -2.343       11.462        7.758        5.960      131.380       60.188       35.526        0.055        0.011       29.502        5.612        0.036      331.937        0.275      872.064
01/07/2015  07:56:00      -30.964       -0.523       -3.111       10.612        6.652        5.890      112.623       44.250       34.693        0.058        0.010       30.968        4.413        0.020      331.991        0.364      872.058
01/07/2015  07:57:00      -45.298       14.387       -3.441        9.531       12.611        6.906       90.845      159.035       47.695        0.128        0.015       47.528        4.598        0.009      332.036        0.439      872.055
01/07/2015  07:58:00       -9.930       21.180        3.681       15.416       12.889       11.591      237.655      166.116      134.343        0.055        0.027       23.393       10.906        0.217      332.301        0.875      872.054
01/07/2015  07:59:00        8.349       35.915        3.971       28.445       28.831       15.904      809.090      831.211      252.932        0.163        0.095       36.873       15.615        0.179      332.354        0.960      872.045
01/07/2015  08:00:00        0.745       73.137      -12.598       20.003       21.724        9.993      400.113      471.933       99.854        0.324        0.049       73.141       10.666        0.021      332.243        0.781      872.026
01/07/2015  08:01:00       -0.202      104.612      -12.800       15.215       33.090       14.154      231.507     1094.980      200.337        0.632        0.076      104.612       17.127        0.027      332.151        0.628      872.002
01/07/2015  08:02:00        9.108       97.112      -13.228       19.844       40.003       22.155      393.771     1600.257      490.836        0.609        0.124       97.538       24.605        0.064      332.111        0.562      871.984
01/07/2015  08:03:00        6.919      120.252      -14.638       18.020       42.975       20.388      324.730     1846.839      415.651        0.865        0.129      120.451       25.290        0.044      332.036        0.437      871.982
01/07/2015  08:04:00      -10.672       84.765       -3.902       19.804       37.303       19.585      392.204     1391.493      383.579        0.474        0.108       85.434       22.638        0.070      332.151        0.628      872.005
01/07/2015  08:05:00       -4.998       69.196       -0.158       22.754       33.119       18.779      517.734     1096.869      352.632        0.339        0.098       69.376       15.532        0.050      332.233        0.763      872.018
01/07/2015  08:06:00      -13.273       95.976       -2.644       16.198       16.473       12.854      262.362      271.372      165.233        0.505        0.035       96.890        9.512        0.010      332.291        0.857      872.016
01/07/2015  08:07:00      -26.871       34.803       -2.868       22.205       42.975       12.804      493.081     1846.811      163.944        0.222        0.125       43.969       11.078        0.063      332.090        0.527      872.015
01/07/2015  08:08:00      -19.472        1.308        3.288       14.967        6.519        9.956      224.006       42.491       99.125        0.038        0.018       19.515       10.926        0.313      332.268        0.820      872.018
01/07/2015  08:09:00      -21.425       -0.500       -3.461        7.903        5.285        5.700       62.450       27.927       32.485        0.030        0.006       21.430        4.640        0.047      332.163        0.648      872.025
01/07/2015  08:10:00      -48.474      -12.374       -3.011        9.283        8.829        5.694       86.168       77.954       32.426        0.135        0.010       50.028        3.344        0.004      332.183        0.681      872.024
01/07/2015  08:11:00      -67.520       -8.337       -5.953       15.537       12.245        8.568      241.392      149.933       73.409        0.256        0.023       68.033        8.897        0.017      332.178        0.673      872.026
01/07/2015  08:12:00      -51.346      -15.496       -3.809       15.331       14.723        9.839      235.055      216.755       96.813        0.172        0.027       53.633        8.974        0.028      332.175        0.667      872.036
01/07/2015  08:13:00      -84.238       -1.693       -8.687       13.903       10.814        9.290      193.300      116.936       86.313        0.379        0.020       84.255        4.107        0.002      332.199        0.708      872.031
01/07/2015  08:14:00      -73.246       -8.196       -2.032       20.787       15.527       10.770      432.116      241.088      115.986        0.311        0.039       73.704        6.041        0.007      332.242        0.777      872.026
01/07/2015  08:15:00      -84.829      -10.396       -9.802       20.999       16.997       11.847      440.965      288.907      140.356        0.413        0.044       85.463       10.066        0.014      332.274        0.830      872.020
01/07/2015  08:16:00      -79.498       -7.844       -4.053       17.914       11.698       11.287      320.905      136.838      127.400        0.349        0.029       79.884        5.416        0.005      332.368        0.985      872.026
01/07/2015  08:17:00      -54.407       -4.517       -7.686       13.603       11.483        9.612      185.050      131.864       92.382        0.172        0.020       54.594        9.841        0.032      332.419        1.069      872.037
01/07/2015  08:18:00      -57.922       -1.666       -6.010       15.647        7.774        8.406      244.824       60.429       70.653        0.188        0.019       57.946        8.503        0.022      332.428        1.084      872.052
01/07/2015  08:19:00      -28.405       -8.105        0.858       12.042        9.418        6.558      145.015       88.706       43.007        0.057        0.014       29.539        4.456        0.023      332.511        1.221      872.082
01/07/2015  08:20:00       -5.247       -1.342        8.964       10.334        4.322        6.860      106.790       18.681       47.055        0.014        0.009        5.416        5.626        1.079      333.008        2.042      872.111
01/07/2015  08:21:00       33.746       21.648        1.289       17.209       14.451       13.806      296.165      208.829      190.614        0.115        0.035       40.093       11.146        0.077      332.940        1.929      872.135
01/07/2015  08:22:00       41.768       27.627       -2.861        9.193        8.626        9.076       84.514       74.409       82.383        0.138        0.012       50.078        5.096        0.010      332.916        1.891      872.148
01/07/2015  08:23:00       23.071       20.984        4.396       13.177       13.655       11.458      173.632      186.451      131.276        0.074        0.025       31.187        8.232        0.070      333.013        2.052      872.151
01/07/2015  08:24:00       21.481       19.420        8.152       11.354       17.436       15.588      128.920      304.015      242.996        0.079        0.034       28.958       13.719        0.224      333.169        2.308      872.148
01/07/2015  08:25:00       37.480       24.246        4.095       19.310       12.244       10.691      372.859      149.908      114.293        0.132        0.032       44.639        8.086        0.033      333.107        2.204      872.157
01/07/2015  08:26:00       33.946        7.948        6.682       15.441        9.593       11.216      238.424       92.020      125.793        0.086        0.023       34.864        8.106        0.054      333.174        2.315      872.176
01/07/2015  08:27:00       33.237       19.798        5.438       12.891       10.058       12.452      166.180      101.156      155.048        0.097        0.021       38.687        4.029        0.011      333.117        2.222      872.195
01/07/2015  08:28:00       33.526       32.542       -1.980       12.592       11.155        6.881      158.555      124.436       47.343        0.126        0.017       46.723        5.258        0.013      333.012        2.049      872.210
01/07/2015  08:29:00       33.773       33.460       -1.489       19.697        9.160       15.462      387.967       83.904      239.075        0.149        0.036       47.542        9.680        0.041      333.133        2.249      872.216
01/07/2015  08:30:00       32.082       28.076        5.163       15.119       10.140       16.383      228.586      102.813      268.395        0.122        0.030       42.632        6.310        0.022      333.302        2.528      872.224
01/07/2015  08:31:00       29.029       26.371       28.399       18.706       11.798       15.113      349.932      139.191      228.401        0.153        0.036       39.219        5.040        0.017      333.314        2.549      872.224
01/07/2015  08:32:00       16.025       31.263       41.930       22.225       20.711       10.706      493.955      428.951      114.625        0.201        0.052       35.131        5.142        0.021      333.438        2.752      872.237
01/07/2015  08:33:00        7.460       32.346       37.571       16.175       23.006       18.786      261.630      529.291      352.898        0.183        0.057       33.196       11.829        0.127      333.484        2.830      872.249
01/07/2015  08:34:00       -3.072       33.506       53.900       14.013       22.108       14.219      196.372      488.763      202.169        0.246        0.044       33.647       14.511        0.186      333.567        2.965      872.255
01/07/2015  08:35:00       -3.670       12.767       32.251       10.365       20.416       13.947      107.432      416.826      194.517        0.097        0.036       13.284       10.231        0.593      333.584        2.995      872.266
01/07/2015  08:36:00       -2.153        8.410       39.639       15.455       24.967       15.692      238.859      623.361      246.241        0.138        0.055        8.682       11.735        1.827      333.627        3.067      872.279
01/07/2015  08:37:00       -7.380       24.196       53.407        7.174       20.705       14.863       51.463      428.712      220.914        0.210        0.035       25.297       14.877        0.346      333.674        3.143      872.293
01/07/2015  08:38:00        9.663       42.729       57.401       33.475       25.206       20.144     1120.570      635.338      405.779        0.369        0.108       43.808       15.879        0.131      333.498        2.852      872.283
01/07/2015  08:39:00       35.000       37.417       32.269       37.613       19.023       25.588     1414.761      361.876      654.747        0.305        0.122       51.236       23.766        0.215      333.268        2.474      872.264
01/07/2015  08:40:00       56.475       39.132       35.934       48.486       22.221       25.891     2350.921      493.773      670.337        0.476        0.176       68.708       29.298        0.182      333.320        2.557      872.244
01/07/2015  08:41:00       44.304       42.635       19.769       34.284       23.478       31.049     1175.404      551.226      964.044        0.343        0.135       61.487       18.837        0.094      333.386        2.667      872.241
01/07/2015  08:42:00       13.280       32.786       47.514       18.707       19.043       13.512      349.953      362.620      182.581        0.220        0.045       35.373       11.039        0.097      333.505        2.863      872.244
01/07/2015  08:43:00       40.696       34.919       36.249       22.958       16.434       20.525      527.050      270.079      421.261        0.270        0.061       53.624        9.683        0.033      333.419        2.722      872.262
01/07/2015  08:44:00       24.665       44.016       24.274       12.819       18.378       15.040      164.328      337.750      226.212        0.193        0.036       50.456        8.223        0.027      333.247        2.436      872.282
01/07/2015  08:45:00       -2.976       22.588       34.400       10.586       19.520       11.244      112.063      381.034      126.437        0.116        0.031       22.783       12.042        0.279      333.716        3.214      872.313
01/07/2015  08:46:00       -5.116       20.727       44.239        8.522       25.535       14.904       72.620      652.016      222.138        0.168        0.047       21.349       16.707        0.612      333.906        3.528      872.335
01/07/2015  08:47:00        3.652        2.488       23.690       22.885       17.215       17.893      523.712      296.347      320.148        0.086        0.057        4.419        9.759        4.877      333.765        3.294      872.348
01/07/2015  08:48:00       -9.594       17.944       42.012       18.570       24.126       17.579      344.828      582.079      309.024        0.171        0.062       20.347       17.541        0.743      333.869        3.466      872.354
01/07/2015  08:49:00       -5.609       19.027       47.346       11.080       21.788       12.450      122.756      474.720      155.007        0.169        0.038       19.836       12.330        0.386      333.976        3.644      872.358
01/07/2015  08:50:00      -18.224       19.579       34.076       16.179       18.388       20.288      261.753      338.128      411.602        0.144        0.051       26.748       14.090        0.277      333.785        3.327      872.360
01/07/2015  08:51:00       -8.378        8.588       49.937       18.171       26.904       16.874      330.187      723.801      284.729        0.199        0.067       11.997       15.799        1.734      333.989        3.666      872.373
01/07/2015  08:52:00       12.683       24.878       58.037       28.350       44.213       27.128      803.725     1954.770      735.950        0.382        0.175       27.925       29.781        1.137      333.768        3.299      872.383
01/07/2015  08:53:00       18.737      -29.334       35.389       25.297       37.610       30.736      639.930     1414.536      944.683        0.273        0.150       34.808       11.688        0.113      333.832        3.407      872.380
01/07/2015  08:54:00       26.962       43.407       62.357       42.013       37.570       27.028     1765.105     1411.482      730.512        0.520        0.195       51.099       22.560        0.195      333.697        3.181      872.366
01/07/2015  08:55:00       65.935       73.032       56.348       43.877       31.921       32.280     1925.152     1018.931     1041.992        0.842        0.199       98.393       20.011        0.041      333.447        2.766      872.342
01/07/2015  08:56:00       50.592       47.921       53.121       34.247       29.033       21.694     1172.885      842.937      470.634        0.508        0.124       69.685       16.765        0.058      333.552        2.941      872.315
01/07/2015  08:57:00       16.126       44.515       50.141       34.343       29.743       27.543     1179.455      884.665      758.618        0.379        0.141       47.346       22.840        0.233      333.732        3.239      872.295
01/07/2015  08:58:00       48.878       61.690       59.555       43.119       26.244       23.309     1859.230      688.767      543.292        0.642        0.155       78.706       12.328        0.025      333.625        3.062      872.287
01/07/2015  08:59:00       90.895       64.000       31.569       24.346       17.538       30.455      592.749      307.580      927.491        0.759        0.091      111.167       13.866        0.016      333.338        2.587      872.292
01/07/2015  09:00:00       50.064       54.919       36.042       32.557       19.868       27.799     1059.930      394.725      772.795        0.452        0.111       74.314       17.221        0.054      333.428        2.735      872.311
01/07/2015  09:01:00       61.686       67.566       39.842       30.211       21.618       29.197      912.694      467.350      852.478        0.609        0.112       91.489       17.991        0.039      333.501        2.856      872.324
01/07/2015  09:02:00       18.563       59.673       58.423       37.806       41.149       36.096     1429.303     1693.272     1302.903        0.587        0.221       62.494       30.717        0.242      333.749        3.268      872.332
01/07/2015  09:03:00       37.717       39.663       34.356       40.874       32.159       33.964     1670.691     1034.184     1153.579        0.402        0.193       54.733       27.603        0.254      333.624        3.062      872.345
01/07/2015  09:04:00        3.805       59.430       69.590       19.305       28.385       16.708      372.666      805.704      279.154        0.492        0.073       59.551        7.604        0.016      333.798        3.351      872.347
01/07/2015  09:05:00       30.055       40.730       32.756       26.038       25.531       23.587      677.971      651.846      556.337        0.276        0.094       50.618       13.202        0.068      333.662        3.124      872.351
01/07/2015  09:06:00       14.238       32.319       35.792       23.261       18.997       16.790      541.057      360.881      281.893        0.186        0.059       35.316        7.478        0.045      333.927        3.563      872.363
01/07/2015  09:07:00       36.134       47.809        7.686       38.942       15.910       22.433     1516.454      253.139      503.234        0.296        0.114       59.928       16.078        0.072      333.778        3.316      872.375
01/07/2015  09:08:00       26.530       43.342        3.580       27.675       22.532       20.644      765.908      507.683      426.163        0.215        0.085       50.817       14.664        0.083      333.893        3.507      872.388
01/07/2015  09:09:00       23.498       58.992        1.149       20.861       24.414       19.455      435.174      596.055      378.502        0.272        0.070       63.499       15.894        0.063      333.910        3.535      872.407
01/07/2015  09:10:00       69.030       52.402        6.578       33.154       29.746       23.046     1099.192      884.822      531.119        0.503        0.126       86.667       11.994        0.019      333.777        3.314      872.410
01/07/2015  09:11:00       57.790       67.515       -0.900       23.135       24.189       29.654      535.233      585.131      879.340        0.495        0.100       88.871       16.721        0.035      333.734        3.244      872.425
01/07/2015  09:12:00       68.173       65.462        2.431       27.831       18.453       22.200      774.552      340.531      492.823        0.527        0.080       94.513        8.505        0.008      333.749        3.268      872.434
01/07/2015  09:13:00       72.664       66.529        0.284       37.597       28.676       24.753     1413.525      822.313      612.734        0.628        0.142       98.520       20.387        0.043      333.834        3.410      872.438
01/07/2015  09:14:00       96.662       63.469        6.877       22.252       27.637       27.969      495.141      763.806      782.256        0.773        0.102      115.637       13.739        0.014      333.764        3.293      872.437
01/07/2015  09:15:00       59.739       43.927        5.937       33.981       26.576       22.826     1154.719      706.278      521.035        0.396        0.119       74.150       10.054        0.018      333.906        3.528      872.451
01/07/2015  09:16:00       42.709       57.312       -1.412       28.302       23.750       21.281      801.017      564.052      452.875        0.346        0.091       71.475        9.243        0.017      333.977        3.646      872.453
01/07/2015  09:17:00       -0.347       49.287       49.590       24.323       32.687       33.792      591.619     1068.471     1141.919        0.384        0.140       49.288       27.943        0.321      334.259        4.114      872.449
01/07/2015  09:18:00       -4.721       70.014       89.134       24.335       39.668       25.186      592.188     1573.523      634.310        0.783        0.140       70.173       25.797        0.135      334.330        4.231      872.441
01/07/2015  09:19:00        8.749       63.379       79.055       34.184       41.041       30.197     1168.532     1684.352      911.877        0.705        0.188       63.980       31.558        0.243      334.196        4.010      872.422
01/07/2015  09:20:00       34.488       62.228       78.881       50.554       44.073       30.335     2555.690     1942.412      920.237        0.835        0.271       71.146       31.690        0.198      334.064        3.789      872.402
01/07/2015  09:21:00       48.431       82.618       81.187       82.193       40.155       52.421     6755.763     1612.447     2747.923        1.344        0.556       95.767       57.967        0.366      334.040        3.751      872.396
01/07/2015  09:22:00       42.025       76.835       53.054       55.009       40.043       47.916     3026.026     1603.430     2295.953        0.870        0.346       87.578       43.232        0.244      334.105        3.858      872.393
01/07/2015  09:23:00       -5.291       55.774       95.802       36.817       41.154       19.513     1355.513     1693.631      380.767        0.787        0.171       56.024       20.221        0.130      334.341        4.250      872.383
01/07/2015  09:24:00      105.678       69.887       46.411       37.297       35.157       43.511     1391.052     1236.002     1893.200        1.136        0.226      126.696       29.364        0.054      333.859        3.451      872.384
01/07/2015  09:25:00      113.275       78.622       32.919       44.734       27.211       35.907     2001.137      740.460     1289.310        1.206        0.202      137.886       28.300        0.042      333.694        3.176      872.384
01/07/2015  09:26:00       60.399       53.890       10.475       23.787       29.210       28.956      565.842      853.239      838.458        0.446        0.113       80.946       16.198        0.040      333.842        3.423      872.391
01/07/2015  09:27:00       69.350       76.509       47.859       51.909       31.219       43.898     2694.593      974.622     1927.029        0.927        0.280      103.262       34.760        0.113      334.120        3.882      872.396
01/07/2015  09:28:00       73.723       79.612       58.482       39.043       34.731       36.402     1524.357     1206.230     1325.104        0.962        0.203      108.504       29.081        0.072      333.987        3.662      872.404
01/07/2015  09:29:00       35.722      134.071      121.223       43.812       43.822       32.093     1919.498     1920.355     1029.952        1.941        0.243      138.748       28.686        0.043      334.047        3.759      872.389
01/07/2015  09:30:00       59.026      125.949      106.741       52.018       36.332       35.825     2705.921     1320.011     1283.417        1.802        0.265      139.095       29.397        0.045      334.040        3.751      872.379
01/07/2015  09:31:00        6.983       51.159       77.702       41.015       47.183       38.830     1682.195     2226.229     1507.752        0.706        0.271       51.633       35.066        0.461      334.218        4.045      872.367
01/07/2015  09:32:00       38.774       56.514       67.658       54.778       53.893       46.961     3000.577     2904.406     2205.354        0.869        0.406       68.537       45.708        0.445      334.210        4.031      872.364
01/07/2015  09:33:00       45.602       84.875       69.157       53.396       35.106       40.042     2851.114     1232.441     1603.326        0.988        0.284       96.350       39.007        0.164      334.008        3.696      872.380
01/07/2015  09:34:00       35.672       63.954       63.289       50.973       33.211       35.341     2598.201     1102.957     1248.992        0.716        0.248       73.229       33.906        0.214      334.221        4.051      872.398
01/07/2015  09:35:00       -5.679        8.959       32.168       33.575       34.076       18.947     1127.279     1161.171      359.001        0.190        0.132       10.607        9.237        0.758      334.414        4.372      872.419
01/07/2015  09:36:00      -13.455       20.892       50.217       17.592       41.258       35.303      309.474     1702.201     1246.281        0.320        0.163       24.850       32.978        1.761      334.609        4.695      872.426
01/07/2015  09:37:00       16.874       38.805       54.378       30.689       29.495       20.776      941.794      869.968      431.657        0.350        0.112       42.315       14.783        0.122      334.415        4.372      872.419
01/07/2015  09:38:00       19.477        5.780       18.990       38.056       32.405       37.637     1448.291     1050.083     1416.577        0.234        0.196       20.316       25.799        1.613      334.246        4.094      872.427
01/07/2015  09:39:00       15.118       39.377       39.637       21.896       20.990       19.287      479.441      440.589      371.993        0.232        0.065       42.179       12.633        0.090      334.437        4.409      872.426
01/07/2015  09:40:00       52.477       30.685        6.500       28.193       20.759       28.083      794.855      430.933      788.639        0.288        0.101       60.790       14.689        0.058      334.045        3.759      872.432
01/07/2015  09:41:00       64.491       58.279       35.591       31.661       20.087       24.437     1002.442      403.477      597.169        0.541        0.100       86.923       12.728        0.021      334.243        4.087      872.433
01/07/2015  09:42:00       44.711       61.174       45.227       43.787       29.765       29.568     1917.299      885.932      874.248        0.573        0.184       75.771       16.445        0.047      334.308        4.195      872.444
01/07/2015  09:43:00       11.087       38.956       60.894       28.227       51.717       36.006      796.780     2674.698     1296.398        0.506        0.238       40.503       35.583        0.772      334.717        4.875      872.456
01/07/2015  09:44:00       30.564       40.533       58.106       31.330       26.489       23.172      981.576      701.664      536.946        0.409        0.111       50.766       21.290        0.176      334.419        4.378      872.464
01/07/2015  09:45:00       53.995       47.601       55.002       45.774       33.905       29.301     2095.273     1149.563      858.559        0.615        0.205       71.981       26.641        0.137      334.286        4.158      872.466
01/07/2015  09:46:00       66.671       87.944       33.296       46.773       30.412       42.561     2187.732      924.863     1811.413        0.910        0.246      110.359       37.434        0.115      334.112        3.870      872.467
01/07/2015  09:47:00       92.830       99.650       61.959       54.329       49.392       49.680     2951.671     2439.564     2468.071        1.512        0.393      136.189       43.537        0.102      334.250        4.100      872.460
01/07/2015  09:48:00       22.583       51.994       69.175       28.713       39.567       17.633      824.432     1565.579      310.938        0.535        0.135       56.687       10.904        0.037      334.558        4.612      872.459
01/07/2015  09:49:00       69.111       78.137       54.612       36.349       29.252       31.509     1321.226      855.673      992.835        0.852        0.158      104.315       24.134        0.054      334.300        4.181      872.455
01/07/2015  09:50:00       40.525       86.760       64.615       50.696       44.678       45.918     2570.078     1996.145     2108.452        1.001        0.334       95.758       42.063        0.193      334.346        4.259      872.439
01/07/2015  09:51:00       68.277       70.419       54.164       43.936       38.334       36.649     1930.406     1469.505     1343.164        0.865        0.237       98.084       25.096        0.065      334.292        4.169      872.420
01/07/2015  09:52:00       70.307       61.917       46.100       26.357       20.875       29.709      694.702      435.760      882.644        0.646        0.101       93.684       14.678        0.025      334.243        4.087      872.419
01/07/2015  09:53:00       48.903       11.218       -2.094       28.442       53.662       20.631      808.951     2879.592      425.623        0.332        0.206       50.174       17.719        0.125      334.189        3.999      872.419
01/07/2015  09:54:00       63.805        7.309       33.049       38.626       37.469       31.915     1491.987     1403.959     1018.585        0.456        0.196       64.222       32.896        0.262      334.520        4.546      872.424
01/07/2015  09:55:00       11.111       57.594       66.984       35.821       40.504       37.543     1283.179     1640.560     1409.478        0.613        0.217       58.656       32.527        0.308      334.727        4.890      872.410
01/07/2015  09:56:00       73.469       82.155       60.308       57.529       34.790       32.834     3309.639     1210.333     1078.048        1.069        0.280      110.214       11.855        0.012      334.551        4.598      872.402
01/07/2015  09:57:00       81.494       74.343       54.051       53.472       40.760       37.750     2859.307     1661.339     1425.073        1.052        0.297      110.309       24.564        0.050      334.589        4.662      872.387
01/07/2015  09:58:00       61.346       54.063       53.346       32.833       24.411       20.438     1078.008      595.888      417.729        0.581        0.105       81.769       15.711        0.037      334.460        4.449      872.365
01/07/2015  09:59:00       27.314       38.318       58.524       39.060       37.184       28.828     1525.681     1382.630      831.064        0.469        0.187       47.056       28.040        0.355      334.725        4.886      872.348
01/07/2015  10:00:00       -1.927       42.846       73.456       32.947       51.750       28.910     1085.502     2678.089      835.810        0.592        0.230       42.889       31.339        0.534      335.021        5.379      872.333
01/07/2015  10:01:00       38.937       62.913        5.719       43.122       35.306       34.376     1859.540     1246.497     1181.718        0.490        0.214       73.987       20.200        0.075      334.700        4.848      872.339
01/07/2015  10:02:00        4.610       50.678       69.959       29.144       37.102       21.399      849.374     1376.578      457.929        0.508        0.134       50.888       20.117        0.156      335.092        5.495      872.338
01/07/2015  10:03:00       28.640        9.610       30.105       31.055       62.193       35.866      964.400     3867.916     1286.389        0.397        0.306       30.209       33.425        1.224      334.886        5.154      872.333
01/07/2015  10:04:00       18.754        3.881       25.501       37.816       53.446       39.834     1430.017     2856.485     1586.769        0.344        0.294       19.151       36.075        3.548      335.084        5.484      872.304
01/07/2015  10:05:00       25.350       13.862       39.491       29.683       27.097       22.463      881.065      734.254      504.597        0.226        0.106       28.892       18.648        0.417      334.967        5.288      872.301
01/07/2015  10:06:00       10.266       55.143       55.965       34.113       27.208       30.454     1163.676      740.277      927.435        0.455        0.142       56.091       17.449        0.097      335.245        5.751      872.276
01/07/2015  10:07:00       68.727       11.080       30.021       39.746       53.673       36.595     1579.756     2880.743     1339.169        0.577        0.290       69.615       32.055        0.212      334.989        5.325      872.277
01/07/2015  10:08:00       47.637       68.612       16.688       62.530       46.163       31.175     3909.982     2131.060      971.862        0.713        0.351       83.527       21.089        0.064      335.113        5.533      872.265
01/07/2015  10:09:00       60.409       66.571       41.725       47.167       47.245       38.790     2224.701     2232.087     1504.638        0.789        0.298       89.894       27.595        0.094      335.140        5.578      872.266
01/07/2015  10:10:00       56.567       52.803       44.388       40.833       33.004       35.594     1667.303     1089.236     1266.960        0.599        0.201       77.382       16.423        0.045      335.151        5.595      872.254
01/07/2015  10:11:00      119.142       89.992       34.823       42.252       31.800       43.696     1785.271     1011.234     1909.375        1.410        0.235      149.309       20.675        0.019      334.857        5.106      872.245
01/07/2015  10:12:00       45.286       61.314       46.458       45.062       31.476       20.592     2030.584      990.719      424.025        0.571        0.172       76.225       15.558        0.042      335.236        5.736      872.249
01/07/2015  10:13:00       46.442       54.360       17.404       40.063       29.890       32.549     1605.038      893.420     1059.406        0.449        0.178       71.497       22.805        0.102      335.048        5.424      872.249
01/07/2015  10:14:00        6.605       37.143       46.722       38.127       46.805       32.546     1453.704     2190.749     1059.253        0.415        0.235       37.726       29.767        0.623      335.395        6.001      872.243
01/07/2015  10:15:00       29.230      -27.316       21.535       38.272       55.291       39.041     1464.778     3057.119     1524.233        0.405        0.302       40.007       40.353        1.017      335.105        5.518      872.245
01/07/2015  10:16:00       42.886       50.562       55.153       31.823       35.959       21.864     1012.674     1293.029      478.022        0.511        0.139       66.300       14.836        0.050      335.126        5.553      872.238
01/07/2015  10:17:00       63.941       61.728       27.810       48.067       40.895       39.929     2310.469     1672.431     1594.340        0.712        0.279       88.875       31.705        0.127      334.898        5.174      872.240
01/07/2015  10:18:00       60.804      100.275       78.355       39.006       37.458       37.767     1521.448     1403.098     1426.370        1.212        0.218      117.270       25.429        0.047      334.982        5.314      872.222
01/07/2015  10:19:00       88.195       33.752       14.163       33.968       27.631       33.536     1153.838      763.449     1124.689        0.608        0.152       94.433       15.897        0.028      334.964        5.284      872.218
01/07/2015  10:20:00       78.096       32.659       12.064       34.534       32.076       30.935     1192.567     1028.871      956.993        0.524        0.159       84.650        6.919        0.007      334.856        5.105      872.198
01/07/2015  10:21:00       55.458       44.342       31.539       40.820       33.193       30.837     1666.309     1101.746      950.930        0.488        0.186       71.006       22.234        0.098      335.217        5.705      872.173
01/07/2015  10:22:00       29.718       42.425       47.398       39.137       35.962       30.747     1531.728     1293.257      945.368        0.435        0.189       51.798       22.806        0.194      335.390        5.992      872.163
01/07/2015  10:23:00       26.460       17.344       27.717       30.574       32.308       32.441      934.784     1043.809     1052.419        0.240        0.152       31.638       21.914        0.480      335.223        5.713      872.160
01/07/2015  10:24:00       -2.883       14.019       31.004       33.712       46.284       25.341     1136.520     2142.197      642.186        0.254        0.196       14.313       18.535        1.677      335.690        6.491      872.151
01/07/2015  10:25:00       59.141       48.213       51.407       50.636       50.897       40.900     2564.019     2590.543     1672.847        0.764        0.341       76.303       31.043        0.166      335.324        5.883      872.135
01/07/2015  10:26:00       52.013       69.133       40.600       34.802       27.816       36.084     1211.160      773.724     1302.043        0.621        0.164       86.514       25.400        0.086      335.034        5.398      872.118
01/07/2015  10:27:00        3.564      -17.210       23.367       22.464       25.634       17.880      504.615      657.079      319.711        0.117        0.074       17.575       13.872        0.623      335.584        6.315      872.088
01/07/2015  10:28:00       75.803       70.923        0.076       62.325       45.698       30.497     3884.422     2088.319      930.083        0.884        0.345      103.808       26.326        0.064      335.400        6.008      872.079
01/07/2015  10:29:00       53.496       60.750       24.902       52.471       50.290       35.852     2753.225     2529.054     1285.361        0.687        0.328       80.946       27.398        0.115      335.345        5.917      872.065
01/07/2015  10:30:00       11.993       39.110       11.820       32.775       44.590       26.418     1074.212     1988.256      697.910        0.279        0.188       40.907       19.432        0.226      335.586        6.320      872.077
01/07/2015  10:31:00        7.781       50.500       66.271       25.178       35.065       27.182      633.926     1229.589      738.877        0.480        0.130       51.096       21.896        0.184      335.779        6.640      872.074
01/07/2015  10:32:00       22.876       45.949       60.654       50.794       36.211       38.832     2580.052     1311.239     1507.924        0.586        0.270       51.329       32.083        0.391      335.816        6.701      872.076
01/07/2015  10:33:00       48.300       76.435       33.297       58.026       50.039       54.626     3366.992     2503.934     2984.017        0.907        0.443       90.417       41.271        0.208      335.690        6.492      872.066
01/07/2015  10:34:00       69.761       63.042       18.704       50.819       34.192       36.031     2582.554     1169.060     1298.266        0.712        0.252       94.027       29.499        0.098      335.534        6.231      872.064
01/07/2015  10:35:00       11.664       65.284       83.796       36.430       41.561       32.582     1327.181     1727.301     1061.594        0.777        0.206       66.318       21.978        0.110      335.755        6.600      872.051
01/07/2015  10:36:00       27.955       44.483       37.962       43.331       31.861       44.632     1877.588     1015.126     1991.987        0.454        0.244       52.538       36.396        0.480      335.452        6.095      872.040
01/07/2015  10:37:00       24.921       41.412       38.266       37.270       27.607       38.776     1389.076      762.160     1503.556        0.373        0.183       48.332       32.744        0.459      335.625        6.384      872.025
01/07/2015  10:38:00       55.826       55.986        0.401       37.559       27.740       22.829     1410.669      769.518      521.152        0.448        0.135       79.063       14.079        0.032      335.616        6.368      872.011
01/07/2015  10:39:00       53.341       81.553       48.287       39.866       42.069       46.669     1589.286     1769.785     2177.980        0.868        0.277       97.448       25.986        0.071      335.720        6.542      871.982
01/07/2015  10:40:00       28.562       43.384       65.322       32.278       28.461       22.792     1041.854      810.005      519.496        0.467        0.119       51.941        9.698        0.035      335.491        6.160      871.972
01/07/2015  10:41:00       11.726      -27.624       44.635       26.750       51.564       29.610      715.541     2658.869      876.731        0.357        0.213       30.010       17.895        0.356      335.859        6.772      871.960
01/07/2015  10:42:00       22.887      -21.518       25.098       26.301       30.961       28.394      691.744      958.608      806.209        0.204        0.123       31.414       22.014        0.491      335.683        6.481      871.975
01/07/2015  10:43:00       17.789        2.700       44.869       31.940       54.626       30.898     1020.153     2984.001      954.713        0.365        0.248       17.993       33.751        3.518      336.041        7.079      871.974
01/07/2015  10:44:00       29.014       74.705       80.118       37.963       49.536       27.304     1441.226     2453.842      745.529        0.874        0.232       80.141       27.281        0.116      335.971        6.961      871.958
01/07/2015  10:45:00       47.927       96.583       95.314       46.860       47.201       24.081     2195.880     2227.962      579.875        1.286        0.250      107.820       25.530        0.056      335.733        6.563      871.945
01/07/2015  10:46:00       49.327      108.472      103.210       45.526       37.862       26.868     2072.654     1433.539      721.884        1.454        0.211      119.161       18.032        0.023      335.486        6.151      871.926
01/07/2015  10:47:00      113.844       93.151       44.738       45.746       24.759       30.522     2092.663      613.001      931.612        1.364        0.182      147.097       24.415        0.028      335.294        5.832      871.922
01/07/2015  10:48:00       32.546       28.587       64.908       36.270       24.942       22.582     1315.531      622.123      509.946        0.427        0.122       43.318       16.664        0.148      335.799        6.673      871.907
01/07/2015  10:49:00       25.321       35.311       29.538       18.629       17.818       21.069      347.024      317.472      443.883        0.193        0.055       43.451       13.042        0.090      335.665        6.450      871.900
01/07/2015  10:50:00       14.932       40.322        0.629       22.747       29.161       24.296      517.422      850.337      590.283        0.190        0.098       42.998       15.282        0.126      335.845        6.749      871.880
01/07/2015  10:51:00       51.069       73.122       -6.692       49.645       47.932       33.236     2464.671     2297.436     1104.644        0.693        0.293       89.190       22.730        0.065      335.834        6.732      871.857
01/07/2015  10:52:00      121.653       84.583       11.375       51.614       40.717       39.352     2663.993     1657.890     1548.594        1.398        0.294      148.168       29.065        0.038      335.679        6.474      871.840
01/07/2015  10:53:00       71.480       52.119       18.096       36.058       33.081       33.512     1300.198     1094.383     1123.071        0.583        0.176       88.463       24.478        0.077      335.667        6.454      871.827
01/07/2015  10:54:00        1.017       34.468       57.631       44.199       48.503       34.165     1953.520     2352.499     1167.278        0.499        0.274       34.483       20.157        0.342      336.378        7.639      871.822
01/07/2015  10:55:00        9.402       16.490       51.206       30.186       36.904       30.771      911.180     1361.879      946.866        0.310        0.161       18.982       25.332        1.781      336.423        7.714      871.800
01/07/2015  10:56:00       53.811      -15.928       27.801       47.873       76.653       46.322     2291.787     5875.713     2145.715        0.712        0.516       56.119       51.896        0.855      336.053        7.096      871.787
01/07/2015  10:57:00        3.366       20.600       50.713       29.931       41.506       36.948      895.883     1722.760     1365.131        0.349        0.199       20.873       16.693        0.640      336.395        7.668      871.777
01/07/2015  10:58:00       35.961      -50.348        9.096       28.663       47.879       24.557      821.551     2292.381      603.026        0.381        0.186       61.871       19.048        0.095      336.052        7.095      871.771
01/07/2015  10:59:00       -1.836       12.236       36.979       16.282       21.797       15.386      265.094      475.095      236.723        0.125        0.049       12.373       10.888        0.774      336.713        8.200      871.756
01/07/2015  11:00:00      -11.574        8.011       20.007       20.790       23.743       17.674      432.220      563.750      312.374        0.095        0.065       14.076        8.908        0.401      336.652        8.099      871.751
01/07/2015  11:01:00       50.293       47.678       17.858       32.461       19.385       16.278     1053.734      375.761      264.968        0.341        0.085       69.301       12.590        0.033      336.093        7.165      871.722
01/07/2015  11:02:00       33.555       28.521       27.599       48.651       64.160       23.343     2366.917     4116.539      544.895        0.486        0.351       44.039       25.232        0.328      336.228        7.389      871.701
01/07/2015  11:03:00        4.360      -24.240       48.676       32.547       50.491       30.944     1059.297     2549.327      957.560        0.377        0.228       24.629       28.319        1.322      336.480        7.810      871.685
01/07/2015  11:04:00        8.341       34.668       46.205       26.084       34.787       27.658      680.359     1210.108      764.979        0.303        0.133       35.657       16.171        0.206      336.416        7.704      871.677
01/07/2015  11:05:00       11.184      -20.708       15.385       27.244       50.474       27.159      742.220     2547.608      737.613        0.241        0.201       23.535       33.068        1.974      336.551        7.929      871.688
01/07/2015  11:06:00       79.477       40.124       16.364       55.815       40.368       27.988     3115.345     1629.549      783.323        0.686        0.276       89.031       23.781        0.071      336.163        7.280      871.691
01/07/2015  11:07:00       69.684       65.185       -0.523       42.773       27.090       29.205     1829.533      733.892      852.912        0.626        0.171       95.420       19.136        0.040      335.913        6.863      871.693
01/07/2015  11:08:00       24.161       56.214       32.494       41.861       33.806       40.383     1752.351     1142.845     1630.747        0.466        0.226       61.186       20.400        0.111      336.307        7.521      871.673
01/07/2015  11:09:00       64.510       25.154       49.763       45.837       51.622       36.931     2101.008     2664.809     1363.889        0.670        0.306       69.241       36.041        0.271      336.149        7.257      871.655
01/07/2015  11:10:00       68.978       61.888       32.378       50.118       31.096       38.267     2511.851      966.962     1464.331        0.729        0.247       92.672       34.797        0.141      336.240        7.408      871.626
01/07/2015  11:11:00       71.505       75.088        6.155       31.038       31.690       28.408      963.377     1004.232      806.990        0.678        0.139      103.688       20.874        0.041      336.091        7.160      871.605
01/07/2015  11:12:00       36.998       18.660       38.678       32.214       48.411       32.396     1037.723     2343.599     1049.495        0.382        0.222       41.437       13.360        0.104      336.482        7.814      871.582
01/07/2015  11:13:00       55.843       42.407       60.502       42.153       40.669       26.627     1776.902     1653.929      708.988        0.636        0.207       70.119       27.336        0.152      336.327        7.554      871.567
01/07/2015  11:14:00       39.919       -1.886       26.089       32.465       40.001       26.245     1053.984     1600.094      688.798        0.281        0.167       39.963       21.500        0.289      336.372        7.629      871.547
01/07/2015  11:15:00       42.960       -3.141       41.406       34.935       67.241       38.522     1220.442     4521.408     1483.966        0.540        0.361       43.075       40.239        0.873      336.365        7.617      871.524
01/07/2015  11:16:00       18.562       17.861       27.529       34.635       42.325       29.585     1199.588     1791.394      875.273        0.264        0.193       25.760       30.416        1.394      336.453        7.764      871.501
01/07/2015  11:17:00       18.003       39.136        9.314       28.966       17.620       14.526      839.043      310.478      211.014        0.165        0.068       43.079        3.928        0.008      336.471        7.795      871.467
01/07/2015  11:18:00       56.818       42.895        0.396       32.597       29.892       24.736     1062.571      893.549      611.873        0.382        0.128       71.192       11.098        0.024      336.619        8.043      871.448
01/07/2015  11:19:00       53.865       37.498       11.383       24.366       25.355       21.796      593.693      642.895      475.070        0.307        0.086       65.632       14.262        0.047      336.924        8.552      871.424
01/07/2015  11:20:00       33.014       38.325       12.978       39.915       31.529       34.514     1593.190      994.062     1191.232        0.325        0.189       50.584       28.140        0.309      336.960        8.611      871.412
01/07/2015  11:21:00       84.059       87.893       24.335       48.997       38.832       34.239     2400.677     1507.908     1172.327        1.023        0.254      121.618       24.205        0.040      336.816        8.370      871.412
01/07/2015  11:22:00       42.727       78.166        2.860       28.596       37.264       30.996      817.737     1388.572      960.729        0.555        0.158       89.082       22.192        0.062      336.472        7.797      871.407
01/07/2015  11:23:00       70.631       59.663        7.410       34.117       31.386       32.743     1163.999      985.096     1072.083        0.591        0.161       92.457       23.916        0.067      336.444        7.748      871.401
01/07/2015  11:24:00       57.621       64.439       25.255       35.911       38.583       30.391     1289.596     1488.679      923.627        0.591        0.185       86.444       14.826        0.029      336.620        8.044      871.366
01/07/2015  11:25:00       17.444       -1.584       36.886       32.574       49.375       31.539     1061.065     2437.892      994.724        0.308        0.225       17.515        9.195        0.276      336.971        8.631      871.339
01/07/2015  11:26:00       11.790        0.601       66.729       28.688       67.101       30.122      822.989     4502.547      907.353        0.541        0.312       11.805       37.284        9.975      336.997        8.675      871.303
01/07/2015  11:27:00       34.482      -26.520       38.611       37.497       40.361       33.179     1405.998     1628.990     1100.827        0.376        0.207       43.501       26.762        0.378      336.811        8.363      871.298
01/07/2015  11:28:00       31.325        9.881       50.523       32.815       37.213       24.548     1076.832     1384.813      602.624        0.335        0.153       32.847       22.144        0.454      336.934        8.568      871.264
01/07/2015  11:29:00       17.263       59.094       73.095       27.317       42.096       22.985      746.229     1772.043      528.303        0.609        0.152       61.564       27.146        0.194      336.970        8.630      871.229
01/07/2015  11:30:00       25.429       43.378       26.607       33.439       36.670       26.599     1118.137     1344.680      707.531        0.320        0.159       50.282       14.709        0.086      336.609        8.026      871.218
01/07/2015  11:31:00      -59.658       -3.718      -11.639       15.592       11.550       19.548      243.108      133.404      382.118        0.223        0.038       59.774        9.729        0.026      336.484        7.817      871.203
01/07/2015  11:32:00       -3.162      -26.302       -4.026       34.684       37.734       21.485     1202.960     1423.818      461.587        0.190        0.154       26.492       23.024        0.755      336.500        7.844      871.193
01/07/2015  11:33:00      -13.315       -8.030       18.224       14.913       22.480       12.194      222.398      505.366      148.685        0.072        0.044       15.549       10.585        0.463      337.421        9.384      871.170
01/07/2015  11:34:00      -39.434      -43.487        7.979       22.941       38.866       27.783      526.299     1510.538      771.897        0.316        0.140       58.704       21.287        0.131      336.798        8.342      871.160
01/07/2015  11:35:00      -14.497      -17.328       14.988       25.892       47.706       25.606      670.419     2275.877      655.690        0.217        0.180       22.593       27.410        1.472      337.059        8.780      871.132
01/07/2015  11:36:00        7.470      -20.348       40.857       29.442       48.859       28.117      866.837     2387.194      790.548        0.309        0.202       21.676       30.285        1.952      337.259        9.114      871.116
01/07/2015  11:37:00       74.379       45.862       21.986       42.175       30.337       40.365     1778.741      920.361     1629.370        0.622        0.216       87.382       23.245        0.071      336.813        8.367      871.089
01/07/2015  11:38:00       16.885       10.011       10.037       28.942       49.138       18.913      837.667     2414.584      357.704        0.205        0.180       19.630       19.979        1.036      336.961        8.614      871.067
01/07/2015  11:39:00       45.113       64.156       20.816       44.174       43.450       28.385     1951.353     1887.913      805.736        0.561        0.232       78.429       22.998        0.086      337.255        9.106      871.037
01/07/2015  11:40:00       53.179       52.144        9.379       32.760       22.401       35.174     1073.216      501.811     1237.177        0.422        0.141       74.478       14.885        0.040      337.096        8.840      871.016
01/07/2015  11:41:00       64.735       43.072       21.646       46.234       37.729       29.179     2137.545     1423.450      851.432        0.546        0.221       77.755       12.609        0.026      337.110        8.863      871.016
01/07/2015  11:42:00       38.986       42.678       46.851       47.349       30.716       34.935     2241.938      943.486     1220.451        0.497        0.220       57.804       15.681        0.074      337.167        8.956      870.999
01/07/2015  11:43:00       77.220       70.640       25.330       62.536       29.659       43.486     3910.771      879.633     1891.051        0.914        0.334      104.656       47.354        0.205      336.931        8.564      870.989
01/07/2015  11:44:00       59.892       62.942       17.686       22.258       15.592       19.293      495.418      243.104      372.205        0.449        0.056       86.884        9.635        0.012      336.638        8.075      870.983
01/07/2015  11:45:00        8.839       51.335       -4.350       17.626       12.753       20.480      310.686      162.641      419.450        0.181        0.045       52.091        9.283        0.032      336.833        8.401      870.982
01/07/2015  11:46:00      -14.861       43.172       -7.060       21.585       25.493       21.433      465.909      649.873      459.393        0.185        0.079       45.658        9.944        0.047      336.893        8.500      870.974
01/07/2015  11:47:00      -12.516       68.571      -18.982       22.677       19.002       12.548      514.229      361.060      157.449        0.313        0.052       69.704       12.049        0.030      336.911        8.530      870.961
01/07/2015  11:48:00      -21.128       77.647        0.128       25.229       37.247       20.620      636.506     1387.328      425.187        0.446        0.122       80.470        8.274        0.011      337.266        9.125      870.957
01/07/2015  11:49:00      -17.859       36.664       18.763       22.506       35.385       23.284      506.511     1252.113      542.161        0.216        0.115       40.782       21.083        0.267      337.786        9.996      870.948
01/07/2015  11:50:00      -22.667       33.136       -0.147       22.613       22.015       21.487      511.345      484.680      461.701        0.153        0.073       40.147       15.263        0.145      337.578        9.647      870.940
01/07/2015  11:51:00      -17.690       23.453       11.660       18.651       33.345       17.242      347.869     1111.877      297.290        0.138        0.088       29.376       11.113        0.143      337.582        9.654      870.912
01/07/2015  11:52:00        1.051       76.287       -7.685       26.720       47.702       20.639      713.942     2275.496      425.976        0.465        0.171       76.294        9.770        0.016      337.261        9.116      870.883
01/07/2015  11:53:00       -7.241       69.657       -0.607       23.119       55.436       26.162      534.475     3073.107      684.456        0.460        0.215       70.032       27.816        0.158      337.427        9.394      870.864
01/07/2015  11:54:00       71.516       53.955       22.333       31.756       26.077       34.469     1008.459      679.985     1188.119        0.570        0.144       89.586       17.429        0.038      337.154        8.936      870.841
01/07/2015  11:55:00       24.957       22.106       17.187       36.068       25.668       20.560     1300.899      658.863      422.728        0.189        0.119       33.339       15.165        0.207      337.717        9.881      870.822
01/07/2015  11:56:00      -18.716       -7.789       45.228       38.498       76.695       37.892     1482.131     5882.098     1435.835        0.563        0.440       20.272       32.251        2.531      337.803       10.024      870.788
01/07/2015  11:57:00       95.178       86.249       43.558       74.844       38.680       55.487     5601.639     1496.166     3078.772        1.428        0.509      128.443       49.382        0.148      337.360        9.281      870.765
01/07/2015  11:58:00       65.650       75.326       45.243       61.922       55.942       45.639     3834.288     3129.549     2082.901        1.054        0.452       99.920       30.143        0.091      337.704        9.859      870.733
01/07/2015  11:59:00      139.079       89.946        8.714       53.125       57.182       41.356     2822.259     3269.819     1710.338        1.765        0.390      165.630       25.748        0.024      337.214        9.037      870.723
01/07/2015  12:00:00      126.907       65.008       20.046       57.301       42.285       30.948     3283.414     1788.038      957.751        1.338        0.301      142.589       19.626        0.019      337.167        8.958      870.698
01/07/2015  12:01:00      118.132       73.757       30.984       63.175       53.176       50.060     3991.143     2827.725     2505.974        1.484        0.466      139.267       44.863        0.104      337.426        9.393      870.689
01/07/2015  12:02:00       96.536       85.183       32.972       45.405       32.758       33.609     2061.572     1073.102     1129.582        1.096        0.213      128.745       16.553        0.017      337.298        9.178      870.683
01/07/2015  12:03:00       36.470       79.781       69.625       48.004       47.403       38.968     2304.337     2246.998     1518.507        0.931        0.303       87.722       26.771        0.093      337.649        9.766      870.680
01/07/2015  12:04:00       80.192       69.008       39.992       50.374       44.603       50.903     2537.550     1989.407     2591.077        0.995        0.356      105.797       27.596        0.068      337.446        9.426      870.674
01/07/2015  12:05:00       85.592       80.519       40.613       58.436       37.829       43.353     3414.760     1430.998     1879.525        1.109        0.336      117.513       23.013        0.038      337.186        8.989      870.658
01/07/2015  12:06:00        8.771       44.702       66.365       43.322       75.909       51.883     1876.821     5762.246     2691.839        0.840        0.517       45.554       35.028        0.591      337.534        9.572      870.651
01/07/2015  12:07:00       31.394       56.501       81.438       49.678       59.807       41.436     2467.876     3576.837     1716.909        0.928        0.388       64.637       46.946        0.528      337.550        9.599      870.631
01/07/2015  12:08:00       19.455        2.024       47.160       35.480       55.782       34.169     1258.862     3111.637     1167.502        0.407        0.277       19.560       39.293        4.036      337.709        9.868      870.614
01/07/2015  12:09:00        9.200       88.882       -5.196       30.027       33.645       28.637      901.591     1132.012      820.063        0.543        0.143       89.357        9.024        0.010      337.468        9.461      870.592
01/07/2015  12:10:00       -5.710       87.922      -22.203       29.188       38.323       16.523      851.945     1468.629      273.022        0.542        0.130       88.107       15.366        0.030      337.166        8.957      870.564
01/07/2015  12:11:00      -13.950       15.347        3.072       20.494       31.846       19.189      420.000     1014.178      368.225        0.112        0.090       20.740       22.392        1.166      337.726        9.893      870.547
01/07/2015  12:12:00       22.607       33.022       13.286       41.132       31.983       28.514     1691.801     1022.932      813.071        0.265        0.176       40.019       19.916        0.248      337.728        9.898      870.517
01/07/2015  12:13:00        7.050       22.666       50.033       26.243       35.980       22.322      688.709     1294.552      498.258        0.277        0.124       23.737       22.375        0.888      337.918       10.217      870.504
01/07/2015  12:14:00        5.344       26.683       40.595       33.713       26.597       25.517     1136.569      707.379      651.131        0.244        0.125       27.213       20.534        0.569      338.077       10.484      870.488
01/07/2015  12:15:00        0.882       71.284       87.548       35.715       44.925       44.354     1275.526     2018.212     1967.317        0.900        0.263       71.290       34.043        0.228      337.935       10.246      870.455
01/07/2015  12:16:00       67.066      119.814      106.954       78.070       45.232       50.796     6094.897     2045.964     2580.270        2.050        0.536      137.307       53.350        0.151      337.619        9.716      870.429
01/07/2015  12:17:00       50.596       54.828       43.120       59.518       38.721       26.289     3542.433     1499.335      691.089        0.658        0.287       74.606       20.129        0.073      337.729        9.902      870.423
01/07/2015  12:18:00        9.725       35.252       35.129       54.193       46.110       34.466     2936.858     2126.160     1187.928        0.441        0.313       36.569       34.905        0.911      338.096       10.517      870.385
01/07/2015  12:19:00       32.211      101.660      -19.939       39.783       46.880       32.602     1582.665     2197.709     1062.875        0.831        0.242      106.641       28.446        0.071      337.728        9.898      870.364
01/07/2015  12:20:00       78.914       39.490        6.711       54.142       42.790       32.351     2931.383     1831.012     1046.576        0.682        0.290       88.243       18.620        0.045      337.663        9.789      870.355
01/07/2015  12:21:00       84.784       53.065        2.137       59.321       37.476       33.484     3519.001     1404.435     1121.149        0.803        0.302      100.021       20.896        0.044      337.700        9.852      870.339
01/07/2015  12:22:00       59.511       37.577       20.658       53.260       62.685       33.764     2836.588     3929.440     1140.010        0.664        0.395       70.382       21.068        0.090      337.685        9.826      870.334
01/07/2015  12:23:00       45.527       10.779       19.220       23.551       41.294       21.809      554.628     1705.208      475.623        0.265        0.137       46.785       13.209        0.080      337.794       10.009      870.334
01/07/2015  12:24:00        3.933       43.063       60.286       27.333       40.289       26.091      747.096     1623.208      680.741        0.428        0.153       43.243       19.495        0.203      338.152       10.609      870.319
01/07/2015  12:25:00       -2.594       32.706       73.866       19.700       37.120       24.726      388.105     1377.906      611.362        0.445        0.119       32.808       23.966        0.534      338.105       10.530      870.306
01/07/2015  12:26:00       11.830       56.692       73.513       38.021       38.001       30.654     1445.571     1444.047      939.647        0.629        0.191       57.913       25.051        0.187      338.171       10.642      870.292
01/07/2015  12:27:00       28.152       96.280       -2.686       38.246       45.102       37.722     1462.750     2034.210     1422.976        0.749        0.246      100.312       30.859        0.095      337.719        9.883      870.270
01/07/2015  12:28:00       -8.750       12.919      -14.106       26.427       17.880       11.359      698.373      319.698      129.021        0.079        0.057       15.604        6.417        0.169      337.755        9.943      870.256
01/07/2015  12:29:00       31.496       71.094       -9.845       37.118       63.393       26.393     1377.780     4018.701      696.580        0.612        0.305       77.758        8.171        0.011      337.773        9.973      870.236
01/07/2015  12:30:00       46.662       53.306        9.882       48.452       48.884       33.563     2347.588     2389.600     1126.446        0.549        0.293       70.844       23.534        0.110      337.954       10.277      870.213
01/07/2015  12:31:00       57.892       65.670       22.401       50.075       29.911       32.335     2507.504      894.678     1045.555        0.631        0.222       87.545       29.714        0.115      337.941       10.255      870.208
01/07/2015  12:32:00      108.416       56.028       14.837       25.892       21.514       28.937      670.399      462.865      837.377        0.854        0.099      122.038       14.487        0.014      337.695        9.843      870.213
01/07/2015  12:33:00       45.797       66.074       35.942       42.402       33.712       24.868     1797.921     1136.500      618.405        0.565        0.178       80.394       13.277        0.027      337.729        9.899      870.205
01/07/2015  12:34:00        4.860       -6.759       44.109       16.232       41.606       19.491      263.487     1731.041      379.897        0.219        0.119        8.325       19.548        5.514      338.113       10.544      870.204
01/07/2015  12:35:00        1.648      -46.045        1.677       10.446       14.587       20.860      109.122      212.773      435.148        0.144        0.038       46.074        6.457        0.020      337.745        9.926      870.197
01/07/2015  12:36:00       52.000       32.129       41.271       35.044       48.494       35.768     1228.049     2351.704     1279.316        0.515        0.243       61.125       29.318        0.230      338.093       10.510      870.170
01/07/2015  12:37:00      108.430       88.941       56.270       61.104       45.690       57.969     3733.639     2087.598     3360.415        1.601        0.459      140.241       33.866        0.058      337.979       10.317      870.152
01/07/2015  12:38:00        7.210       34.306       30.042       28.021       26.874       32.448      785.202      722.212     1052.871        0.235        0.128       35.055       13.110        0.140      338.333       10.914      870.127
01/07/2015  12:39:00        0.811       45.621       75.891       21.580       37.268       23.632      465.699     1388.934      558.494        0.513        0.121       45.628       19.781        0.188      338.232       10.743      870.108
01/07/2015  12:40:00       25.189       60.443       50.025       33.736       31.467       31.722     1138.126      990.200     1006.313        0.496        0.157       65.481       15.446        0.056      338.212       10.709      870.092
01/07/2015  12:41:00       16.884       33.940       60.709       26.239       34.496       30.418      688.483     1189.971      925.248        0.396        0.140       37.908       24.756        0.426      338.236       10.750      870.078
01/07/2015  12:42:00       20.333       52.113       66.927       37.241       64.040       58.315     1386.878     4101.105     3400.624        0.825        0.444       55.940       59.282        1.123      338.109       10.538      870.054
01/07/2015  12:43:00       58.179       69.806       93.609       70.439       59.197       51.854     4961.632     3504.280     2688.787        1.409        0.558       90.871       49.291        0.294      337.915       10.212      870.030
01/07/2015  12:44:00       34.330      121.705      136.575       54.923       47.290       28.788     3016.575     2236.327      828.721        2.036        0.304      126.454       28.823        0.052      337.853       10.107      870.011
01/07/2015  12:45:00       87.517       70.148       82.933       37.420       47.926       43.249     1400.230     2296.863     1870.503        1.251        0.278      112.160       39.768        0.126      337.849       10.101      870.009
01/07/2015  12:46:00       88.542       63.586       39.897       30.775       39.665       43.801      947.073     1573.317     1918.487        0.896        0.222      109.008       37.550        0.119      337.819       10.051      870.009
01/07/2015  12:47:00       75.452       86.117       55.161       42.604       31.100       37.519     1815.066      967.205     1407.695        1.017        0.209      114.495       32.565        0.081      337.932       10.242      869.994
01/07/2015  12:48:00       92.514       83.403       29.636       28.546       23.018       40.261      814.877      529.823     1620.946        0.968        0.148      124.559       20.021        0.026      337.811       10.037      869.976
01/07/2015  12:49:00       68.536       67.529       10.164       39.701       33.545       27.971     1576.208     1125.248      782.383        0.642        0.174       96.215       23.480        0.060      337.994       10.345      869.959
01/07/2015  12:50:00       71.652       54.758        3.414       37.325       29.234       22.162     1393.127      854.632      491.170        0.544        0.137       90.180       20.147        0.050      337.758        9.948      869.947
01/07/2015  12:51:00       23.924       21.220       -3.150       25.515       20.850       13.502      651.006      434.710      182.317        0.115        0.063       31.979        9.582        0.090      337.867       10.130      869.930
01/07/2015  12:52:00       48.168       53.536       -7.301       36.461       25.841       20.518     1329.385      667.744      420.984        0.383        0.121       72.016       12.427        0.030      338.085       10.497      869.913
01/07/2015  12:53:00       42.448       43.595        1.610       35.267       29.167       26.620     1243.742      850.705      708.627        0.325        0.140       60.847       21.758        0.128      338.081       10.490      869.905
01/07/2015  12:54:00      108.697       65.226       18.793       56.523       37.737       40.997     3194.793     1424.082     1680.763        1.136        0.315      126.766       15.971        0.016      338.116       10.548      869.886
01/07/2015  12:55:00       73.880       82.381       45.949       51.987       39.050       44.345     2702.616     1524.925     1966.491        1.027        0.310      110.656       28.248        0.065      338.234       10.747      869.867
01/07/2015  12:56:00      112.958       88.842       -7.616       44.503       47.069       39.227     1980.516     2215.528     1538.720        1.322        0.287      143.709       21.475        0.022      338.144       10.596      869.856
01/07/2015  12:57:00       33.588      -11.480        3.324       44.327       52.372       28.045     1964.874     2742.782      786.523        0.338        0.275       35.496       21.339        0.361      338.194       10.680      869.860
01/07/2015  12:58:00       75.648       52.817       18.342       42.636       46.139       36.480     1817.862     2128.850     1330.772        0.706        0.264       92.262       14.384        0.024      338.045       10.430      869.846
01/07/2015  12:59:00       48.907       51.522       12.145       37.227       26.219       31.153     1385.857      687.412      970.524        0.412        0.152       71.038       22.799        0.103      338.162       10.626      869.846
01/07/2015  13:00:00       78.672       41.958       13.345       52.129       59.710       36.787     2717.412     3565.336     1353.288        0.788        0.382       89.161       20.782        0.054      338.321       10.893      869.852
01/07/2015  13:01:00       99.575       64.726       10.190       39.176       31.604       37.143     1534.752      998.786     1379.630        0.906        0.196      118.763       25.122        0.045      338.082       10.492      869.859
01/07/2015  13:02:00       65.041       50.384        9.262       46.189       30.980       21.017     2133.447      959.758      441.707        0.519        0.177       82.274       17.263        0.044      338.123       10.561      869.858
01/07/2015  13:03:00       39.723       28.613        1.606       32.739       28.841       27.186     1071.815      831.830      739.096        0.252        0.132       48.956       17.546        0.128      338.193       10.679      869.867
01/07/2015  13:04:00      -26.223       72.717      -12.427       17.023       46.342       16.406      289.789     2147.551      269.167        0.442        0.135       77.301       20.343        0.069      338.148       10.603      869.866
01/07/2015  13:05:00      -18.886       59.579      -14.431       17.129       16.109       16.446      293.410      259.502      270.475        0.247        0.041       62.500        7.748        0.015      338.152       10.610      869.852
01/07/2015  13:06:00        9.754       37.147        3.586       27.925       42.383       27.163      779.805     1796.356      737.804        0.240        0.166       38.406       23.843        0.385      338.392       11.011      869.832
01/07/2015  13:07:00      118.655       80.773       59.853       56.445       43.107       33.153     3186.067     1858.234     1099.126        1.516        0.307      143.538       27.384        0.036      338.202       10.693      869.806
01/07/2015  13:08:00      106.716       61.235       22.921       34.638       25.030       39.267     1199.774      626.481     1541.866        0.952        0.168      123.037       24.195        0.039      338.027       10.401      869.786
01/07/2015  13:09:00       42.547      -40.259        7.190       23.370       44.622       20.403      546.175     1991.105      416.288        0.322        0.148       58.575       15.734        0.072      338.091       10.506      869.772
01/07/2015  13:10:00       40.578      -77.866        7.845       22.738       31.707       15.671      517.037     1005.361      245.581        0.477        0.088       87.805       11.230        0.016      338.112       10.543      869.748
01/07/2015  13:11:00       74.067       49.076       22.857       41.585       28.780       31.080     1729.348      828.275      965.972        0.597        0.176       88.850       13.020        0.021      338.409       11.040      869.746
01/07/2015  13:12:00       83.085       66.716       34.479       50.153       39.888       47.601     2515.358     1591.051     2265.851        0.946        0.319      106.556       30.834        0.084      338.537       11.256      869.744
01/07/2015  13:13:00       96.046       62.445       -0.430       33.270       25.714       25.710     1106.908      661.228      660.991        0.778        0.121      114.562       17.532        0.023      338.215       10.716      869.721
01/07/2015  13:14:00       26.028       49.127        5.560       25.301       23.223       23.830      640.122      539.301      567.875        0.243        0.087       55.597        9.867        0.031      338.452       11.113      869.693
01/07/2015  13:15:00       15.369       52.606       39.989       50.564       33.543       60.549     2556.676     1125.161     3666.209        0.597        0.367       54.805       35.820        0.427      338.618       11.391      869.668
01/07/2015  13:16:00        9.688       28.647       84.832       41.408       66.929       36.204     1714.633     4479.537     1310.736        0.781        0.375       30.241       40.129        1.761      338.570       11.310      869.666
01/07/2015  13:17:00       65.112       65.385       47.045       49.887       45.899       41.509     2488.705     2106.706     1722.966        0.852        0.316       92.276       39.241        0.181      338.429       11.075      869.666
01/07/2015  13:18:00       26.353       40.637       50.446       34.052       33.178       33.110     1159.540     1100.783     1096.283        0.412        0.168       48.434       15.931        0.108      338.757       11.626      869.682
01/07/2015  13:19:00       26.760      -35.396       -3.370       20.734       41.165       18.787      429.886     1694.546      352.954        0.223        0.124       44.373       15.453        0.121      338.434       11.084      869.682
01/07/2015  13:20:00        0.903       -8.056       16.472        9.156       16.802       12.539       83.828      282.322      157.226        0.043        0.026        8.107        6.150        0.575      339.040       12.102      869.674
01/07/2015  13:21:00       32.012       51.925       40.143       30.772       44.909       25.657      946.909     2016.844      658.269        0.448        0.181       61.000       19.816        0.106      338.767       11.642      869.662
01/07/2015  13:22:00       63.180       96.565       90.707       59.989       52.015       44.957     3598.631     2705.586     2021.170        1.493        0.416      115.397       34.134        0.087      338.539       11.257      869.658
01/07/2015  13:23:00      120.131       71.823       42.700       67.633       44.209       44.204     4574.252     1954.405     1954.028        1.495        0.424      139.965       39.284        0.079      338.356       10.951      869.650
01/07/2015  13:24:00       42.641      -19.628       26.944       38.904       50.933       26.376     1513.548     2594.176      695.684        0.387        0.240       46.942       29.244        0.388      338.544       11.269      869.627
01/07/2015  13:25:00       52.843      -31.557       -0.391       32.526       34.357       34.824     1057.958     1180.377     1212.696        0.362        0.173       61.549       24.257        0.155      338.515       11.219      869.590
01/07/2015  13:26:00       57.104       58.998       70.410       43.667       46.194       41.165     1906.771     2133.908     1694.562        0.872        0.287       82.108       34.175        0.173      338.613       11.384      869.564
01/07/2015  13:27:00       63.923       89.187       79.258       45.858       34.857       31.310     2102.948     1215.011      980.332        1.131        0.215      109.729       28.030        0.065      338.610       11.379      869.552
01/07/2015  13:28:00       53.629       37.619       24.391       56.283       36.573       29.027     3167.800     1337.572      842.588        0.512        0.267       65.508       21.179        0.105      338.631       11.413      869.539
01/07/2015  13:29:00       21.444       49.737      -15.105       21.899       17.225       21.322      479.569      296.714      454.630        0.220        0.062       54.163       10.287        0.036      338.435       11.084      869.530
01/07/2015  13:30:00       -2.496       47.059       -3.101       23.206       24.727       13.685      538.509      611.410      187.276        0.178        0.067       47.126       14.283        0.092      338.719       11.562      869.524
01/07/2015  13:31:00       50.607       35.632       -6.654       41.816       33.982       18.864     1748.572     1154.808      355.869        0.357        0.163       61.893       19.362        0.098      338.649       11.445      869.524
01/07/2015  13:32:00       26.657       -9.407       12.442       34.869       32.851       24.710     1215.860     1079.165      610.597        0.193        0.145       28.268       28.552        1.020      338.825       11.740      869.521
01/07/2015  13:33:00       -4.340       88.565      114.665       33.797       44.598       29.960     1142.215     1989.001      897.626        1.252        0.201       88.671       27.533        0.096      338.752       11.619      869.505
01/07/2015  13:34:00      104.558      109.457       75.930       65.665       38.049       53.100     4311.832     1447.755     2819.577        1.863        0.429      151.371       56.255        0.138      338.485       11.169      869.510
01/07/2015  13:35:00       71.721       11.460        8.525       30.475       35.123       29.588      928.737     1233.604      875.445        0.419        0.152       72.631       26.763        0.136      338.468       11.139      869.516
01/07/2015  13:36:00       12.335      -27.003       17.993       21.564       39.330       21.346      464.990     1546.823      455.647        0.184        0.123       29.687       17.140        0.333      338.876       11.823      869.511
01/07/2015  13:37:00       47.328       34.051       10.877       54.250       36.348       27.720     2943.108     1321.154      768.371        0.427        0.252       58.305       13.196        0.051      338.763       11.635      869.503
01/07/2015  13:38:00      119.969       92.347       33.858       37.810       32.125       36.615     1429.581     1032.047     1340.628        1.393        0.190      151.395       20.061        0.018      338.620       11.396      869.480
01/07/2015  13:39:00       62.015       40.443       19.817       50.756       41.393       29.558     2576.148     1713.410      873.661        0.552        0.258       74.037       16.935        0.052      338.796       11.692      869.468
01/07/2015  13:40:00       38.033       13.214        7.863       18.128       21.309       19.656      328.638      454.079      386.365        0.143        0.058       40.263       13.100        0.106      338.878       11.827      869.459
01/07/2015  13:41:00       41.161       31.035       26.965       27.790       26.057       22.343      772.292      678.975      499.225        0.267        0.098       51.550        8.100        0.025      338.928       11.911      869.453
01/07/2015  13:42:00       72.124       46.356       17.992       45.471       31.037       30.643     2067.649      963.319      939.011        0.582        0.198       85.736       21.796        0.065      338.817       11.725      869.440
01/07/2015  13:43:00       92.069       57.701       22.130       51.984       40.529       33.498     2702.316     1642.606     1122.130        0.888        0.273      108.656       17.820        0.027      338.705       11.537      869.431
01/07/2015  13:44:00       38.388       92.310      108.182       64.173       54.710       37.848     4118.221     2993.208     1432.485        1.512        0.427       99.974       45.662        0.209      338.901       11.868      869.420
01/07/2015  13:45:00       93.447       93.132       62.728       43.791       36.453       40.786     1917.637     1328.814     1663.513        1.312        0.245      131.931       32.704        0.061      338.774       11.654      869.424
01/07/2015  13:46:00      104.651       63.546       23.069       31.152       20.134       32.386      970.431      405.362     1048.833        0.897        0.121      122.433       20.548        0.028      338.651       11.447      869.416
01/07/2015  13:47:00        0.522       32.721       40.505       21.429       30.059       37.119      459.205      903.518     1377.856        0.273        0.137       32.725       23.891        0.533      339.188       12.351      869.413
01/07/2015  13:48:00        8.027       47.525       72.795       33.485       38.747       25.999     1121.236     1501.348      675.925        0.546        0.165       48.199       23.925        0.246      339.190       12.353      869.387
01/07/2015  13:49:00        2.371       54.492       52.910       35.318       61.319       42.953     1247.354     3760.062     1844.942        0.631        0.343       54.544       20.917        0.147      339.094       12.192      869.382
01/07/2015  13:50:00       48.208       23.577       38.609       43.071       82.055       34.662     1855.145     6733.088     1201.458        0.708        0.489       53.665       28.749        0.287      338.933       11.923      869.377
01/07/2015  13:51:00       48.427       53.465       22.915       36.814       33.188       20.837     1355.303     1101.468      434.191        0.431        0.145       72.137       20.110        0.078      338.827       11.742      869.370
01/07/2015  13:52:00       81.458       79.207       56.681       56.804       36.886       53.161     3226.717     1360.605     2826.132        1.177        0.371      113.619       36.367        0.102      338.834       11.757      869.340
01/07/2015  13:53:00       73.957       68.381       64.743       47.199       42.370       34.588     2227.724     1795.211     1196.329        0.978        0.261      100.725       24.359        0.058      338.887       11.844      869.331
01/07/2015  13:54:00       65.465       72.465       38.984       39.906       39.632       36.795     1592.496     1570.719     1353.850        0.779        0.226       97.657       29.075        0.089      339.011       12.054      869.317
01/07/2015  13:55:00       78.446       69.521       69.438       53.642       40.177       35.562     2877.453     1614.205     1264.671        1.078        0.288      104.818       29.677        0.080      338.910       11.882      869.294
01/07/2015  13:56:00       74.934       14.849       17.091       37.704       25.583       28.008     1421.568      654.476      784.432        0.449        0.143       76.391       23.588        0.095      338.799       11.695      869.283
01/07/2015  13:57:00       17.167       -8.459        8.473       36.376       24.907       16.789     1323.202      620.339      281.882        0.133        0.111       19.138       16.742        0.765      338.940       11.932      869.262
01/07/2015  13:58:00       39.295       -7.805       -1.474       21.176       36.139       14.235      448.417     1306.025      202.645        0.178        0.098       40.062       13.342        0.111      338.890       11.848      869.245
01/07/2015  13:59:00       59.254      -15.952        3.552       29.331       30.424       26.397      860.301      925.644      696.780        0.313        0.124       61.363       17.193        0.078      339.167       12.314      869.237
01/07/2015  14:00:00       32.203       29.510       29.103       33.515       26.008       21.904     1123.225      676.416      479.765        0.252        0.114       43.679        9.492        0.047      339.211       12.389      869.246
01/07/2015  14:01:00       84.775       66.592        0.213       31.531       29.104       28.668      994.212      847.015      821.855        0.714        0.133      107.802       14.647        0.018      338.908       11.881      869.248
01/07/2015  14:02:00        4.925       38.618        1.276       29.593       19.230       22.892      875.730      369.804      524.054        0.164        0.088       38.931       10.294        0.070      339.044       12.107      869.235
01/07/2015  14:03:00       66.702       24.010        5.246       39.801       43.581       27.444     1584.142     1899.292      753.199        0.464        0.212       70.891       12.296        0.030      338.997       12.028      869.228
01/07/2015  14:04:00       34.616       33.726       12.391       32.871       30.862       25.315     1080.484      952.461      640.826        0.258        0.134       48.329       12.933        0.072      339.109       12.217      869.230
01/07/2015  14:05:00       44.621       13.935       -3.127       43.053       48.210       21.817     1853.581     2324.184      475.969        0.342        0.233       46.746       11.007        0.055      338.952       11.953      869.231
01/07/2015  14:06:00       12.093       52.595       -2.533       25.316       31.647       20.323      640.887     1001.501      413.036        0.249        0.103       53.968       17.506        0.105      339.192       12.357      869.228
01/07/2015  14:07:00       26.797       25.473       -1.811       20.174       19.359       18.471      406.976      374.755      341.180        0.125        0.056       36.972       14.982        0.164      339.254       12.461      869.217
01/07/2015  14:08:00       42.663       17.183       43.066       54.542       42.920       40.042     2974.848     1842.162     1603.374        0.519        0.321       45.994       38.294        0.693      339.279       12.503      869.210
01/07/2015  14:09:00       61.962       19.994       10.833       40.833       30.413       21.847     1667.346      924.948      477.276        0.371        0.153       65.108       15.087        0.054      339.238       12.434      869.208
01/07/2015  14:10:00       34.667       91.161       -4.544       25.967       43.787       19.179      674.307     1917.285      367.834        0.625        0.148       97.530       13.646        0.020      339.090       12.186      869.204
01/07/2015  14:11:00       10.190       -2.115        1.131       30.226       44.165       20.702      913.595     1950.539      428.592        0.170        0.165       10.408       13.649        1.720      339.304       12.546      869.193
01/07/2015  14:12:00       92.154     -116.315      -15.280       30.761       36.756       20.011      946.259     1351.005      400.457        1.248        0.135      148.397       19.012        0.016      338.976       11.993      869.172
01/07/2015  14:13:00       17.329      -31.740       24.516       33.436       74.872       32.099     1117.967     5605.801     1030.363        0.483        0.388       36.163       45.045        1.552      339.340       12.607      869.164
01/07/2015  14:14:00        1.124       29.354       61.635       30.638       31.394       20.654      938.675      985.614      426.602        0.351        0.118       29.375       21.563        0.539      339.485       12.851      869.168
01/07/2015  14:15:00       88.836       77.015       75.625       46.167       47.451       33.931     2131.372     2251.624     1151.299        1.254        0.277      117.572       31.625        0.072      339.071       12.152      869.171
01/07/2015  14:16:00       51.810       93.639       87.741       32.117       31.737       19.351     1031.510     1007.218      374.443        1.078        0.121      107.016       15.046        0.020      339.156       12.295      869.182
01/07/2015  14:17:00       74.079       68.971       65.479       42.048       39.594       33.564     1768.014     1567.722     1126.537        0.950        0.223      101.216       30.758        0.092      339.099       12.201      869.184
01/07/2015  14:18:00       40.887       23.081       13.287       22.958       22.670       22.028      527.073      513.928      485.215        0.195        0.076       46.952       17.267        0.135      338.993       12.023      869.180
01/07/2015  14:19:00       34.372       -1.969       18.659       17.591       35.992       17.715      309.437     1295.407      313.809        0.173        0.096       34.428       20.920        0.369      339.156       12.297      869.160
01/07/2015  14:20:00       80.765      -39.886       32.845       25.404       30.836       27.550      645.356      950.871      758.984        0.577        0.118       90.077       25.184        0.078      339.048       12.114      869.142
01/07/2015  14:21:00       29.901        7.855        7.907       28.295       11.670       25.274      800.622      136.190      638.760        0.130        0.079       30.915       16.033        0.269      339.118       12.233      869.122
01/07/2015  14:22:00      -17.862       24.394      -19.706       22.132       13.237       11.284      489.823      175.214      127.325        0.105        0.040       30.234        8.443        0.078      339.090       12.186      869.112
01/07/2015  14:23:00       -7.413       57.454       -7.816       22.595       31.443       18.171      510.529      988.651      330.177        0.262        0.091       57.930        7.706        0.018      339.122       12.238      869.121
01/07/2015  14:24:00       22.480       48.002        5.442       25.442       24.648       17.786      647.311      607.503      316.338        0.220        0.079       53.005       15.924        0.090      339.224       12.411      869.127
01/07/2015  14:25:00       36.741       38.835       -2.833       14.747       12.341       13.997      217.463      152.296      195.911        0.172        0.028       53.461        8.047        0.023      339.110       12.218      869.147
01/07/2015  14:26:00       10.342        3.960       -5.292       18.963       19.482       22.119      359.607      379.547      489.249        0.069        0.061       11.074       16.347        2.179      339.394       12.698      869.142
01/07/2015  14:27:00       89.692       72.469       55.339       39.839       48.633       41.742     1587.179     2365.188     1742.410        1.103        0.285      115.310       36.134        0.098      339.177       12.331      869.137
01/07/2015  14:28:00       78.124       76.129       59.944       53.288       47.628       47.258     2839.635     2268.444     2233.354        1.142        0.367      109.082       41.928        0.148      339.197       12.365      869.139
01/07/2015  14:29:00       65.522       64.159       42.338       32.607       26.559       16.888     1063.205      705.377      285.200        0.613        0.103       91.704       11.710        0.016      339.198       12.367      869.141
01/07/2015  14:30:00       48.743      -93.819        2.235       67.835       67.861       34.671     4601.619     4605.113     1202.067        1.079        0.520      105.725       48.104        0.207      339.410       12.724      869.145
01/07/2015  14:31:00       79.267      -66.904        9.791       31.566       35.006       29.536      996.416     1225.452      872.404        0.697        0.155      103.727       19.564        0.036      339.179       12.335      869.153
01/07/2015  14:32:00        9.147      -15.291       23.489       28.555       55.708       25.814      815.369     3103.431      666.364        0.273        0.229       17.818       30.069        2.848      339.484       12.850      869.162
01/07/2015  14:33:00       54.749      -14.290       20.153       39.830       39.772       25.766     1586.396     1581.791      663.862        0.372        0.192       56.583       26.959        0.227      339.312       12.558      869.169
01/07/2015  14:34:00       40.229       34.026       22.414       34.431       22.294       24.684     1185.524      497.021      609.311        0.278        0.115       52.689       23.901        0.206      339.325       12.581      869.169
01/07/2015  14:35:00       25.889       19.617       25.909       25.070       27.361       18.025      628.483      748.630      324.884        0.171        0.085       32.481       13.744        0.179      339.501       12.878      869.157
01/07/2015  14:36:00       35.056       36.519       11.998       25.709       10.161       23.808      660.933      103.253      566.830        0.202        0.067       50.622       16.082        0.101      339.241       12.439      869.147
01/07/2015  14:37:00      -25.802        9.727       -7.624       20.337        9.136       11.224      413.576       83.468      125.976        0.072        0.031       27.575        4.414        0.026      339.294       12.530      869.144
01/07/2015  14:38:00       -2.719       32.585       -5.583       13.565       22.872       13.887      184.022      523.136      192.859        0.100        0.045       32.698       14.281        0.191      339.452       12.795      869.147
01/07/2015  14:39:00       -8.286       68.499       -9.945       21.604       14.710       15.591      466.716      216.371      243.073        0.289        0.046       68.998        9.461        0.019      339.289       12.521      869.149
01/07/2015  14:40:00      -11.723       70.105      -16.913       14.465       17.912        9.727      209.241      320.842       94.610        0.298        0.031       71.079        6.284        0.008      339.294       12.527      869.136
01/07/2015  14:41:00        2.452       31.321        9.236       22.147       17.913       14.371      490.482      320.890      206.538        0.104        0.051       31.417       11.207        0.127      339.506       12.886      869.120
01/07/2015  14:42:00       38.715       40.275       -0.734       23.578       16.741       13.589      555.914      280.260      184.670        0.207        0.051       55.865        8.403        0.023      339.305       12.547      869.110
01/07/2015  14:43:00       30.185       47.397       -6.024       26.837       20.038       16.989      720.234      401.505      288.641        0.230        0.071       56.193       15.848        0.080      339.243       12.445      869.104
01/07/2015  14:44:00        7.491       73.446      -15.193       44.154       27.105       28.575     1949.551      734.665      816.502        0.459        0.175       73.827       21.595        0.086      339.380       12.672      869.092
01/07/2015  14:45:00        4.193       13.199       35.652       30.737       26.714       21.707      944.767      713.646      471.214        0.180        0.106       13.849       18.695        1.822      339.801       13.384      869.089
01/07/2015  14:46:00       26.675      -31.282       17.888       50.233       30.914       24.782     2523.388      955.662      614.133        0.305        0.205       41.111       16.557        0.162      339.733       13.267      869.079
01/07/2015  14:47:00       89.587     -109.579       -8.585       45.251       58.355       32.949     2047.613     3405.323     1085.633        1.332        0.327      141.539       26.978        0.036      339.461       12.810      869.061
01/07/2015  14:48:00       60.571      -15.514       30.720       44.035       59.434       28.739     1939.105     3532.394      825.955        0.557        0.315       62.526       30.695        0.241      339.571       12.994      869.057
01/07/2015  14:49:00       80.756      -87.202      -11.332       28.850       36.055       23.514      832.296     1299.972      552.891        0.847        0.134      118.852       17.222        0.021      339.392       12.694      869.051
01/07/2015  14:50:00       29.281       -3.773       46.166       36.518       41.006       29.845     1333.591     1681.492      890.723        0.345        0.195       29.523       11.055        0.140      339.694       13.202      869.050
01/07/2015  14:51:00      104.926        6.127       15.634       55.599       40.635       28.802     3091.278     1651.199      829.533        0.843        0.279      105.104       23.964        0.052      339.311       12.557      869.062
01/07/2015  14:52:00      102.689       86.193       15.671       33.592       21.976       24.100     1128.417      482.944      580.810        1.021        0.110      134.068       11.312        0.007      339.324       12.579      869.047
01/07/2015  14:53:00       82.445       75.923       12.140       38.315       26.141       21.668     1468.061      683.355      469.507        0.766        0.131      112.077       15.142        0.018      339.270       12.487      869.049
01/07/2015  14:54:00       47.746       36.503        8.512       32.925       28.539       24.838     1084.084      814.474      616.938        0.310        0.126       60.101       23.480        0.153      339.344       12.613      869.056
01/07/2015  14:55:00       53.729       40.395        7.642       30.511       31.608       23.593      930.918      999.079      556.633        0.353        0.124       67.220       18.511        0.076      339.417       12.737      869.054
01/07/2015  14:56:00       44.132       20.226       14.076       40.670       23.091       22.432     1654.016      533.205      503.195        0.262        0.135       48.546       15.017        0.096      339.541       12.945      869.059
01/07/2015  14:57:00       48.025       46.777       39.002       46.166       34.745       32.335     2131.306     1207.219     1045.538        0.520        0.219       67.041       22.351        0.111      339.586       13.022      869.055
01/07/2015  14:58:00        0.341        9.085       38.346       21.035       43.397       30.663      442.485     1883.297      940.211        0.241        0.163        9.092       25.367        7.785      339.754       13.304      869.052
01/07/2015  14:59:00       21.257       25.168       45.025       24.831       33.277       17.901      616.593     1107.373      320.445        0.258        0.102       32.943       14.327        0.189      339.717       13.242      869.050
01/07/2015  15:00:00       10.751       11.251       33.637       24.132       19.295       15.778      582.350      372.297      248.956        0.129        0.060       15.562       12.023        0.597      339.841       13.451      869.044
01/07/2015  15:01:00        1.532       14.645       33.040       27.630       29.179       18.308      763.391      851.417      335.185        0.163        0.097       14.725       18.903        1.648      339.795       13.374      869.038
01/07/2015  15:02:00       67.297       44.259       21.446       23.627       22.371       23.013      558.235      500.449      529.613        0.427        0.079       80.546       15.036        0.035      339.354       12.629      869.038
01/07/2015  15:03:00       20.581       60.170       -7.645       35.426       13.663       10.005     1254.969      186.672      100.095        0.282        0.077       63.593       13.074        0.042      339.334       12.594      869.030
01/07/2015  15:04:00      -26.420       22.474      -17.552       19.228       35.088       11.038      369.716     1231.153      121.831        0.162        0.086       34.685        7.954        0.053      339.790       13.364      869.027
01/07/2015  15:05:00       45.103      -48.194      -11.804       36.852       47.872       21.197     1358.083     2291.767      449.303        0.430        0.205       66.007       21.168        0.103      339.647       13.124      869.029
01/07/2015  15:06:00       58.836     -117.684      -16.585       31.275       19.524       17.548      978.125      381.197      307.929        0.963        0.083      131.573       13.973        0.011      339.509       12.891      869.020
01/07/2015  15:07:00       77.209      -41.695        2.439       32.001       38.216       21.288     1024.063     1460.455      453.177        0.532        0.147       87.748       24.812        0.080      339.403       12.713      869.022
01/07/2015  15:08:00       46.609        6.331       10.701       12.646       13.850       14.643      159.926      191.828      214.418        0.145        0.028       47.037        8.435        0.032      339.389       12.689      869.005
01/07/2015  15:09:00       34.049       -1.804       -1.617       14.521       20.029       15.234      210.847      401.147      232.083        0.100        0.042       34.097       13.892        0.166      339.461       12.811      868.992
01/07/2015  15:10:00       -4.236       37.327      -23.945       20.867       12.530        9.723      435.447      156.995       94.545        0.134        0.034       37.567        5.948        0.025      339.492       12.863      868.973
01/07/2015  15:11:00       12.158       22.798        5.404       36.288       20.726       17.987     1316.798      429.580      323.543        0.138        0.103       25.837       16.151        0.391      339.585       13.019      868.961
01/07/2015  15:12:00       79.666       57.994       -1.499       34.257       43.183       29.517     1173.538     1864.729      871.226        0.681        0.195       98.540       14.493        0.022      339.401       12.709      868.944
01/07/2015  15:13:00       96.811       63.067        5.377       25.466       20.244       18.405      648.510      409.808      338.735        0.739        0.070      115.542        9.079        0.006      339.387       12.686      868.935
01/07/2015  15:14:00       85.444       58.031       19.850       30.536       19.874       19.183      932.444      394.983      367.971        0.638        0.085      103.288       12.333        0.014      339.460       12.808      868.921
01/07/2015  15:15:00       37.646        5.819        3.440       31.151       25.724       16.805      970.390      661.712      282.416        0.169        0.096       38.093       14.505        0.145      339.644       13.119      868.912
01/07/2015  15:16:00       65.310       15.143       -0.061       28.580       21.793       19.345      816.800      474.916      374.246        0.308        0.083       67.042       13.356        0.040      339.608       13.058      868.910
01/07/2015  15:17:00       95.035       54.727        2.540       28.549       28.649       24.851      815.029      820.739      617.557        0.714        0.113      109.666       12.015        0.012      339.488       12.856      868.899
01/07/2015  15:18:00       62.465       59.409        7.162       33.761       18.362       19.762     1139.808      337.154      390.552        0.467        0.093       86.205       17.822        0.043      339.438       12.771      868.891
01/07/2015  15:19:00       57.934       54.214       16.862       14.846       16.514       17.286      220.413      272.725      298.803        0.369        0.040       79.344        5.261        0.004      339.452       12.794      868.888
01/07/2015  15:20:00       35.861       38.302       -4.819       13.976       14.329       10.276      195.333      205.307      105.601        0.164        0.025       52.469        5.385        0.011      339.502       12.879      868.891
01/07/2015  15:21:00      -11.988       14.553      -17.158       15.585       20.063        9.756      242.904      402.533       95.181        0.070        0.037       18.855        5.544        0.086      339.667       13.157      868.887
01/07/2015  15:22:00        3.687        4.178       11.255       14.045       14.306        9.799      197.276      204.655       96.019        0.033        0.025        5.573       10.379        3.469      339.930       13.601      868.877
01/07/2015  15:23:00       13.254       76.031      -12.962       21.718       34.449       19.224      471.669     1186.745      369.555        0.408        0.101       77.178       23.610        0.094      339.536       12.936      868.867
01/07/2015  15:24:00       10.982       91.982      -22.046       20.125       19.127       10.187      405.019      365.833      103.771        0.497        0.044       92.635        7.669        0.007      339.593       13.034      868.851
01/07/2015  15:25:00       10.609       63.578      -15.197       17.066       17.313       11.501      291.258      299.732      132.263        0.255        0.036       64.458       10.807        0.028      339.592       13.029      868.834
01/07/2015  15:26:00      -12.049       32.786      -18.998       15.007       22.047        9.102      225.198      486.090       82.849        0.119        0.040       34.930        5.552        0.025      339.660       13.145      868.816
01/07/2015  15:27:00       -8.319        7.694        4.940       11.321        9.936       11.582      128.155       98.716      134.132        0.026        0.018       11.332        7.847        0.480      339.996       13.714      868.790
01/07/2015  15:28:00       55.488       31.208       11.794       45.367       20.138       19.220     2058.179      405.539      369.402        0.351        0.142       63.662       18.199        0.082      339.621       13.080      868.778
01/07/2015  15:29:00       38.058       25.506        6.198       19.255       12.644       13.485      370.741      159.880      181.839        0.142        0.036       45.815        8.213        0.032      339.618       13.075      868.770
01/07/2015  15:30:00       50.335       12.502        4.173       31.524       27.809       15.367      993.775      773.339      236.148        0.235        0.100       51.865        9.158        0.031      339.627       13.091      868.773
01/07/2015  15:31:00       21.111       55.063       -6.049       23.563       10.985       14.605      555.212      120.675      213.309        0.220        0.044       58.971       11.757        0.040      339.577       13.007      868.788
01/07/2015  15:32:00       -2.907       40.062      -10.953        9.739       10.076        5.811       94.850      101.529       33.773        0.098        0.012       40.168        6.021        0.022      339.601       13.047      868.801
01/07/2015  15:33:00        9.668       57.176      -14.450       14.392       16.060        7.724      207.126      257.909       59.663        0.205        0.026       57.987        5.280        0.008      339.610       13.062      868.807
01/07/2015  15:34:00       -2.997       30.805      -12.307       12.422       16.594        5.206      154.309      275.374       27.101        0.078        0.023       30.950        6.412        0.043      339.662       13.149      868.810
01/07/2015  15:35:00        2.515       22.619       -5.276       17.342       27.058       11.572      300.734      732.126      133.915        0.086        0.058       22.758       10.961        0.232      339.743       13.285      868.809
01/07/2015  15:36:00        4.997       44.689       -3.154       10.217       11.886       11.468      104.393      141.287      131.523        0.120        0.019       44.968        8.730        0.038      339.670       13.163      868.802
01/07/2015  15:37:00        8.355       49.372       -8.047       12.764        9.691        7.877      162.907       93.916       62.046        0.145        0.016       50.074        3.957        0.006      339.628       13.092      868.800
01/07/2015  15:38:00        9.370       38.397       -8.465        9.207        8.715        6.880       84.768       75.953       47.330        0.092        0.010       39.524        4.638        0.014      339.663       13.153      868.797
01/07/2015  15:39:00        9.570       -1.503        5.719       11.447        8.870        9.001      131.034       78.677       81.010        0.021        0.015        9.687        5.650        0.340      339.828       13.430      868.795
01/07/2015  15:40:00       30.598       18.309        1.696       15.563       14.832       11.852      242.216      219.991      140.461        0.094        0.030       35.658       10.101        0.080      339.650       13.130      868.803
01/07/2015  15:41:00       16.730      -21.884        4.245       27.717       31.294       18.792      768.247      979.331      353.137        0.144        0.105       27.546       16.598        0.363      339.783       13.354      868.811
01/07/2015  15:42:00       29.701      -32.122      -15.736       13.627       17.564       15.421      185.695      308.501      237.794        0.145        0.037       43.749       11.854        0.073      339.680       13.178      868.818
01/07/2015  15:43:00       14.778      -17.036       -5.681       17.374       26.116       10.575      301.860      682.034      111.833        0.082        0.055       22.552       10.299        0.209      339.674       13.169      868.813
01/07/2015  15:44:00       28.317       14.348        9.367       14.410       13.705       14.936      207.640      187.819      223.079        0.086        0.031       31.744       10.169        0.103      339.666       13.155      868.807
01/07/2015  15:45:00        8.963        2.488       -3.528       12.087        6.233       12.131      146.107       38.853      147.158        0.022        0.017        9.302        6.998        0.566      339.856       13.477      868.803
01/07/2015  15:46:00        4.879        2.709       -2.893       21.731        8.855       13.411      472.223       78.415      179.864        0.038        0.037        5.581       12.763        5.230      339.763       13.318      868.803
01/07/2015  15:47:00       17.004       15.163        6.229       13.510       12.739       11.518      182.515      162.272      132.673        0.052        0.024       22.782        7.569        0.110      339.735       13.273      868.801
01/07/2015  15:48:00       26.889       13.166        5.947       16.972       10.043       12.924      288.063      100.866      167.020        0.074        0.028       29.939        3.058        0.010      339.794       13.371      868.796
01/07/2015  15:49:00       15.279        0.451       -0.021       19.916        7.939       10.543      396.656       63.024      111.146        0.040        0.029       15.286        9.024        0.348      339.897       13.545      868.787
01/07/2015  15:50:00        8.049        3.787        0.640       16.259        9.952       12.506      264.369       99.040      156.394        0.030        0.026        8.895        8.000        0.809      339.783       13.352      868.781
01/07/2015  15:51:00       35.253        9.879        6.522       17.981       16.434       10.525      323.300      270.082      110.776        0.104        0.035       36.611        6.360        0.030      339.665       13.155      868.765
01/07/2015  15:52:00       33.235       16.368        9.923       29.644       17.120       14.991      878.768      293.105      224.720        0.143        0.070       37.048       15.879        0.184      339.747       13.294      868.760
01/07/2015  15:53:00       76.268       25.415       13.285       32.094       27.475       20.469     1030.033      754.871      418.985        0.442        0.110       80.391       14.862        0.034      339.610       13.061      868.754
01/07/2015  15:54:00       34.113       49.314        5.167       20.877       12.488        8.920      435.861      155.960       79.573        0.215        0.034       59.963        3.712        0.004      339.599       13.042      868.750
01/07/2015  15:55:00       38.829       29.093        6.766       31.653       28.308       18.470     1001.899      801.322      341.128        0.227        0.107       48.519        4.468        0.008      339.711       13.231      868.752
01/07/2015  15:56:00       16.034        0.155       -1.841       13.448        9.888       13.902      180.851       97.782      193.256        0.037        0.024       16.034       10.443        0.424      339.720       13.247      868.753
01/07/2015  15:57:00       33.131       18.269        0.129       25.981       22.286       15.277      675.032      496.654      233.378        0.142        0.070       37.834        5.208        0.019      339.678       13.178      868.756
01/07/2015  15:58:00       47.688       31.880        9.106       27.771       16.657       12.920      771.207      277.462      166.937        0.229        0.061       57.363        7.962        0.019      339.619       13.078      868.760
01/07/2015  15:59:00       46.087       32.024        2.153       19.352       29.461       19.291      374.482      867.970      372.139        0.238        0.081       56.121        9.157        0.027      339.594       13.035      868.758
01/07/2015  16:00:00       34.621       28.919       -1.897       32.530       30.130       21.807     1058.193      907.837      475.528        0.224        0.122       45.110       15.688        0.121      339.646       13.122      868.756
01/07/2015  16:01:00       61.572       41.761       -0.707       25.249       23.223       14.591      637.526      539.293      212.893        0.346        0.069       74.399        9.220        0.015      339.596       13.037      868.756
01/07/2015  16:02:00       19.670       24.102       13.226       29.573       28.357       23.711      874.542      804.117      562.223        0.169        0.112       31.110       10.385        0.111      339.619       13.079      868.762
01/07/2015  16:03:00       58.381       41.604       24.077       28.432       18.324       21.109      808.377      335.760      445.604        0.365        0.079       71.689       11.135        0.024      339.560       12.977      868.766
01/07/2015  16:04:00       48.335       31.118       11.478       21.520       11.292       13.389      463.120      127.515      179.264        0.210        0.038       57.486       11.331        0.039      339.594       13.035      868.765
01/07/2015  16:05:00       42.978       33.830       10.940       21.503       13.452       15.323      462.374      180.961      234.792        0.199        0.044       54.695        8.561        0.024      339.576       13.002      868.757
01/07/2015  16:06:00       93.728       42.180       10.440       18.549       12.522       11.861      344.063      156.812      140.677        0.566        0.032      102.782        6.121        0.004      339.619       13.079      868.743
01/07/2015  16:07:00       45.389       32.645       15.021       14.695        9.556       10.821      215.942       91.311      117.100        0.189        0.021       55.909        1.895        0.001      339.612       13.065      868.729
01/07/2015  16:08:00       57.298       32.377       11.396       22.418       18.936       17.342      502.589      358.577      300.735        0.281        0.058       65.813       12.970        0.039      339.595       13.034      868.713
01/07/2015  16:09:00       89.299       49.809        3.723       17.775       14.879       12.936      315.954      221.398      167.351        0.559        0.035      102.251        8.536        0.007      339.604       13.054      868.697
01/07/2015  16:10:00       79.699       34.283        9.821       21.420       18.908       14.263      458.833      357.513      203.420        0.432        0.051       86.760        4.044        0.002      339.596       13.039      868.679
01/07/2015  16:11:00       96.488       58.411       -0.431       14.319       14.878       18.657      205.044      221.341      348.096        0.675        0.039      112.791        8.383        0.006      339.544       12.949      868.666
01/07/2015  16:12:00       68.163       48.614        8.547       19.503       16.416       18.801      380.356      269.482      353.465        0.404        0.050       83.723       10.728        0.016      339.559       12.976      868.668
01/07/2015  16:13:00       55.604       36.693        2.088       19.641       17.372       12.532      385.777      301.795      157.042        0.264        0.042       66.620       12.022        0.033      339.501       12.877      868.665
01/07/2015  16:14:00       63.044       40.887        7.073       13.977       10.932       16.845      195.356      119.503      283.751        0.315        0.030       75.142       10.178        0.018      339.538       12.942      868.669
01/07/2015  16:15:00       55.599       17.973       14.748       17.560       15.638       13.755      308.366      244.558      189.200        0.219        0.037       58.432        7.695        0.017      339.525       12.917      868.660
01/07/2015  16:16:00       39.831        8.834        2.757       26.385       13.250        9.734      696.151      175.558       94.760        0.132        0.048       40.799        4.444        0.012      339.567       12.988      868.654
01/07/2015  16:17:00       39.395       27.399        5.930        8.704        8.339        7.378       75.760       69.544       54.435        0.127        0.010       47.986        3.827        0.006      339.527       12.923      868.647
01/07/2015  16:18:00       44.641       31.968        0.476       13.820       13.351       10.241      191.004      178.242      104.875        0.174        0.024       54.907        5.466        0.010      339.524       12.916      868.637
01/07/2015  16:19:00       40.172       22.898        0.861       11.688        9.947        8.885      136.609       98.953       78.943        0.123        0.016       46.240        8.050        0.030      339.491       12.859      868.638
01/07/2015  16:20:00       51.868       34.329        3.481       15.803       15.436        8.843      249.726      238.282       78.202        0.222        0.028       62.200        3.818        0.004      339.500       12.875      868.635
01/07/2015  16:21:00       62.571       37.565        5.871       14.990       14.836       14.063      224.710      220.106      197.761        0.300        0.032       72.981        1.290        0.000      339.489       12.856      868.637
01/07/2015  16:22:00       49.637       32.339        5.729       16.145       16.318       12.074      260.664      266.287      145.772        0.211        0.034       59.242        4.381        0.005      339.458       12.804      868.646
01/07/2015  16:23:00       49.560       28.731        4.197       17.016       11.823       12.214      289.560      139.775      149.182        0.194        0.029       57.286        8.670        0.023      339.449       12.790      868.658
01/07/2015  16:24:00       42.416       24.762        5.865        9.085       10.497        9.477       82.531      110.190       89.804        0.136        0.014       49.115        6.495        0.017      339.457       12.801      868.664
01/07/2015  16:25:00       41.782       33.124        4.336       16.851       10.217       10.080      283.940      104.397      101.599        0.168        0.024       53.319        5.138        0.009      339.498       12.872      868.661
01/07/2015  16:26:00       41.531       26.908        3.653       13.645       12.384        7.801      186.174      153.359       60.859        0.143        0.020       49.486        1.496        0.001      339.415       12.734      868.660
01/07/2015  16:27:00       46.771       31.717        3.420        7.047        5.428        7.218       49.658       29.465       52.105        0.167        0.007       56.511        4.916        0.008      339.519       12.910      868.651
01/07/2015  16:28:00       59.010       31.100        5.506        9.315       10.023        8.657       86.771      100.467       74.936        0.237        0.013       66.704        4.132        0.004      339.514       12.904      868.638
01/07/2015  16:29:00       41.778       17.297        2.038       10.193        8.649        7.981      103.892       74.812       63.702        0.115        0.012       45.217        4.503        0.010      339.553       12.969      868.624
01/07/2015  16:30:00       44.224       19.643        3.468       12.504       10.135       10.299      156.351      102.725      106.078        0.136        0.018       48.391        9.230        0.036      339.526       12.922      868.608
01/07/2015  16:31:00       19.005       19.732        7.983       14.757       13.431        9.763      217.771      180.403       95.317        0.065        0.025       27.396        9.393        0.118      339.435       12.768      868.590
01/07/2015  16:32:00        4.115       25.298       22.511       13.334       14.763       11.657      177.800      217.941      135.896        0.085        0.027       25.630       10.439        0.166      339.331       12.592      868.573
01/07/2015  16:33:00        6.252       10.746        6.906        8.801        8.728       10.141       77.450       76.175      102.835        0.023        0.013       12.433        6.529        0.276      339.369       12.654      868.564
01/07/2015  16:34:00       28.682        9.958       -0.943       12.028        9.266        5.922      144.684       85.867       35.066        0.059        0.013       30.362        5.266        0.030      339.488       12.855      868.550
01/07/2015  16:35:00       33.717       11.051       -1.036       11.116       11.128        8.700      123.572      123.839       75.682        0.079        0.016       35.482        5.573        0.025      339.439       12.774      868.545
01/07/2015  16:36:00       28.194        9.648       -4.749        7.505        7.693        5.133       56.330       59.175       26.347        0.053        0.007       29.799        4.372        0.022      339.514       12.899      868.542
01/07/2015  16:37:00       31.602       17.503       -5.108        5.537        7.725        5.014       30.653       59.680       25.137        0.072        0.006       36.126        4.174        0.013      339.445       12.781      868.535
01/07/2015  16:38:00       26.559        8.634       -3.681        5.500        5.972        3.842       30.255       35.662       14.760        0.044        0.004       27.927        1.792        0.004      339.446       12.785      868.528
01/07/2015  16:39:00       28.800       18.309       -4.640        6.125        9.812        4.536       37.519       96.272       20.576        0.067        0.008       34.127        2.907        0.007      339.503       12.879      868.538
01/07/2015  16:40:00       15.668        6.423       -1.801        6.199        7.701        7.372       38.422       59.310       54.342        0.022        0.008       16.933        6.396        0.143      339.460       12.806      868.546
01/07/2015  16:41:00       16.785       11.462       -5.638        6.835        5.697        5.132       46.712       32.459       26.335        0.028        0.005       20.325        4.756        0.055      339.480       12.843      868.541
01/07/2015  16:42:00       10.272       18.620      -10.256        9.647        7.144        4.537       93.059       51.041       20.581        0.036        0.008       21.266        5.326        0.063      339.467       12.821      868.546
01/07/2015  16:43:00        0.128       18.936       -7.616        4.487        6.479        4.866       20.133       41.981       23.676        0.025        0.004       18.936        3.693        0.038      339.491       12.863      868.548
01/07/2015  16:44:00      -13.147       11.850       -0.595        6.802        4.394        3.013       46.273       19.304        9.078        0.019        0.004       17.699        3.167        0.032      339.464       12.817      868.560
01/07/2015  16:45:00      -20.893       -3.461       -4.157        7.712       10.190        6.058       59.468      103.837       36.699        0.033        0.010       21.178        4.757        0.050      339.159       12.303      868.563
01/07/2015  16:46:00      -31.370       -8.388       -6.349       10.539        9.287        9.395      111.061       86.246       88.258        0.069        0.014       32.472        6.062        0.035      338.920       11.898      868.557
01/07/2015  16:47:00      -16.004      -22.401       -9.695       10.342        9.761        5.238      106.960       95.278       27.434        0.054        0.011       27.531        3.609        0.017      338.985       12.007      868.552
01/07/2015  16:48:00      -38.090      -30.458      -11.814       10.875       11.219        7.282      118.271      125.861       53.022        0.141        0.015       48.770        4.658        0.009      338.718       11.559      868.549
01/07/2015  16:49:00      -69.544      -22.368      -11.740       20.737       11.872        7.895      430.034      140.940       62.334        0.305        0.032       73.052        5.855        0.006      338.626       11.407      868.549
01/07/2015  16:50:00      -54.767      -35.556      -17.046       28.814       15.554       17.830      830.223      241.933      317.911        0.297        0.070       65.296       17.805        0.074      338.563       11.299      868.550
01/07/2015  16:51:00      -91.603      -32.665       -8.767       50.528       33.874       23.181     2553.028     1147.445      537.367        0.689        0.212       97.253       26.524        0.074      338.362       10.961      868.554
01/07/2015  16:52:00      -94.680      -27.721      -11.318       31.325       25.949       17.066      981.266      673.365      291.252        0.590        0.097       98.655       10.990        0.012      338.262       10.793      868.564
01/07/2015  16:53:00     -115.340      -38.129      -17.006       31.542       28.153       18.794      994.928      792.592      353.198        0.859        0.107      121.479       12.688        0.011      338.315       10.883      868.568
01/07/2015  16:54:00      -77.923      -34.129      -16.826       34.609       24.899       19.295     1197.753      619.957      372.311        0.485        0.110       85.069       15.384        0.033      338.294       10.848      868.562
01/07/2015  16:55:00      -82.322      -46.628      -20.204       30.809       29.806       18.104      949.168      888.385      327.759        0.576        0.108       94.610       16.056        0.029      338.239       10.755      868.556
01/07/2015  16:56:00     -122.303      -38.467      -21.129       36.939       29.081       20.922     1364.485      845.691      437.714        0.977        0.132      128.210       13.559        0.011      338.243       10.762      868.547
01/07/2015  16:57:00      -97.752      -33.422      -11.653       52.610       25.638       20.386     2767.783      657.309      415.573        0.732        0.192      103.307       15.983        0.024      338.279       10.821      868.532
01/07/2015  16:58:00      -17.521      -16.556        4.660       35.904       31.374       23.832     1289.095      984.326      567.952        0.172        0.142       24.106       14.181        0.346      338.284       10.831      868.527
01/07/2015  16:59:00       16.782        0.631       10.500       24.185       23.792       21.506      584.897      566.036      462.527        0.100        0.081       16.794       12.172        0.525      338.357       10.954      868.520
01/07/2015  17:00:00      -38.316      -29.893       17.433       48.062       47.248       34.417     2309.982     2232.336     1184.530        0.420        0.286       48.597       25.741        0.281      338.298       10.856      868.503
01/07/2015  17:01:00      -57.435      -35.296        6.703       45.533       36.701       28.405     2073.267     1347.000      806.847        0.441        0.211       67.413       16.760        0.062      338.171       10.640      868.506
01/07/2015  17:02:00     -101.036      -65.110      -12.610       36.035       30.812       25.980     1298.533      949.405      674.953        0.876        0.146      120.199       11.322        0.009      337.705        9.861      868.494
01/07/2015  17:03:00     -129.088      -58.417      -15.967       34.897       38.643       21.604     1217.782     1493.317      466.716        1.175        0.159      141.691       15.091        0.011      337.660        9.784      868.499
01/07/2015  17:04:00     -110.041      -57.930      -13.970       71.573       26.951       20.107     5122.717      726.352      404.293        1.096        0.313      124.358       21.582        0.030      337.686        9.826      868.507
01/07/2015  17:05:00     -123.675      -55.977      -12.111       40.956       37.315       19.375     1677.399     1392.385      375.400        1.101        0.172      135.753       15.303        0.013      337.693        9.840      868.519
01/07/2015  17:06:00     -128.765      -27.038       -1.775       39.240       37.592       22.921     1539.739     1413.195      525.351        1.040        0.174      131.573       16.787        0.016      337.723        9.890      868.528
01/07/2015  17:07:00     -116.972      -20.796       -9.087       60.694       40.191       27.688     3683.760     1615.316      766.608        1.013        0.303      118.806       26.114        0.048      337.787        9.996      868.548
01/07/2015  17:08:00      -49.428       -5.214       12.405       59.882       46.829       33.291     3585.890     2192.975     1108.285        0.475        0.344       49.702       32.508        0.428      337.945       10.262      868.559
01/07/2015  17:09:00      -48.652        3.181        6.829       55.098       36.160       31.559     3035.756     1307.523      995.999        0.388        0.267       48.756       33.015        0.459      338.302       10.862      868.557
01/07/2015  17:10:00      -75.025       -8.746       15.646       66.009       45.418       39.432     4357.151     2062.806     1554.902        0.696        0.399       75.533       39.172        0.269      338.167       10.635      868.555
01/07/2015  17:11:00     -168.637      -52.199       -7.341       35.041       35.467       18.813     1227.893     1257.893      353.936        1.703        0.142      176.531       15.782        0.008      337.644        9.758      868.564
01/07/2015  17:12:00     -138.932      -50.143       -3.856       37.670       27.206       19.022     1419.004      740.160      361.835        1.218        0.126      147.704       17.097        0.013      337.833       10.074      868.566
01/07/2015  17:13:00     -165.047      -34.169      -10.415       27.437       37.995       19.420      752.786     1443.590      377.141        1.554        0.129      168.547       14.743        0.008      338.261       10.792      868.569
01/07/2015  17:14:00     -146.469      -34.901       -6.694       33.771       41.915       25.367     1140.491     1756.873      643.473        1.313        0.177      150.569       19.136        0.016      338.410       11.042      868.568
01/07/2015  17:15:00     -151.210      -26.856      -12.915       37.124       27.104       22.811     1378.178      734.622      520.327        1.319        0.132      153.577       18.267        0.014      338.253       10.778      868.569
01/07/2015  17:16:00     -133.843      -20.901      -15.949       29.891       24.882       19.755      893.498      619.130      390.280        1.025        0.095      135.465       16.344        0.015      338.265       10.800      868.573
01/07/2015  17:17:00     -143.596      -12.478      -19.012       16.453       21.364       16.081      270.703      456.435      258.590        1.106        0.049      144.137        3.894        0.001      337.983       10.327      868.575
01/07/2015  17:18:00     -153.421      -26.767      -28.006       18.518       16.884       14.638      342.923      285.054      214.282        1.294        0.042      155.738       10.196        0.004      337.777        9.981      868.572
01/07/2015  17:19:00     -165.598      -35.735      -21.654       17.804       20.712       17.238      316.997      428.997      297.137        1.511        0.052      169.410       10.178        0.004      337.862       10.123      868.573
01/07/2015  17:20:00     -155.036      -33.708      -20.549       15.258       18.466       17.437      232.818      340.981      304.050        1.324        0.044      158.658        5.675        0.001      337.634        9.741      868.560
01/07/2015  17:21:00     -170.176      -22.122      -21.142       23.072       26.181       17.702      532.323      685.455      313.372        1.571        0.077      171.608       11.399        0.004      337.772        9.972      868.545
01/07/2015  17:22:00     -161.345      -37.156      -15.256       40.136       29.929       22.395     1610.869      895.724      501.544        1.533        0.150      165.568       23.942        0.021      337.490        9.499      868.537
01/07/2015  17:23:00      -52.872      -16.857       14.251       60.263       49.902       34.600     3631.623     2490.200     1197.170        0.530        0.366       55.494       28.344        0.261      337.607        9.695      868.525
01/07/2015  17:24:00     -136.146      -28.593       -8.062       37.894       34.737       27.519     1435.957     1206.647      757.274        1.141        0.170      139.116       21.882        0.025      337.461        9.451      868.521
01/07/2015  17:25:00      -85.792      -17.948        0.231       49.021       41.784       23.211     2403.032     1745.920      538.772        0.618        0.234       87.649       17.264        0.039      337.495        9.508      868.522
01/07/2015  17:26:00      -88.538       -9.226        1.076       55.773       47.863       32.722     3110.601     2290.855     1070.740        0.720        0.324       89.017       31.606        0.126      337.411        9.368      868.526
01/07/2015  17:27:00      -57.039       -4.132       -8.671       46.994       55.334       33.032     2208.431     3061.813     1091.129        0.485        0.318       57.188       23.580        0.170      337.511        9.534      868.521
01/07/2015  17:28:00      -99.675      -16.670      -13.655       42.258       39.872       25.891     1785.773     1589.759      670.360        0.722        0.202      101.059       17.652        0.031      337.597        9.679      868.524
01/07/2015  17:29:00      -73.245      -14.485        3.038       52.064       37.681       31.324     2710.619     1419.879      981.221        0.535        0.256       74.664       25.852        0.120      337.453        9.437      868.522
01/07/2015  17:30:00      -55.826      -15.156        5.496       57.381       56.410       35.952     3292.577     3182.134     1292.576        0.557        0.388       57.847       31.326        0.293      337.619        9.715      868.518
01/07/2015  17:31:00      -89.238       -6.063      -11.679       77.887       37.314       35.149     6066.362     1392.319     1235.435        0.841        0.435       89.444       36.083        0.163      337.613        9.705      868.505
01/07/2015  17:32:00      -23.056       -3.995       12.778       60.234       39.005       34.969     3628.130     1521.386     1222.800        0.354        0.319       23.400       36.951        2.494      337.350        9.264      868.495
01/07/2015  17:33:00      -45.163        4.401        5.788       51.623       39.907       32.522     2664.946     1592.581     1057.687        0.370        0.266       45.376       29.788        0.431      337.228        9.060      868.494
01/07/2015  17:34:00      -75.906      -32.175        4.125       47.476       45.659       23.921     2253.957     2084.720      572.201        0.586        0.246       82.444       21.588        0.069      337.097        8.840      868.490
01/07/2015  17:35:00      -78.858       -3.987        1.779       46.968       48.482       26.473     2206.022     2350.545      700.821        0.575        0.263       78.959       21.699        0.076      337.009        8.694      868.486
01/07/2015  17:36:00      -87.002      -13.390       -7.236       37.785       34.875       23.000     1427.701     1216.252      528.980        0.549        0.159       88.026       21.727        0.061      337.030        8.728      868.494
01/07/2015  17:37:00      -45.592      -22.217        3.290       50.480       38.138       21.679     2548.262     1454.505      469.989        0.353        0.224       50.717       23.978        0.224      336.813        8.367      868.496
01/07/2015  17:38:00     -102.329      -24.308      -12.291       34.233       21.009       21.381     1171.882      441.363      457.139        0.664        0.104      105.176       19.164        0.033      336.837        8.408      868.493
01/07/2015  17:39:00     -104.208      -29.974      -15.394       25.524       21.324       15.411      651.490      454.719      237.484        0.667        0.067      108.433       12.198        0.013      336.807        8.356      868.495
01/07/2015  17:40:00      -88.311      -45.998      -15.753       15.166       16.167       13.771      230.004      261.364      189.652        0.542        0.034       99.572        5.613        0.003      336.795        8.337      868.495
01/07/2015  17:41:00     -120.076      -33.595      -15.595       27.128       21.515       17.051      735.939      462.885      290.744        0.864        0.074      124.687       15.342        0.015      336.798        8.342      868.491
01/07/2015  17:42:00     -102.160      -51.613      -21.959       19.874       25.592       16.443      394.965      654.932      270.360        0.745        0.066      114.457        7.188        0.004      336.768        8.293      868.494
01/07/2015  17:43:00     -108.223      -68.536      -15.869       29.510       20.719       16.345      870.849      429.279      267.170        0.911        0.078      128.099        7.021        0.003      336.739        8.243      868.505
01/07/2015  17:44:00     -131.176      -56.462      -21.652       19.000       20.657       14.373      360.993      426.712      206.574        1.093        0.050      142.811        4.174        0.001      336.693        8.168      868.510
01/07/2015  17:45:00     -157.093      -49.968      -19.992       18.843       17.321       13.833      355.043      300.004      191.361        1.421        0.042      164.848        8.482        0.003      336.684        8.151      868.515
01/07/2015  17:46:00     -140.739      -43.878      -20.486       17.649       13.493       13.416      311.476      182.069      179.980        1.141        0.034      147.420        7.586        0.003      336.726        8.222      868.520
01/07/2015  17:47:00     -124.740      -31.684      -15.231       17.200       14.706       12.443      295.851      216.276      154.816        0.873        0.033      128.701        8.122        0.004      336.772        8.299      868.517
01/07/2015  17:48:00     -123.143      -42.960      -12.029       13.654       19.864       13.519      186.439      394.576      182.775        0.896        0.038      130.421        5.547        0.002      336.835        8.405      868.515
01/07/2015  17:49:00     -129.658      -54.828      -11.939       15.147       16.296       10.856      229.436      265.568      117.859        1.029        0.031      140.774        8.215        0.003      336.723        8.218      868.505
01/07/2015  17:50:00     -124.190      -52.232      -11.395       26.769       18.868       14.691      716.582      355.987      215.816        0.978        0.064      134.726       14.325        0.011      336.841        8.412      868.496
01/07/2015  17:51:00     -125.189      -41.153      -14.667       17.288       23.533       14.020      298.874      553.819      196.555        0.931        0.052      131.780        9.138        0.005      336.828        8.391      868.490
01/07/2015  17:52:00     -123.288      -39.296      -10.896       19.213       23.136       11.910      369.127      535.262      141.845        0.895        0.052      129.399        7.524        0.003      336.826        8.389      868.481
01/07/2015  17:53:00     -124.728      -49.583      -11.392       15.102       18.568       12.976      228.061      344.785      168.365        0.944        0.037      134.222        7.149        0.003      336.819        8.379      868.483
01/07/2015  17:54:00     -139.601      -47.726       -7.688       22.033       22.281       17.256      485.450      496.437      297.772        1.155        0.064      147.534       12.513        0.007      336.740        8.246      868.487
01/07/2015  17:55:00     -154.902      -58.897      -10.726       16.865       17.419       13.883      284.424      303.407      192.742        1.418        0.039      165.721        9.308        0.003      336.725        8.221      868.486
01/07/2015  17:56:00     -133.361      -49.998       -5.803       20.707       25.371       14.770      428.784      643.687      218.161        1.080        0.065      142.425       11.225        0.006      336.757        8.273      868.485
01/07/2015  17:57:00     -134.021      -50.685       -8.946       45.852       29.135       18.945     2102.364      848.833      358.930        1.196        0.166      143.285       23.985        0.028      336.694        8.170      868.475
01/07/2015  17:58:00     -100.227      -63.127       -7.226       29.359       24.272       13.350      861.952      589.122      178.224        0.786        0.081      118.450       11.779        0.010      336.678        8.142      868.477
01/07/2015  17:59:00     -106.728      -49.146      -10.062       18.231       13.246        8.896      332.381      175.469       79.141        0.725        0.029      117.500        7.444        0.004      336.661        8.114      868.474
01/07/2015  18:00:00      -86.359      -45.400      -11.641       16.750       11.697       14.501      280.561      136.828      210.267        0.514        0.031       97.565        8.938        0.008      336.660        8.113      868.480
01/07/2015  18:01:00     -101.625      -42.471      -12.065       13.026       13.839       10.514      169.674      191.507      110.535        0.637        0.024      110.143        5.462        0.002      336.673        8.135      868.488
01/07/2015  18:02:00     -118.013      -67.785       -8.390       20.527       22.246       13.917      421.373      494.904      193.675        0.985        0.055      136.095        5.644        0.002      336.596        8.004      868.485
01/07/2015  18:03:00     -126.483      -69.131       -4.688       37.507       28.289       18.208     1406.753      800.293      331.528        1.167        0.127      144.143       19.095        0.018      336.588        7.992      868.486
01/07/2015  18:04:00     -130.323      -78.553       -2.787       27.902       20.753       18.105      778.532      430.697      327.797        1.235        0.077      152.167       11.236        0.005      336.581        7.979      868.490
01/07/2015  18:05:00     -123.471      -63.677       -4.997       27.313       20.080       17.034      745.980      403.212      290.163        1.038        0.072      138.924       17.514        0.016      336.513        7.866      868.485
01/07/2015  18:06:00     -112.665      -47.103      -10.210       13.544       20.226       10.932      183.452      409.087      119.513        0.786        0.036      122.115        8.140        0.004      336.558        7.942      868.484
01/07/2015  18:07:00     -113.424      -55.969       -5.800       24.725       25.925       12.992      611.340      672.091      168.800        0.874        0.073      126.481       14.777        0.014      336.538        7.910      868.478
01/07/2015  18:08:00     -116.978      -47.487       -3.885       30.618       20.335       15.109      937.485      413.504      228.275        0.877        0.079      126.249       13.377        0.011      336.487        7.822      868.478
01/07/2015  18:09:00     -123.127      -49.805       -6.497       34.216       17.630       17.054     1170.732      310.831      290.823        0.973        0.089      132.818       16.765        0.016      336.484        7.818      868.481
01/07/2015  18:10:00      -97.470      -52.262        0.926       36.274       23.895       15.933     1315.801      570.990      253.855        0.719        0.107      110.597       14.044        0.016      336.432        7.730      868.490
01/07/2015  18:11:00      -68.162      -58.463        3.057       46.872       25.343       22.658     2196.945      642.270      513.368        0.571        0.168       89.799       24.471        0.074      336.424        7.718      868.501
01/07/2015  18:12:00      -69.930      -60.290        4.771       34.423       25.195       20.804     1184.964      634.784      432.824        0.540        0.113       92.331       15.842        0.029      336.452        7.762      868.527
01/07/2015  18:13:00      -92.754      -42.267        4.258       43.305       36.014       25.306     1875.330     1296.977      640.413        0.711        0.191      101.931       22.803        0.050      336.474        7.800      868.550
01/07/2015  18:14:00      -58.383      -50.333        7.888       42.737       34.195       23.254     1826.426     1169.329      540.743        0.477        0.177       77.084       22.571        0.086      336.499        7.842      868.565
01/07/2015  18:15:00      -26.361      -36.261        5.950       33.487       30.026       20.077     1121.406      901.581      403.083        0.224        0.121       44.830       19.021        0.180      336.499        7.843      868.587
01/07/2015  18:16:00      -80.494      -73.030       -0.638       32.812       34.391       19.814     1076.623     1182.769      392.602        0.723        0.133      108.686       14.076        0.017      336.612        8.031      868.612
01/07/2015  18:17:00     -127.731      -76.330       -2.936       33.369       24.471       22.393     1113.522      598.813      501.462        1.218        0.111      148.800       19.353        0.017      336.621        8.047      868.639
01/07/2015  18:18:00     -127.199      -78.184        0.217       49.725       26.095       25.052     2472.607      680.970      627.623        1.304        0.189      149.306       20.791        0.019      336.567        7.957      868.647
01/07/2015  18:19:00     -126.787      -75.899        4.556       50.610       40.601       28.544     2561.348     1648.409      814.743        1.344        0.251      147.769       27.536        0.035      336.533        7.898      868.663
01/07/2015  18:20:00     -138.227      -83.575       -1.662       44.263       49.777       25.096     1959.180     2477.732      629.798        1.558        0.253      161.529       24.127        0.022      336.560        7.944      868.665
01/07/2015  18:21:00     -150.881      -68.654       -0.350       66.299       38.910       25.217     4395.553     1513.956      635.898        1.701        0.327      165.766       31.094        0.035      336.569        7.960      868.660
01/07/2015  18:22:00     -160.303      -66.929        0.231       44.650       27.461       21.112     1993.618      754.099      445.728        1.668        0.160      173.714       22.104        0.016      336.463        7.782      868.652
01/07/2015  18:23:00     -132.023      -77.065        0.398       59.692       52.265       30.837     3563.079     2731.607      950.918        1.531        0.362      152.870       24.319        0.025      336.377        7.636      868.632
01/07/2015  18:24:00     -146.594      -43.722       -0.686       59.299       57.347       25.651     3516.363     3288.735      657.953        1.543        0.373      152.975       29.841        0.038      336.401        7.678      868.632
01/07/2015  18:25:00     -137.255      -27.894       -6.790       57.184       31.858       23.982     3269.973     1014.940      575.149        1.226        0.243      140.060       28.107        0.040      336.340        7.574      868.613
01/07/2015  18:26:00     -120.768      -36.360      -10.186       38.849       38.791       27.570     1509.246     1504.741      760.092        0.989        0.189      126.123       20.318        0.026      336.361        7.612      868.615
01/07/2015  18:27:00     -129.158      -58.655      -13.175       51.738       37.251       22.428     2676.812     1387.642      503.011        1.243        0.228      141.853       18.195        0.016      336.386        7.652      868.610
01/07/2015  18:28:00     -147.487      -51.396      -12.274       24.066       36.533       18.065      579.160     1334.626      326.354        1.339        0.112      156.185       10.202        0.004      336.358        7.606      868.621
01/07/2015  18:29:00     -154.174      -54.990      -18.578       27.054       32.326       21.700      731.898     1044.996      470.868        1.469        0.112      163.688       17.826        0.012      336.306        7.519      868.623
01/07/2015  18:30:00     -133.766      -54.490       -3.373       37.039       36.297       26.601     1371.858     1317.443      707.627        1.213        0.170      144.439       22.761        0.025      336.239        7.408      868.643
01/07/2015  18:31:00     -151.260      -28.193      -11.374       36.922       27.727       23.937     1363.226      768.789      572.959        1.325        0.135      153.865       21.100        0.019      336.453        7.765      868.661
01/07/2015  18:32:00     -151.159        7.004      -16.625       64.746       39.599       36.539     4192.001     1568.092     1335.105        1.513        0.355      151.321       41.854        0.077      336.466        7.785      868.682
01/07/2015  18:33:00     -172.253       -6.658      -11.564       54.954       38.054       34.801     3019.904     1448.132     1211.087        1.776        0.284      172.382       35.140        0.042      336.579        7.975      868.693
01/07/2015  18:34:00     -189.039       11.655      -16.040       40.511       39.249       23.086     1641.159     1540.470      532.964        1.992        0.186      189.398       19.921        0.011      336.565        7.951      868.706
01/07/2015  18:35:00     -128.740       31.197       -3.032       40.251       37.487       29.416     1620.147     1405.276      865.282        1.072        0.195      132.467       21.015        0.025      336.918        8.541      868.703
01/07/2015  18:36:00     -112.729       12.046       -0.351       50.374       35.311       29.613     2537.577     1246.832      876.904        0.876        0.233      113.371       29.601        0.068      336.872        8.464      868.714
01/07/2015  18:37:00      -86.670       -7.870        6.023       50.431       50.168       31.839     2543.318     2516.848     1013.739        0.684        0.304       87.026       29.079        0.112      336.624        8.050      868.698
01/07/2015  18:38:00     -104.077        9.316       -3.285       51.337       38.269       26.098     2635.479     1464.511      681.085        0.785        0.239      104.493       18.579        0.032      336.602        8.015      868.694
01/07/2015  18:39:00     -115.649       46.669       -5.573       45.220       34.540       26.451     2044.870     1193.014      699.632        0.976        0.197      124.711       24.997        0.040      336.582        7.982      868.675
01/07/2015  18:40:00      -82.807       -0.368       -2.313       62.038       42.773       20.925     3848.658     1829.497      437.876        0.649        0.306       82.808       20.602        0.062      336.417        7.706      868.677
01/07/2015  18:41:00      -63.334       -8.588        1.236       48.380       36.240       25.744     2340.646     1313.316      662.732        0.420        0.216       63.913       27.846        0.190      336.279        7.473      868.676
01/07/2015  18:42:00      -31.625      -40.795       -2.430       43.038       39.277       23.674     1852.262     1542.682      560.440        0.331        0.198       51.618       25.054        0.236      335.972        6.960      868.681
01/07/2015  18:43:00      -59.195      -34.322       -8.278       39.482       20.492       18.393     1558.793      419.907      338.302        0.353        0.116       68.426       14.825        0.047      335.865        6.783      868.691
01/07/2015  18:44:00      -88.322      -56.045       -0.923       33.898       30.345       18.040     1149.077      920.810      325.448        0.667        0.120      104.604       11.712        0.013      335.866        6.783      868.709
01/07/2015  18:45:00     -115.370      -47.289       -4.134       23.034       18.124       10.789      530.564      328.463      116.394        0.827        0.049      124.685        9.377        0.006      335.907        6.852      868.714
01/07/2015  18:46:00      -56.261      -37.436        3.411       38.561       25.433       20.446     1486.936      646.835      418.058        0.356        0.128       67.577       19.322        0.082      335.836        6.735      868.727
01/07/2015  18:47:00      -55.368      -54.306        1.382       50.800       32.794       21.190     2580.662     1075.463      449.005        0.506        0.205       77.555       25.436        0.108      335.950        6.924      868.732
01/07/2015  18:48:00      -76.343      -74.551       -3.412       32.359       28.426       16.573     1047.103      808.037      274.660        0.676        0.106      106.706       15.625        0.021      336.083        7.147      868.724
01/07/2015  18:49:00      -74.094      -41.126        7.455       36.408       30.110       20.624     1325.575      906.587      425.339        0.495        0.133       84.742       18.766        0.049      335.860        6.776      868.721
01/07/2015  18:50:00      -90.953      -86.417        0.909       32.391       32.953       22.291     1049.174     1085.875      496.897        0.919        0.132      125.461       23.230        0.034      335.955        6.932      868.721
01/07/2015  18:51:00      -72.033      -57.076        1.306       39.104       22.624       19.666     1529.118      511.841      386.733        0.544        0.121       91.905       17.789        0.037      335.828        6.722      868.727
01/07/2015  18:52:00      -95.731      -53.745        0.068       28.289       20.809       18.655      800.245      433.009      348.020        0.682        0.079      109.786       13.503        0.015      335.905        6.850      868.721
01/07/2015  18:53:00      -78.281      -55.048       -5.126       33.647       27.327       13.754     1132.110      746.758      189.171        0.563        0.103       95.698       11.010        0.013      335.875        6.800      868.732
01/07/2015  18:54:00      -83.410      -41.909       -0.336       28.030       29.669       13.773      785.664      880.251      189.694        0.528        0.093       93.347       10.993        0.014      335.766        6.618      868.732
01/07/2015  18:55:00     -106.788      -50.426       -6.748       15.179       21.110       16.296      230.412      445.626      265.555        0.747        0.047      118.095        7.378        0.004      335.727        6.555      868.742
01/07/2015  18:56:00     -107.545      -43.586      -11.785       17.728       24.294       14.254      314.286      590.177      203.179        0.736        0.055      116.042       10.697        0.008      335.759        6.608      868.752
01/07/2015  18:57:00     -109.113      -38.244       -6.006       31.998       29.367       15.344     1023.889      862.437      235.440        0.776        0.106      115.621        5.729        0.002      335.762        6.612      868.750
01/07/2015  18:58:00     -145.435      -66.721       -8.022       34.794       35.030       22.376     1210.635     1227.104      500.698        1.430        0.147      160.010       14.915        0.009      335.757        6.602      868.740
01/07/2015  18:59:00     -123.291      -56.209        0.479       37.103       33.964       23.103     1376.642     1153.559      533.762        1.071        0.153      135.499       16.419        0.015      335.734        6.567      868.733
01/07/2015  19:00:00     -138.493      -66.855       -4.856       37.923       26.398       18.639     1438.161      696.875      347.424        1.308        0.124      153.785       18.988        0.015      335.726        6.552      868.732
01/07/2015  19:01:00     -117.748      -55.783        4.281       34.360       39.703       19.019     1180.595     1576.330      361.713        1.006        0.156      130.294       18.272        0.020      335.723        6.546      868.724
01/07/2015  19:02:00     -116.594      -51.095       -0.903       36.736       28.738       23.622     1349.500      825.886      557.982        0.947        0.137      127.298       20.255        0.025      335.682        6.478      868.727
01/07/2015  19:03:00     -141.328      -35.135      -10.080       32.608       31.255       20.609     1063.288      976.850      424.717        1.189        0.123      145.630       15.183        0.011      335.722        6.546      868.724
01/07/2015  19:04:00     -151.464      -50.608       -2.270       39.331       39.057       21.829     1546.953     1525.480      476.516        1.453        0.177      159.695       19.287        0.015      335.678        6.472      868.730
01/07/2015  19:05:00     -144.834      -67.170       -4.816       34.610       36.479       23.592     1197.845     1330.746      556.601        1.430        0.154      159.651       21.426        0.018      335.631        6.395      868.730
01/07/2015  19:06:00     -146.124      -62.128       -6.378       29.228       37.604       18.514      854.273     1414.032      342.777        1.393        0.131      158.783       14.805        0.009      335.643        6.415      868.735
01/07/2015  19:07:00     -147.067      -84.084       -4.080       36.406       26.658       21.171     1325.367      710.674      448.208        1.560        0.124      169.407       20.518        0.015      335.618        6.371      868.745
01/07/2015  19:08:00     -103.952      -45.353        2.878       42.106       35.381       18.617     1772.907     1251.782      346.609        0.812        0.169      113.415       17.933        0.025      335.579        6.307      868.740
01/07/2015  19:09:00     -143.816      -56.603       -0.882       29.405       27.953       20.201      864.628      781.364      408.089        1.297        0.103      154.554       16.272        0.011      335.514        6.199      868.750
01/07/2015  19:10:00     -133.331      -67.323       -8.049       24.810       21.610       18.413      615.546      466.973      339.034        1.190        0.071      149.364       13.761        0.008      335.488        6.155      868.746
01/07/2015  19:11:00     -140.175      -56.333       -6.633       24.712       22.278       17.002      610.659      496.320      289.058        1.213        0.070      151.071       15.007        0.010      335.458        6.105      868.739
01/07/2015  19:12:00     -140.673      -51.745       -6.330       24.110       22.271       17.525      581.274      495.977      307.123        1.195        0.069      149.888       16.040        0.011      335.445        6.083      868.745
01/07/2015  19:13:00     -119.981      -69.900       -6.454       29.612       29.903       21.742      876.858      894.217      472.727        1.078        0.112      138.858       18.826        0.018      335.405        6.017      868.740
01/07/2015  19:14:00     -140.520      -53.025       -4.021       27.879       23.808       17.410      777.263      566.827      303.111        1.211        0.082      150.191       12.377        0.007      335.342        5.912      868.759
01/07/2015  19:15:00     -123.645      -38.648       -7.847       24.887       21.166       16.455      619.383      448.004      270.754        0.909        0.067      129.545       10.062        0.006      335.346        5.917      868.762
01/07/2015  19:16:00     -118.176      -46.311        1.493       33.706       28.480       18.961     1136.084      811.125      359.516        0.921        0.115      126.926       15.985        0.016      335.328        5.888      868.774
01/07/2015  19:17:00     -133.247      -38.788       -7.829       23.601       26.766       15.593      557.007      716.409      243.146        1.042        0.076      138.778       15.240        0.012      335.280        5.807      868.783
01/07/2015  19:18:00     -118.449      -57.565      -15.731       19.013       20.161       16.160      361.501      406.466      261.148        0.931        0.051      131.696        8.982        0.005      335.254        5.764      868.787
01/07/2015  19:19:00      -97.073      -31.252      -13.634       35.896       30.733       19.571     1288.503      944.501      383.023        0.660        0.131      101.980       18.685        0.034      335.239        5.740      868.794
01/07/2015  19:20:00      -83.106      -25.021       -7.051       35.110       27.307       24.267     1232.724      745.695      588.880        0.507        0.128       86.791       22.333        0.066      335.150        5.593      868.793
01/07/2015  19:21:00      -69.853      -34.938      -17.552       41.802       31.789       17.588     1747.446     1010.521      309.332        0.474        0.153       78.103       16.220        0.043      335.168        5.624      868.788
01/07/2015  19:22:00      -71.247      -33.625      -12.095       41.381       40.873       27.721     1712.386     1670.579      768.454        0.525        0.208       78.783       18.682        0.056      335.097        5.507      868.785
01/07/2015  19:23:00     -103.417      -33.447      -25.115       31.616       28.450       22.105      999.544      809.407      488.613        0.737        0.115      108.692        4.288        0.002      335.137        5.571      868.773
01/07/2015  19:24:00     -102.024      -45.815      -20.118       26.132       26.354       18.992      682.889      694.556      360.682        0.733        0.087      111.839        2.813        0.001      335.101        5.512      868.767
01/07/2015  19:25:00      -49.071      -50.020       -5.362       37.302       35.799       23.045     1391.474     1281.565      531.064        0.407        0.160       70.071       22.603        0.104      335.071        5.461      868.751
01/07/2015  19:26:00      -66.600      -44.423       -1.141       28.918       26.636       20.983      836.242      709.480      440.303        0.420        0.099       80.057       12.503        0.024      335.015        5.370      868.740
01/07/2015  19:27:00      -98.116      -42.476       -8.675       34.191       24.881       21.175     1168.992      619.078      448.373        0.687        0.112      106.916       16.815        0.025      335.007        5.356      868.724
01/07/2015  19:28:00      -91.990      -45.843      -17.404       23.800       33.273       16.277      566.442     1107.089      264.931        0.640        0.097      102.780       15.166        0.022      335.037        5.407      868.712
01/07/2015  19:29:00      -90.885      -48.520      -20.491       29.755       21.329       15.236      885.351      454.906      232.136        0.630        0.079      103.025        9.244        0.008      335.077        5.471      868.707
01/07/2015  19:30:00     -119.352      -31.923      -13.903       14.213       18.537       12.441      202.010      343.631      154.788        0.808        0.035      123.547        6.427        0.003      335.078        5.475      868.688
01/07/2015  19:31:00      -97.827      -32.338      -14.161       23.566       19.278       13.321      555.371      371.644      177.447        0.596        0.055      103.033       11.793        0.013      335.074        5.468      868.688
01/07/2015  19:32:00      -77.700      -37.496      -10.581       14.986       13.489       10.929      224.584      181.942      119.448        0.404        0.026       86.274        8.819        0.010      335.084        5.484      868.681
01/07/2015  19:33:00     -116.116      -20.876      -10.782       31.085       20.976       14.236      966.274      439.975      202.668        0.782        0.080      117.978       13.758        0.014      335.051        5.429      868.681
01/07/2015  19:34:00      -94.439      -30.341       -6.542       29.817       27.575       14.722      889.053      760.368      216.728        0.587        0.093       99.193       13.459        0.018      335.038        5.407      868.682
01/07/2015  19:35:00      -45.396      -40.065        0.260       33.578       26.885       20.596     1127.478      722.820      424.191        0.297        0.114       60.548       19.583        0.105      335.030        5.395      868.687
01/07/2015  19:36:00      -56.472      -28.689        2.063       33.598       29.516       16.096     1128.839      871.201      259.077        0.314        0.113       63.341       15.869        0.063      335.012        5.364      868.696
01/07/2015  19:37:00      -41.250      -36.149        1.475       21.688       16.595       15.955      470.361      275.409      254.572        0.201        0.050       54.848       12.901        0.055      335.028        5.390      868.707
01/07/2015  19:38:00      -73.347      -34.098       -1.644       33.713       24.634       15.476     1136.578      606.849      239.506        0.426        0.099       80.886       15.104        0.035      335.028        5.391      868.723
01/07/2015  19:39:00      -82.462      -28.284      -12.419       39.324       17.518       15.553     1546.373      306.887      241.895        0.492        0.105       87.178       16.370        0.035      335.026        5.386      868.722
01/07/2015  19:40:00      -68.716      -46.378       -9.509       34.133       22.302       17.622     1165.072      497.373      310.526        0.447        0.099       82.902       12.309        0.022      334.977        5.306      868.730
01/07/2015  19:41:00      -96.078      -46.328       -6.514       37.520       19.079       18.131     1407.769      364.016      328.735        0.676        0.105      106.664       19.490        0.033      334.941        5.247      868.737
01/07/2015  19:42:00      -87.367      -49.278       -5.814       19.339       18.348       13.988      373.978      336.665      195.651        0.550        0.045      100.306       10.219        0.010      334.989        5.326      868.748
01/07/2015  19:43:00      -80.731      -49.095        4.017       21.627       24.385       19.477      467.710      594.625      379.372        0.519        0.072       94.487       16.921        0.032      334.987        5.322      868.763
01/07/2015  19:44:00      -99.234      -54.480       -1.052       28.139       19.628       16.587      791.809      385.260      275.117        0.713        0.073      113.206       17.377        0.024      334.997        5.340      868.758
01/07/2015  19:45:00      -75.842      -39.260       -4.740       22.903       24.434       15.038      524.534      597.002      226.147        0.433        0.067       85.402       12.945        0.023      334.988        5.325      868.768
01/07/2015  19:46:00      -78.735      -55.295        1.782       28.445       18.089       15.590      809.132      327.194      243.057        0.532        0.069       96.212       16.577        0.030      335.000        5.345      868.762
01/07/2015  19:47:00      -67.754      -40.989       -2.649       22.739       22.955       13.414      517.053      526.910      179.939        0.375        0.061       79.188       12.434        0.025      334.950        5.260      868.763
01/07/2015  19:48:00      -79.723      -51.247       -2.695       20.233       14.531       10.796      409.359      211.138      116.563        0.486        0.037       94.773        8.120        0.007      334.952        5.264      868.767
01/07/2015  19:49:00      -91.181      -57.226      -16.175       19.117       13.131        9.555      365.447      172.410       91.306        0.624        0.031      107.651        4.241        0.002      334.992        5.331      868.761
01/07/2015  19:50:00     -102.851      -50.866      -14.931       12.161       13.045        9.958      147.882      170.171       99.161        0.690        0.021      114.742        7.964        0.005      334.973        5.298      868.776
01/07/2015  19:51:00     -102.843      -54.145      -12.655       15.724       14.103       13.328      247.243      198.907      177.634        0.715        0.031      116.226        8.887        0.006      335.028        5.389      868.768
01/07/2015  19:52:00     -101.081      -55.424      -17.093        9.854       15.377        8.566       97.108      236.454       73.376        0.699        0.020      115.279        6.521        0.003      335.067        5.455      868.765
01/07/2015  19:53:00     -105.953      -51.830      -12.528        9.172       13.925        6.843       84.122      193.911       46.824        0.720        0.016      117.950        4.443        0.001      335.039        5.409      868.773
01/07/2015  19:54:00     -102.932      -32.344       -7.591       18.818       16.066       11.036      354.102      258.112      121.804        0.622        0.037      107.894       10.252        0.009      334.961        5.279      868.767
01/07/2015  19:55:00     -109.434      -39.084      -13.657        7.703       12.588        8.154       59.332      158.465       66.494        0.699        0.014      116.204        6.961        0.004      334.957        5.272      868.755
01/07/2015  19:56:00     -115.887      -35.762      -14.489       10.380       11.917       11.438      107.736      142.006      130.818        0.765        0.019      121.279        6.004        0.002      334.969        5.292      868.749
01/07/2015  19:57:00     -119.990      -40.919      -14.751       14.037       16.340       12.207      197.036      266.985      148.999        0.845        0.031      126.776        8.912        0.005      334.989        5.323      868.738
01/07/2015  19:58:00      -95.643      -45.249       -8.115       18.725       21.885       12.302      350.637      478.941      151.337        0.612        0.049      105.807       11.808        0.012      334.986        5.321      868.732
01/07/2015  19:59:00     -104.219      -51.288       -7.247       12.200       10.627        9.655      148.839      112.937       93.226        0.695        0.018      116.156        7.196        0.004      334.966        5.288      868.724
01/07/2015  20:00:00     -114.016      -53.179      -13.981       10.109        9.229        8.221      102.183       85.182       67.580        0.814        0.013      125.808        4.053        0.001      335.026        5.387      868.711
01/07/2015  20:01:00     -106.854      -51.046      -17.239       12.415        9.217       10.581      154.139       84.950      111.949        0.734        0.018      118.420        7.575        0.004      334.987        5.322      868.715
01/07/2015  20:02:00     -108.695      -51.395      -13.122       14.617       13.505       10.124      213.652      182.395      102.495        0.756        0.025      120.233        7.734        0.004      334.974        5.300      868.709
01/07/2015  20:03:00      -93.990      -38.154      -12.625       12.466       17.040       11.340      155.394      290.354      128.602        0.551        0.029      101.439        3.715        0.001      334.955        5.268      868.698
01/07/2015  20:04:00      -97.831      -46.047       -7.449       15.904       10.422        9.884      252.926      108.626       97.695        0.610        0.023      108.126        5.782        0.003      334.895        5.169      868.696
01/07/2015  20:05:00     -100.080      -45.195      -15.310       11.468       10.113        8.644      131.508      102.266       74.726        0.630        0.015      109.811        4.120        0.001      334.848        5.091      868.696
01/07/2015  20:06:00     -103.148      -41.030      -13.620       11.259       12.602        9.576      126.774      158.798       91.702        0.644        0.019      111.009        4.209        0.001      334.873        5.132      868.695
01/07/2015  20:07:00     -111.793      -41.153      -17.876       10.669       10.259        9.825      113.823      105.248       96.533        0.741        0.016      119.127        5.343        0.002      334.869        5.125      868.703
01/07/2015  20:08:00     -103.292      -36.986      -21.299        9.779       14.280        8.815       95.620      203.922       77.701        0.643        0.019      109.714        6.663        0.004      334.849        5.093      868.707
01/07/2015  20:09:00     -115.018      -34.510      -14.682       17.341       17.057       12.126      300.726      290.951      147.033        0.769        0.037      120.083        7.877        0.004      334.843        5.083      868.704
01/07/2015  20:10:00     -115.500      -44.045       -8.473       24.118       13.392       13.406      581.700      179.353      179.722        0.815        0.047      123.613       13.813        0.012      334.843        5.083      868.714
01/07/2015  20:11:00     -111.185      -43.729      -17.876       12.469       12.509       10.831      155.476      156.482      117.315        0.751        0.021      119.475        7.345        0.004      334.824        5.052      868.702
01/07/2015  20:12:00      -87.877      -45.454       -8.142       29.070       18.360       12.462      845.086      337.087      155.308        0.560        0.067       98.936       12.930        0.017      334.737        4.907      868.690
01/07/2015  20:13:00      -84.834      -32.365       -4.455       30.548       20.111       18.871      933.200      404.466      356.118        0.498        0.085       90.798       19.912        0.048      334.675        4.804      868.683
01/07/2015  20:14:00      -82.193       -0.656       -8.854       35.100       32.279       19.354     1231.992     1041.906      374.578        0.474        0.132       82.196       20.585        0.063      334.721        4.880      868.668
01/07/2015  20:15:00      -90.067        0.484      -10.403       38.342       32.710       25.554     1470.131     1069.953      653.012        0.571        0.160       90.068       22.847        0.064      334.899        5.178      868.651
01/07/2015  20:16:00     -119.740       -5.151      -12.781       33.316       28.723       19.838     1109.931      824.985      393.529        0.843        0.116      119.851       19.045        0.025      334.836        5.071      868.634
01/07/2015  20:17:00      -66.252      -18.258       -4.008       28.007       27.501       18.195      784.380      756.327      331.064        0.330        0.094       68.721       16.861        0.060      334.789        4.994      868.630
01/07/2015  20:18:00      -40.177       -0.788       -2.954       29.091       24.190       20.992      846.280      585.173      440.682        0.175        0.094       40.185       15.874        0.156      335.042        5.413      868.626
01/07/2015  20:19:00      -69.767        0.116      -15.635       35.564       27.654       16.741     1264.832      764.745      280.250        0.371        0.115       69.768       13.910        0.040      335.139        5.574      868.605
01/07/2015  20:20:00      -60.093        4.200      -13.247       34.621       26.219       16.959     1198.598      687.421      287.603        0.299        0.109       60.239       13.911        0.053      335.156        5.602      868.579
01/07/2015  20:21:00     -101.342        7.651      -16.683       29.176       29.686       21.945      851.230      881.284      481.575        0.641        0.111      101.630       14.813        0.021      335.236        5.736      868.567
01/07/2015  20:22:00      -57.551       -1.780       -6.512       42.855       29.666       21.717     1836.509      880.062      471.621        0.327        0.159       57.579       19.614        0.116      335.203        5.682      868.562
01/07/2015  20:23:00      -65.831        3.386      -15.909       31.901       28.689       18.616     1017.665      823.047      346.553        0.339        0.109       65.918       16.660        0.064      335.217        5.705      868.557
01/07/2015  20:24:00      -78.373       -1.103       -7.341       33.595       29.952       23.138     1128.646      897.148      535.362        0.438        0.128       78.381       19.121        0.060      335.385        5.984      868.546
01/07/2015  20:25:00     -101.791      -21.794      -12.547       28.360       27.504       20.786      804.271      756.464      432.039        0.649        0.100      104.098       15.676        0.023      335.036        5.403      868.539
01/07/2015  20:26:00      -68.366      -21.056       -6.357       36.004       29.774       17.870     1296.304      886.462      319.346        0.383        0.125       71.535       20.416        0.081      335.017        5.372      868.539
01/07/2015  20:27:00      -63.812      -47.684      -11.771       26.332       16.591       15.842      693.378      275.265      250.960        0.385        0.061       79.660       15.802        0.039      334.733        4.901      868.536
01/07/2015  20:28:00      -75.706      -53.802      -19.214       21.619       20.172       12.702      467.376      406.927      161.329        0.502        0.052       92.876       11.035        0.014      334.695        4.839      868.520
01/07/2015  20:29:00      -76.687      -57.912      -16.449       15.341       20.530       13.434      235.345      421.489      180.471        0.517        0.042       96.097       10.605        0.012      334.699        4.844      868.503
01/07/2015  20:30:00     -100.597      -40.542      -20.004       13.156       16.918        8.633      173.068      286.205       74.527        0.635        0.027      108.459        5.036        0.002      334.707        4.858      868.487
01/07/2015  20:31:00     -115.304      -43.528      -19.862       18.132       12.232        9.513      328.771      149.615       90.498        0.808        0.028      123.246        3.765        0.001      334.698        4.842      868.480
01/07/2015  20:32:00     -121.898      -54.081      -11.988       22.769       14.720       12.476      518.418      216.680      155.648        0.941        0.045      133.357       12.088        0.008      334.712        4.865      868.489
01/07/2015  20:33:00      -80.748      -59.037      -10.851       32.425       18.842       15.621     1051.382      355.003      244.007        0.589        0.083      100.028       11.901        0.014      334.729        4.894      868.495
01/07/2015  20:34:00     -109.663      -58.245       -2.136       21.062       17.824       18.558      443.628      317.686      344.416        0.826        0.055      124.171       11.862        0.009      334.716        4.873      868.490
01/07/2015  20:35:00      -87.364      -63.377        3.242       41.654       26.846       20.874     1735.050      720.707      435.706        0.727        0.145      107.931       19.884        0.034      334.674        4.802      868.482
01/07/2015  20:36:00      -78.521      -75.977       -5.042       39.891       45.631       22.471     1591.313     2082.189      504.965        0.807        0.209      109.262       23.666        0.047      334.662        4.782      868.486
01/07/2015  20:37:00      -87.690      -58.888        2.256       33.799       21.448       22.328     1142.346      460.029      498.553        0.663        0.105      105.628       20.534        0.038      334.550        4.597      868.484
01/07/2015  20:38:00      -90.358      -77.660       -5.984       24.601       22.878       14.519      605.226      523.420      210.796        0.779        0.067      119.146        7.542        0.004      334.657        4.773      868.466
01/07/2015  20:39:00     -107.861      -70.520       -0.898       42.901       23.855       20.645     1840.499      569.064      426.196        0.972        0.142      128.868       19.824        0.024      334.632        4.732      868.448
01/07/2015  20:40:00      -94.684      -55.560        4.918       48.898       30.076       24.666     2391.023      904.591      608.420        0.799        0.195      109.781       26.293        0.057      334.613        4.701      868.433
01/07/2015  20:41:00     -117.313      -54.065        4.203       30.485       23.455       21.846      929.359      550.132      477.242        0.933        0.098      129.171       17.126        0.018      334.574        4.635      868.431
01/07/2015  20:42:00     -111.220      -67.186        3.711       32.338       28.084       20.410     1045.749      788.736      416.574        0.957        0.113      129.937       19.223        0.022      334.557        4.606      868.416
01/07/2015  20:43:00     -119.745      -64.960       -4.102       36.348       27.982       22.583     1321.144      782.966      509.974        1.059        0.131      136.230       20.709        0.023      334.585        4.656      868.405
01/07/2015  20:44:00     -121.323      -56.511       -7.333       21.171       21.562       15.191      448.220      464.909      230.758        0.955        0.057      133.839       11.744        0.008      334.549        4.592      868.405
01/07/2015  20:45:00     -109.014      -66.842       -3.213       42.615       24.442       22.675     1816.079      597.389      514.134        0.964        0.146      127.874       21.276        0.028      334.600        4.679      868.414
01/07/2015  20:46:00     -131.864      -61.820       -1.325       30.757       30.616       19.947      946.017      937.316      397.897        1.175        0.114      145.636       16.816        0.013      334.596        4.672      868.411
01/07/2015  20:47:00     -108.582      -54.891        6.865       50.478       27.104       25.914     2548.011      734.629      671.515        0.940        0.198      121.668       26.548        0.048      334.562        4.615      868.394
01/07/2015  20:48:00     -103.973      -52.423        0.539       37.519       29.097       22.833     1407.681      846.635      521.364        0.817        0.139      116.442       21.057        0.033      334.570        4.629      868.396
01/07/2015  20:49:00      -83.576      -58.734       -2.227       32.153       26.441       21.455     1033.842      699.136      460.311        0.632        0.110      102.150       14.634        0.021      334.571        4.632      868.389
01/07/2015  20:50:00     -100.067      -53.186      -15.571       26.091       22.166       14.915      680.727      491.336      222.462        0.724        0.070      113.323        8.056        0.005      334.530        4.563      868.381
01/07/2015  20:51:00      -83.830      -55.683       -2.435       27.790       22.735       16.822      772.309      516.902      282.966        0.585        0.079      100.638       11.995        0.014      334.482        4.483      868.369
01/07/2015  20:52:00      -85.760      -57.710       -4.387       30.164       27.676       16.989      909.884      765.953      288.630        0.633        0.098      103.369       18.298        0.031      334.472        4.469      868.368
01/07/2015  20:53:00      -93.140      -56.526       -5.522       19.739       16.836       12.960      389.634      283.456      167.969        0.637        0.042      108.950        8.070        0.005      334.467        4.458      868.365
01/07/2015  20:54:00      -70.694      -58.468        3.115       29.219       19.447       15.678      853.762      378.167      245.795        0.495        0.074       91.740       15.316        0.028      334.460        4.447      868.353
01/07/2015  20:55:00      -74.457      -51.949       -1.696       21.811       18.380       16.303      475.730      337.829      265.796        0.466        0.054       90.789       14.866        0.027      334.423        4.387      868.340
01/07/2015  20:56:00      -84.105      -51.480       -9.878       13.441       13.932       10.963      180.660      194.104      120.189        0.516        0.025       98.609        5.454        0.003      334.407        4.361      868.337
01/07/2015  20:57:00      -82.146      -36.302       -5.594       13.844       15.160        8.326      191.647      229.822       69.325        0.429        0.025       89.810        7.035        0.006      334.384        4.321      868.341
01/07/2015  20:58:00      -96.002      -44.883      -14.035        7.518        9.038        7.693       56.526       81.692       59.182        0.581        0.010      105.976        2.520        0.001      334.416        4.374      868.334
01/07/2015  20:59:00     -111.432      -55.296      -15.418       12.152       11.354        7.019      147.664      128.915       49.267        0.802        0.016      124.397        3.333        0.001      334.431        4.400      868.321
01/07/2015  21:00:00     -120.335      -59.560      -17.634        9.058       12.886        9.556       82.048      166.039       91.324        0.934        0.017      134.268        6.783        0.003      334.364        4.290      868.328
01/07/2015  21:01:00     -107.340      -61.793      -12.442       13.830       12.159       10.530      191.266      147.836      110.877        0.797        0.022      123.856        7.751        0.004      334.279        4.148      868.325
01/07/2015  21:02:00     -118.416      -57.720      -20.512       10.217       12.836        9.550      104.392      164.763       91.201        0.907        0.018      131.735        7.245        0.003      334.325        4.224      868.317
01/07/2015  21:03:00     -123.174      -53.557      -19.047        9.801       11.179        8.578       96.057      124.960       73.578        0.935        0.015      134.314        3.734        0.001      334.276        4.143      868.312
01/07/2015  21:04:00     -105.091      -51.465      -17.722       16.826       13.610       13.588      283.113      185.236      184.647        0.733        0.033      117.016       10.590        0.008      334.244        4.089      868.317
01/07/2015  21:05:00      -99.076      -48.095      -10.037       19.407       11.966       11.470      376.615      143.191      131.554        0.644        0.033      110.133        8.830        0.006      334.221        4.051      868.318
01/07/2015  21:06:00     -103.182      -52.757       -7.867       13.546       14.162       10.738      183.487      200.568      115.307        0.700        0.025      115.887        8.175        0.005      334.295        4.174      868.316
01/07/2015  21:07:00     -108.319      -54.006       -9.842       11.115       15.125        8.587      123.540      228.754       73.744        0.759        0.021      121.036        5.966        0.002      334.290        4.166      868.331
01/07/2015  21:08:00     -130.022      -53.073      -13.413       11.580       11.914       11.056      134.099      141.937      122.242        1.015        0.020      140.437        5.712        0.002      334.301        4.183      868.332
01/07/2015  21:09:00     -126.995      -56.326      -12.375       18.484       14.097       10.025      341.640      198.713      100.497        1.005        0.032      138.925        7.714        0.003      334.303        4.188      868.328
01/07/2015  21:10:00     -120.572      -60.560      -13.073       11.425       10.564       10.673      130.536      111.607      113.909        0.937        0.018      134.926        6.764        0.003      334.284        4.154      868.330
01/07/2015  21:11:00     -115.507      -55.977      -11.870       19.236       14.637       12.901      370.030      214.254      166.443        0.868        0.038      128.356        9.586        0.006      334.223        4.054      868.338
01/07/2015  21:12:00     -108.807      -59.834       -8.020       16.362       24.042       11.908      267.723      578.004      141.810        0.824        0.049      124.173        9.038        0.005      334.186        3.992      868.339
01/07/2015  21:13:00      -93.104      -58.790       -6.806       22.044       19.531       14.562      485.935      381.442      212.053        0.662        0.054      110.112       11.294        0.011      334.220        4.050      868.331
01/07/2015  21:14:00      -99.976      -62.448      -11.397       18.965       15.582       13.755      359.678      242.792      189.189        0.741        0.040      117.876        4.627        0.002      334.255        4.107      868.338
01/07/2015  21:15:00     -122.114      -70.427      -13.435       13.646       16.820       10.189      186.227      282.916      103.808        1.031        0.029      140.967        6.090        0.002      334.309        4.197      868.331
01/07/2015  21:16:00     -120.524      -78.466      -12.195       13.702       13.203       13.839      187.734      174.307      191.525        1.069        0.028      143.816        6.096        0.002      334.300        4.183      868.320
01/07/2015  21:17:00     -123.935      -76.864      -11.102       21.744       17.699       15.036      472.816      313.248      226.087        1.120        0.051      145.835        5.854        0.002      334.261        4.117      868.321
01/07/2015  21:18:00     -120.042      -70.097       -9.907       22.245       18.134       18.910      494.828      328.841      357.579        1.030        0.059      139.009       11.880        0.007      334.189        3.997      868.328
01/07/2015  21:19:00     -117.272      -64.196      -10.218       16.174       16.913       14.947      261.583      286.066      223.415        0.937        0.039      133.693        9.611        0.005      334.155        3.941      868.323
01/07/2015  21:20:00     -118.704      -46.622      -13.662       12.833       11.402        8.573      164.679      130.008       73.502        0.841        0.018      127.532        4.887        0.001      334.196        4.010      868.316
01/07/2015  21:21:00     -129.679      -55.284       -9.885       14.056       13.982        9.520      197.573      195.506       90.624        1.023        0.024      140.971        6.995        0.002      334.234        4.073      868.315
01/07/2015  21:22:00     -123.606      -60.038      -16.348       14.986       26.112       14.927      224.581      681.824      222.830        1.014        0.056      137.416        9.945        0.005      334.155        3.941      868.308
01/07/2015  21:23:00     -125.682      -60.739      -16.898       24.424       17.702       16.517      596.544      313.375      272.799        1.048        0.059      139.589       10.982        0.006      334.131        3.900      868.294
01/07/2015  21:24:00     -122.953      -64.650      -19.614       22.421       25.072       15.383      502.698      628.589      236.640        1.052        0.068      138.914       13.270        0.009      334.073        3.805      868.281
01/07/2015  21:25:00     -108.043      -60.911      -10.213       37.126       35.376       19.969     1378.373     1251.476      398.766        0.926        0.151      124.030       18.351        0.022      334.037        3.747      868.290
01/07/2015  21:26:00      -59.820      -38.658        7.832       32.866       30.519       21.105     1080.197      931.390      445.408        0.380        0.123       71.224       18.590        0.068      333.973        3.640      868.285
01/07/2015  21:27:00      -66.594      -49.733       -2.022       33.668       26.146       22.928     1133.502      683.616      525.702        0.463        0.117       83.115       19.534        0.055      333.988        3.664      868.286
01/07/2015  21:28:00     -123.324      -28.818       -8.428       33.044       27.860       23.795     1091.926      776.152      566.219        0.927        0.122      126.646       17.854        0.020      333.984        3.657      868.300
01/07/2015  21:29:00      -85.531      -54.004       -4.804       32.442       22.145       19.905     1052.507      490.394      396.204        0.610        0.097      101.154       17.207        0.029      334.004        3.691      868.308
01/07/2015  21:30:00      -93.234      -71.747       -7.493       39.793       24.908       22.491     1583.520      620.418      505.866        0.830        0.135      117.645       19.261        0.027      333.985        3.661      868.309
01/07/2015  21:31:00     -131.911      -67.592       -6.916       29.005       23.404       20.880      841.317      547.757      435.995        1.192        0.091      148.220       15.893        0.011      333.981        3.652      868.314
01/07/2015  21:32:00     -124.657      -43.268       -7.243       33.044       18.130       14.572     1091.881      328.705      212.335        0.955        0.082      131.953       15.410        0.014      334.010        3.702      868.322
01/07/2015  21:33:00     -103.189      -47.483       -3.606       33.935       22.124       14.721     1151.573      489.454      216.718        0.739        0.093      113.590       15.173        0.018      334.010        3.701      868.334
01/07/2015  21:34:00     -108.250      -44.410        2.101       25.677       31.315       17.166      659.287      980.633      294.655        0.781        0.097      117.005       15.420        0.017      333.984        3.659      868.328
01/07/2015  21:35:00      -86.672      -50.959       -1.324       31.978       29.460       23.214     1022.573      867.888      538.880        0.627        0.121      100.543       20.245        0.041      333.936        3.578      868.321
01/07/2015  21:36:00     -102.455      -73.177       -3.427       34.863       27.131       21.206     1215.424      736.118      449.713        0.913        0.120      125.904       10.178        0.007      333.928        3.565      868.314
01/07/2015  21:37:00     -106.676      -64.279        1.120       33.354       24.239       17.108     1112.470      587.534      292.696        0.875        0.100      124.545       15.047        0.015      333.941        3.586      868.306
01/07/2015  21:38:00      -97.505      -61.527        0.255       35.541       25.225       20.691     1263.148      636.295      428.124        0.781        0.116      115.294       19.971        0.030      333.950        3.600      868.295
01/07/2015  21:39:00      -67.943      -50.643        3.364       40.109       29.480       21.701     1608.745      869.074      470.930        0.507        0.147       84.741       23.128        0.074      333.981        3.654      868.282
01/07/2015  21:40:00      -88.370      -45.791        3.344       35.747       27.617       16.627     1277.823      762.711      276.466        0.612        0.116       99.529       15.453        0.024      333.996        3.678      868.279
01/07/2015  21:41:00      -96.161      -52.454        4.373       47.739       28.194       23.334     2279.029      794.929      544.468        0.782        0.181      109.537       21.966        0.040      334.083        3.822      868.286
01/07/2015  21:42:00      -68.580      -47.187        4.460       35.751       31.713       20.947     1278.108     1005.686      438.794        0.484        0.136       83.246       19.574        0.055      334.003        3.689      868.281
01/07/2015  21:43:00      -94.360      -48.690        4.554       39.339       24.002       22.299     1547.573      576.077      497.237        0.696        0.131      106.181       19.641        0.034      334.025        3.724      868.279
01/07/2015  21:44:00     -100.116      -53.177        6.446       47.386       27.359       25.387     2245.436      748.494      644.499        0.826        0.182      113.362       26.673        0.055      334.057        3.778      868.279
01/07/2015  21:45:00     -106.766      -64.267        0.274       30.174       20.495       19.696      910.470      420.046      387.942        0.862        0.086      124.616       15.469        0.015      334.189        3.997      868.284
01/07/2015  21:46:00     -105.690      -56.466        0.663       27.418       24.096       15.991      751.724      580.610      255.712        0.797        0.079      119.828       13.770        0.013      334.255        4.106      868.290
01/07/2015  21:47:00      -92.877      -48.534       -3.442       21.189       16.573       14.312      448.957      274.679      204.823        0.596        0.046      104.794       13.768        0.017      334.201        4.018      868.286
01/07/2015  21:48:00     -103.435      -36.329       -6.026       17.253       15.480       11.120      297.661      239.641      123.645        0.636        0.033      109.629       10.749        0.010      334.214        4.040      868.291
01/07/2015  21:49:00      -90.992      -28.866       -6.195       17.981       16.691       13.936      323.311      278.603      194.215        0.497        0.040       95.461        9.324        0.010      334.118        3.879      868.292
01/07/2015  21:50:00     -113.874      -29.947       -9.339       15.955       17.892       10.403      254.559      320.134      108.222        0.732        0.034      117.746        8.317        0.005      334.111        3.869      868.283
01/07/2015  21:51:00     -119.407      -31.383       -5.849       21.797       17.125        9.336      475.109      293.281       87.156        0.807        0.043      123.462        6.795        0.003      334.160        3.950      868.282
01/07/2015  21:52:00     -109.083      -34.905       -4.086       24.247       15.720       14.849      587.911      247.106      220.481        0.709        0.053      114.532       13.916        0.015      334.153        3.939      868.280
01/07/2015  21:53:00     -131.770      -30.522       -9.940       19.778       15.359       14.471      391.169      235.905      209.422        0.961        0.042      135.258       11.814        0.008      334.070        3.800      868.289
01/07/2015  21:54:00     -118.717      -13.947       -8.092       31.975       23.274       19.549     1022.376      541.670      382.157        0.815        0.097      119.534       20.350        0.029      334.073        3.806      868.289
01/07/2015  21:55:00     -121.430      -37.443      -16.716       19.948       12.884        9.692      397.911      166.003       93.931        0.854        0.033      127.072        8.042        0.004      334.040        3.749      868.282
01/07/2015  21:56:00     -106.394      -25.365      -14.311       15.536       18.628       11.430      241.376      346.994      130.636        0.644        0.036      109.375        9.288        0.007      333.949        3.600      868.270
01/07/2015  21:57:00      -98.121      -19.342      -16.536       15.796       18.455       14.696      249.498      340.599      215.965        0.554        0.040      100.010       10.613        0.011      333.880        3.486      868.253
01/07/2015  21:58:00     -106.148      -26.072      -15.848       29.292       24.058       19.187      858.048      578.811      368.142        0.700        0.090      109.303       19.126        0.031      333.843        3.424      868.236
01/07/2015  21:59:00     -116.558      -36.846      -19.905       22.499       24.884       14.133      506.226      619.210      199.739        0.833        0.066      122.243       12.793        0.011      333.769        3.300      868.238
01/07/2015  22:00:00     -102.925      -23.839      -11.778       22.321       28.904       18.215      498.223      835.421      331.789        0.648        0.083      105.650        9.886        0.009      333.695        3.178      868.233
01/07/2015  22:01:00      -97.615      -15.056      -15.227       23.340       17.084       14.170      544.753      291.848      200.781        0.551        0.052       98.769        9.150        0.009      333.662        3.124      868.228
01/07/2015  22:02:00     -105.120      -28.964      -17.649       17.397       18.089       11.629      302.671      327.206      135.238        0.648        0.038      109.037        8.601        0.006      333.651        3.106      868.216
01/07/2015  22:03:00      -66.560      -46.817       -7.338       19.435       24.087       17.021      377.713      580.204      289.700        0.396        0.062       81.376       11.489        0.020      333.631        3.072      868.215
01/07/2015  22:04:00      -92.556      -66.518      -18.256       15.012       19.036       13.789      225.349      362.380      190.138        0.705        0.039      113.979        7.851        0.005      333.600        3.020      868.217
01/07/2015  22:05:00     -100.109      -43.436      -14.450       17.753       22.652       16.966      315.178      513.111      287.832        0.662        0.056      109.126       10.775        0.010      333.576        2.980      868.215
01/07/2015  22:06:00      -97.702      -40.947      -12.898       33.519       20.937       18.741     1123.555      438.355      351.220        0.665        0.096      105.936       15.459        0.021      333.572        2.973      868.218
01/07/2015  22:07:00      -74.710      -56.083       -6.402       24.957       26.435       22.706      622.854      698.791      515.551        0.530        0.092       93.417       20.667        0.049      333.475        2.813      868.228
01/07/2015  22:08:00      -96.059      -38.553      -12.875       25.083       28.628       17.836      629.137      819.542      318.109        0.632        0.088      103.507       13.096        0.016      333.523        2.890      868.242
01/07/2015  22:09:00      -91.246      -42.356      -14.715       13.986       25.948       15.747      195.596      673.283      247.975        0.573        0.056      100.597       12.014        0.014      333.538        2.916      868.247
01/07/2015  22:10:00      -88.976      -46.064      -18.472       29.888       20.893       16.826      893.304      436.499      283.106        0.600        0.081      100.193       15.560        0.024      333.541        2.922      868.249
01/07/2015  22:11:00      -76.525      -57.208      -14.001       25.280       22.410       16.592      639.067      502.204      275.302        0.537        0.071       95.545        9.053        0.009      333.529        2.903      868.249
01/07/2015  22:12:00      -86.062      -53.503      -14.331       38.851       20.670       18.278     1509.379      427.239      334.072        0.637        0.114      101.337       15.752        0.024      333.528        2.901      868.251
01/07/2015  22:13:00     -123.770      -24.348      -17.241       17.954       20.224       12.846      322.347      409.029      165.031        0.855        0.045      126.142       11.698        0.009      333.570        2.970      868.258
01/07/2015  22:14:00     -121.678      -38.668      -13.056       18.713       20.798       11.187      350.177      432.541      125.145        0.869        0.045      127.674       10.521        0.007      333.603        3.025      868.272
01/07/2015  22:15:00     -101.287      -32.348      -10.878       11.675       16.289        9.706      136.298      265.319       94.214        0.596        0.025      106.327        5.584        0.003      333.650        3.104      868.275
01/07/2015  22:16:00     -115.110      -46.845      -12.711       11.314       11.741       10.575      127.999      137.858      111.835        0.799        0.019      124.277        5.474        0.002      333.655        3.112      868.275
01/07/2015  22:17:00     -101.871      -52.956       -4.928       19.004       16.555       10.420      361.143      274.060      108.567        0.697        0.037      114.813       10.533        0.008      333.646        3.098      868.279
01/07/2015  22:18:00     -104.793      -61.306       -5.785       24.608       17.545       15.913      605.542      307.818      253.208        0.797        0.058      121.408       16.855        0.019      333.616        3.048      868.287
01/07/2015  22:19:00      -93.052      -60.977       -3.352       21.781       16.948       17.433      474.404      287.238      303.910        0.673        0.053      111.251       13.352        0.014      333.619        3.050      868.299
01/07/2015  22:20:00      -98.983      -60.330      -13.160       24.063       17.960       16.957      579.008      322.577      287.523        0.740        0.059      115.919       17.584        0.023      333.646        3.097      868.297
01/07/2015  22:21:00     -117.801      -62.433      -15.621       12.231       14.381        8.739      149.593      206.819       76.371        0.923        0.022      133.323        5.361        0.002      333.601        3.022      868.295
01/07/2015  22:22:00     -117.663      -65.732      -16.673        8.725        8.169        8.726       76.118       66.726       76.143        0.933        0.011      134.779        4.060        0.001      333.615        3.047      868.296
01/07/2015  22:23:00     -107.117      -67.372      -12.984       20.829       14.266       11.764      433.860      203.507      138.382        0.848        0.039      126.542        6.075        0.002      333.578        2.985      868.295
01/07/2015  22:24:00     -118.006      -64.982      -11.719       12.133       17.796        9.303      147.208      316.686       86.545        0.942        0.028      134.715        6.588        0.002      333.617        3.049      868.287
01/07/2015  22:25:00     -124.472      -55.557      -12.950       13.892       17.943        8.643      192.993      321.937       74.696        0.967        0.029      136.308        7.619        0.003      333.555        2.947      868.290
01/07/2015  22:26:00     -119.989      -46.877      -12.672       13.833       19.456       12.759      191.345      378.548      162.804        0.874        0.037      128.821        5.818        0.002      333.542        2.923      868.289
01/07/2015  22:27:00     -130.210      -46.587      -10.003       17.086       14.944       13.117      291.936      223.333      172.052        0.996        0.034      138.293        8.840        0.004      333.545        2.929      868.307
01/07/2015  22:28:00     -128.867      -44.211       -7.417       24.336       18.793       15.465      592.239      353.189      239.171        0.990        0.059      136.240       15.002        0.012      333.616        3.047      868.307
01/07/2015  22:29:00     -139.490      -40.744      -15.052       13.532       13.616        9.829      183.115      185.399       96.602        1.090        0.023      145.319        7.135        0.002      333.609        3.036      868.305
01/07/2015  22:30:00     -136.715      -52.182      -17.148       13.566       12.616       11.205      184.032      159.166      125.563        1.109        0.023      146.335        6.225        0.002      333.552        2.941      868.303
01/07/2015  22:31:00     -140.796      -59.423      -15.620       15.021       11.984       10.338      225.641      143.618      106.869        1.204        0.024      152.822        7.656        0.003      333.542        2.925      868.305
01/07/2015  22:32:00     -127.322      -57.201       -9.563       13.842       14.523       10.397      191.607      210.930      108.101        1.004        0.026      139.581        9.937        0.005      333.521        2.889      868.308
01/07/2015  22:33:00     -122.379      -70.837      -11.713       18.662       16.997       14.271      348.284      288.887      203.663        1.049        0.042      141.402       11.466        0.007      333.502        2.858      868.308
01/07/2015  22:34:00     -120.133      -59.962      -15.212       25.481       20.233       16.947      649.267      409.381      287.186        0.980        0.067      134.266       13.284        0.010      333.463        2.794      868.299
01/07/2015  22:35:00     -113.171      -56.908      -17.632       18.912       16.758       11.811      357.670      280.840      139.499        0.857        0.039      126.674        7.127        0.003      333.464        2.794      868.291
01/07/2015  22:36:00     -135.953      -47.067      -17.015       11.306        9.676        9.510      127.822       93.633       90.445        1.065        0.016      143.870        4.659        0.001      333.464        2.795      868.287
01/07/2015  22:37:00     -123.739      -42.079      -19.836       14.696       11.632        9.534      215.979      135.295       90.891        0.896        0.022      130.698        5.127        0.002      333.457        2.781      868.291
01/07/2015  22:38:00     -118.233      -37.195      -23.547       16.296       13.144       10.479      265.561      172.762      109.801        0.823        0.027      123.946        7.856        0.004      333.490        2.838      868.289
01/07/2015  22:39:00     -121.786      -37.192      -12.013       20.382       18.596       18.357      415.436      345.820      336.982        0.873        0.055      127.338       15.241        0.014      333.486        2.832      868.281
01/07/2015  22:40:00     -104.467      -51.506       -7.206       19.436       19.521       10.591      377.755      381.067      112.166        0.724        0.044      116.474        7.515        0.004      333.465        2.797      868.276
01/07/2015  22:41:00     -111.554      -42.635      -12.688       11.977       13.490        8.182      143.449      181.982       66.950        0.741        0.020      119.424        6.067        0.003      333.447        2.767      868.263
01/07/2015  22:42:00     -116.657      -49.352      -12.463       12.290       12.679       10.507      151.056      160.756      110.405        0.831        0.021      126.667        7.711        0.004      333.441        2.756      868.260
01/07/2015  22:43:00     -110.164      -24.771      -15.187       24.443       15.141       13.220      597.464      229.257      174.765        0.699        0.050      112.914       12.445        0.012      333.468        2.801      868.252
01/07/2015  22:44:00     -108.623      -22.669      -20.915       10.397       10.214        8.462      108.104      104.327       71.608        0.652        0.014      110.963        5.315        0.002      333.444        2.761      868.236
01/07/2015  22:45:00     -107.656      -28.917      -18.253       10.654       12.027        9.400      113.500      144.647       88.366        0.655        0.017      111.472        4.613        0.002      333.450        2.772      868.218
01/07/2015  22:46:00     -106.291      -16.129      -16.577       18.212       17.153       17.327      331.687      294.242      300.235        0.638        0.046      107.508       10.656        0.010      333.438        2.751      868.207
01/07/2015  22:47:00      -96.458      -15.668      -15.750       20.111       23.459       16.364      404.450      550.341      267.784        0.551        0.061       97.722       12.682        0.017      333.402        2.692      868.208
01/07/2015  22:48:00      -70.925      -27.390      -10.392       23.733       20.901       19.032      563.277      436.853      362.217        0.363        0.068       76.030       14.150        0.035      333.391        2.675      868.199
01/07/2015  22:49:00      -89.075      -21.325      -11.455       15.140       19.052       12.878      229.225      362.993      165.841        0.464        0.038       91.592        9.321        0.010      333.441        2.757      868.190
01/07/2015  22:50:00     -103.807      -19.517      -20.608       17.581       14.330       11.431      309.075      205.335      130.670        0.611        0.032      105.626        9.743        0.009      333.412        2.710      868.172
01/07/2015  22:51:00      -91.216      -19.197      -19.568       19.107       15.328       13.510      365.074      234.950      182.507        0.493        0.039       93.214        8.531        0.008      333.366        2.635      868.149
01/07/2015  22:52:00      -98.126      -14.277      -13.673       14.600       16.673       13.342      213.172      277.983      178.021        0.534        0.033       99.159       10.109        0.010      333.340        2.591      868.127
01/07/2015  22:53:00      -89.879      -16.083      -16.216       28.725       16.224       14.722      825.142      263.231      216.742        0.495        0.065       91.307       13.938        0.023      333.346        2.601      868.118
01/07/2015  22:54:00      -71.155      -25.612       -5.667       21.742       15.592       15.180      472.697      243.108      230.420        0.335        0.047       75.624       12.427        0.027      333.316        2.552      868.111
01/07/2015  22:55:00      -95.922      -16.779      -18.992       15.255       12.282       11.402      232.704      150.843      130.003        0.518        0.026       97.378        8.843        0.008      333.289        2.506      868.109
01/07/2015  22:56:00      -95.105      -21.287      -14.664       18.801       18.039       10.893      353.492      325.418      118.658        0.526        0.040       97.459        7.620        0.006      333.297        2.520      868.108
01/07/2015  22:57:00      -79.586      -30.057       -7.100       11.517       16.022        9.671      132.637      256.689       93.537        0.389        0.024       85.072        4.797        0.003      333.282        2.494      868.104
01/07/2015  22:58:00      -72.969      -35.941      -18.822       16.891       13.303       10.856      285.298      176.978      117.847        0.378        0.029       81.341        9.020        0.012      333.289        2.505      868.100
01/07/2015  22:59:00      -66.215      -17.662      -16.016       15.631       10.983       10.095      244.337      120.637      101.911        0.271        0.023       68.530        6.452        0.009      333.316        2.552      868.091
01/07/2015  23:00:00      -56.237      -17.788       -9.181       12.480       14.208       11.819      155.740      201.870      139.698        0.203        0.025       58.983        8.217        0.019      333.290        2.506      868.089
01/07/2015  23:01:00      -71.156      -17.186       -7.835       18.515       12.505        9.230      342.820      156.378       85.184        0.300        0.029       73.202        7.115        0.009      333.250        2.440      868.075
01/07/2015  23:02:00      -77.016      -20.914      -12.089       12.276       12.321       10.242      150.701      151.803      104.893        0.346        0.020       79.805        3.331        0.002      333.249        2.437      868.066
01/07/2015  23:03:00      -82.711      -15.355       -6.214       22.488       14.302       10.710      505.708      204.549      114.696        0.397        0.041       84.124       10.487        0.016      333.220        2.392      868.053
01/07/2015  23:04:00      -88.305       -6.826      -11.011       11.661       12.842        8.890      135.974      164.916       79.034        0.417        0.019       88.568        6.022        0.005      333.273        2.480      868.044
01/07/2015  23:05:00      -85.573       -6.431      -14.950        9.792        9.734        7.335       95.889       94.747       53.800        0.392        0.012       85.815        3.350        0.002      333.261        2.459      868.039
01/07/2015  23:06:00      -78.875       -9.094      -15.748       10.439        8.486        5.901      108.963       72.019       34.823        0.338        0.011       79.397        4.309        0.003      333.251        2.441      868.028
01/07/2015  23:07:00      -76.548       -9.275      -15.485        9.522       10.039        7.274       90.665      100.776       52.912        0.321        0.012       77.108        5.619        0.005      333.224        2.397      868.026
01/07/2015  23:08:00      -77.452       -5.949      -12.164       13.515       11.086        8.419      182.662      122.889       70.881        0.328        0.019       77.680        6.237        0.006      333.195        2.350      868.026
01/07/2015  23:09:00      -54.566      -26.064       -8.328       11.567        9.887        6.831      133.787       97.749       46.666        0.200        0.014       60.471        3.540        0.003      333.217        2.386      868.031
01/07/2015  23:10:00      -55.832      -18.296      -14.020       10.021        9.150        7.620      100.410       83.724       58.064        0.195        0.012       58.753        6.204        0.011      333.173        2.315      868.022
01/07/2015  23:11:00      -52.489      -24.624      -11.267       11.527        7.947        9.736      132.871       63.154       94.782        0.189        0.015       57.978        7.054        0.015      333.170        2.309      868.005
01/07/2015  23:12:00      -73.313      -32.673       -9.101       11.644        9.259        5.662      135.581       85.725       32.057        0.339        0.013       80.264        2.234        0.001      333.119        2.226      867.996
01/07/2015  23:13:00      -90.855      -38.947      -12.958       10.966       15.636       11.023      120.260      244.479      121.513        0.521        0.024       98.851        4.683        0.002      333.101        2.196      867.988
01/07/2015  23:14:00     -129.350      -32.093      -14.522       23.523       16.953        9.922      553.335      287.389       98.452        0.946        0.047      133.272        8.655        0.004      333.114        2.217      867.975
01/07/2015  23:15:00     -110.221      -36.878       -6.284       29.211       20.687       18.622      853.307      427.951      346.784        0.759        0.081      116.227       19.499        0.028      333.044        2.103      867.966
01/07/2015  23:16:00     -122.764      -45.871       -9.738       22.710       16.815       14.921      515.730      282.748      222.647        0.915        0.051      131.054       13.026        0.010      333.093        2.182      867.961
01/07/2015  23:17:00     -126.657      -36.526      -17.814       12.653       10.662       10.280      160.109      113.682      105.668        0.904        0.019      131.818        6.032        0.002      333.090        2.178      867.958
01/07/2015  23:18:00     -116.686      -40.187      -12.904        8.469        8.532        8.714       71.717       72.792       75.936        0.781        0.011      123.413        5.119        0.002      333.125        2.237      867.956
01/07/2015  23:19:00      -97.645      -27.552       -3.019       23.695       16.284       14.999      561.467      265.154      224.966        0.568        0.053      101.458       15.308        0.023      333.105        2.201      867.958
01/07/2015  23:20:00     -103.659      -33.074       -9.887       26.096       14.527       10.707      681.020      211.025      114.641        0.647        0.050      108.807        8.165        0.006      333.202        2.361      867.954
01/07/2015  23:21:00      -94.745      -26.359      -14.457       12.328       13.154        7.731      151.968      173.016       59.766        0.513        0.019       98.343        2.979        0.001      333.220        2.391      867.950
01/07/2015  23:22:00      -97.143      -21.963      -12.760       15.816       13.519        7.932      250.158      182.751       62.910        0.529        0.025       99.595        5.451        0.003      333.252        2.444      867.939
01/07/2015  23:23:00      -97.824      -23.347      -13.992       14.076       15.076       10.066      198.137      227.291      101.320        0.542        0.026      100.571        6.411        0.004      333.227        2.402      867.927
01/07/2015  23:24:00      -90.698      -25.412      -14.251       12.097       12.610       10.928      146.344      159.010      119.420        0.475        0.021       94.191        7.837        0.007      333.148        2.273      867.916
01/07/2015  23:25:00      -93.982      -25.666      -15.133       14.342       16.858        9.056      205.687      284.199       82.005        0.515        0.029       97.423        3.821        0.002      333.190        2.341      867.906
01/07/2015  23:26:00      -85.124       -4.715      -19.724       26.929       21.761       12.853      725.181      473.549      165.201        0.451        0.068       85.255       12.879        0.023      333.286        2.500      867.895
01/07/2015  23:27:00      -76.559        2.263       -9.750       22.953       17.166       10.614      526.820      294.662      112.655        0.345        0.047       76.593        9.963        0.017      333.343        2.597      867.881
01/07/2015  23:28:00      -63.115       -3.671      -12.143       17.309       16.393       11.900      299.586      268.737      141.619        0.243        0.035       63.221        9.437        0.022      333.374        2.647      867.865
01/07/2015  23:29:00      -61.235       -3.059       -7.772       17.277       17.421       11.886      298.503      303.482      141.269        0.228        0.037       61.312        6.411        0.011      333.360        2.622      867.843
01/07/2015  23:30:00      -67.053      -18.626      -10.397       27.209       18.015       16.191      740.341      324.541      262.158        0.314        0.066       69.592       16.304        0.055      333.285        2.499      867.828
01/07/2015  23:31:00      -80.998      -30.920      -10.307       16.331       17.757        9.871      266.705      315.303       97.446        0.415        0.034       86.699        9.439        0.012      333.224        2.397      867.812
01/07/2015  23:32:00      -78.946      -34.660      -13.050       17.599       26.194       14.157      309.710      686.128      200.430        0.440        0.060       86.220       13.663        0.025      333.128        2.239      867.803
01/07/2015  23:33:00      -85.761      -42.714      -14.203       18.388       19.878       18.515      338.124      395.144      342.801        0.523        0.054       95.810       15.305        0.026      333.009        2.043      867.792
01/07/2015  23:34:00      -88.700      -63.027      -17.327       16.552       18.502       13.266      273.967      342.325      175.976        0.647        0.040      108.812        9.269        0.007      332.996        2.023      867.790
01/07/2015  23:35:00      -98.079      -48.684      -13.958       28.130       30.831       15.809      791.283      950.540      249.936        0.709        0.100      109.497       10.177        0.009      332.949        1.946      867.799
01/07/2015  23:36:00      -74.312      -39.312      -13.847       33.654       25.964       19.146     1132.601      674.124      366.573        0.472        0.109       84.070       17.979        0.046      332.942        1.933      867.794
01/07/2015  23:37:00      -73.618      -45.869      -11.402       34.440       28.660       22.816     1186.109      821.421      520.551        0.509        0.126       86.739       22.399        0.067      332.955        1.953      867.779
01/07/2015  23:38:00      -97.841      -21.118      -13.722       29.979       18.776       12.617      898.756      352.539      159.183        0.581        0.071      100.094       11.763        0.014      332.918        1.894      867.765
01/07/2015  23:39:00      -94.679      -22.257      -14.370       17.122       14.563       11.817      293.160      212.071      139.651        0.516        0.032       97.260        5.770        0.004      332.938        1.927      867.749
01/07/2015  23:40:00      -76.627      -36.430      -16.751       19.267       18.856       16.701      371.224      355.553      278.907        0.424        0.050       84.846       12.613        0.022      332.931        1.915      867.747
01/07/2015  23:41:00      -90.685      -60.786      -14.087       27.649       28.079       15.673      764.449      788.411      245.657        0.696        0.090      109.173        9.912        0.008      332.958        1.959      867.743
01/07/2015  23:42:00      -87.388      -46.987       -9.070       27.412       18.624       20.014      751.425      346.854      400.555        0.571        0.075       99.219       13.169        0.018      332.925        1.905      867.731
01/07/2015  23:43:00      -99.891      -39.163      -14.379       26.928       20.381       17.263      725.106      415.398      298.017        0.658        0.072      107.294        8.729        0.007      332.977        1.991      867.716
01/07/2015  23:44:00     -125.035      -28.242       -6.357       23.755       27.611       14.763      564.304      762.350      217.935        0.901        0.077      128.185        7.807        0.004      332.971        1.980      867.697
01/07/2015  23:45:00     -104.055      -41.850       -4.749       24.570       25.424       22.700      603.697      646.361      515.279        0.718        0.088      112.156       18.013        0.026      332.903        1.869      867.685
01/07/2015  23:46:00     -131.932      -20.222      -13.299       36.942       24.017       16.642     1364.685      576.822      276.968        1.010        0.111      133.473       19.455        0.021      332.903        1.870      867.681
01/07/2015  23:47:00      -96.750      -43.538       -5.232       38.837       25.809       16.523     1508.347      666.113      273.025        0.686        0.122      106.095       19.904        0.035      332.926        1.907      867.669
01/07/2015  23:48:00     -114.222      -42.424      -16.529       17.017       32.779       18.463      289.562     1074.450      340.890        0.841        0.085      121.846       17.075        0.020      332.888        1.844      867.657
01/07/2015  23:49:00     -102.271      -30.018      -13.407       45.349       28.353       24.494     2056.504      803.908      599.971        0.750        0.173      106.585       29.381        0.076      332.937        1.925      867.648
01/07/2015  23:50:00      -99.647      -46.213      -10.607       23.710       24.637       24.178      562.181      607.004      584.583        0.697        0.088      109.842       18.631        0.029      332.937        1.924      867.642
01/07/2015  23:51:00     -129.152      -44.907      -13.070       32.273       32.944       16.667     1041.554     1085.304      277.778        1.064        0.120      136.737        9.662        0.005      332.892        1.850      867.628
01/07/2015  23:52:00     -137.655      -51.518       -9.449       28.852       31.573       21.442      832.416      996.881      459.781        1.199        0.114      146.980       16.768        0.013      332.857        1.794      867.621
01/07/2015  23:53:00     -111.468      -46.926       -4.609       29.674       34.079       20.784      880.568     1161.388      431.992        0.856        0.124      120.943       13.935        0.013      332.838        1.761      867.617
01/07/2015  23:54:00     -120.715       -8.824       -5.172       46.700       41.770       24.315     2180.886     1744.715      591.241        0.960        0.226      121.037       20.247        0.028      332.838        1.763      867.613
01/07/2015  23:55:00     -123.243        5.933      -11.649       54.596       34.262       25.973     2980.703     1173.881      674.603        1.009        0.241      123.385       23.472        0.036      332.862        1.801      867.605
01/07/2015  23:56:00     -115.063      -14.225       -6.430       51.584       36.719       25.594     2660.887     1348.292      655.056        0.907        0.233      115.939       27.753        0.057      332.826        1.742      867.618
01/07/2015  23:57:00     -107.493       12.016       -3.516       64.735       35.879       26.029     4190.637     1287.279      677.486        0.893        0.308      108.163       31.133        0.083      332.867        1.809      867.616
01/07/2015  23:58:00      -77.390      -18.450       -1.247       62.667       34.037       24.236     3927.173     1158.498      587.384        0.600        0.284       79.559       26.451        0.111      332.847        1.776      867.606
01/07/2015  23:59:00     -105.378       -5.865       -6.948       50.275       50.833       28.437     2527.576     2584.030      808.662        0.855        0.296      105.541       26.925        0.065      332.969        1.977      867.597
